[[{"header":{"parameterUnit":"m.s-1","parameterCategory":1,"la1":30.6,"la2":28.766,"lo1":-90.7593,"lo2":-88.6598,"dy":0.0162,"dx":0.0183,"nx":116,"ny":114,"refTime":"2024-03-07T06:00:00:Z","depth":0,"parameterNumber":2,"parameterNumberName":"U-component_of_WINDS"},"data":[0.0,0.0,0.0,0.0,0.0,0.0,0.0,0.0,0.0,0.0,0.0,0.0,0.0,0.0,0.0,0.0,0.0,0.0,0.0,0.0,0.0,0.0,0.0,0.0,0.0,0.0,0.0,0.0,0.0,0.0,0.0,0.0,0.0,0.0,0.0,0.0,0.0,0.0,0.0,0.0,0.0,0.0,0.0,0.0,0.0,0.0,0.0,0.0,0.0,0.0,0.0,0.0,0.0,0.0,0.0,0.0,0.0,0.0,0.0,0.0,0.0,0.0,0.0,0.0,0.0,0.0,0.0,0.0,0.0,0.0,0.0,0.0,0.0,0.0,0.0,0.0,0.0,0.0,0.0,0.0,0.0,0.0,0.0,0.0,0.0,0.0,0.0,0.0,0.0,0.0,0.0,0.0,0.0,0.0,0.0,0.0,0.0,0.0,0.0,0.0,0.0,0.0,0.0,0.0,0.0,0.0,0.0,0.0,0.0,0.0,0.0,0.0,0.0,0.0,0.0,0.0,0.0,0.0,0.0,0.0,0.0,0.0,0.0,0.0,0.0,0.0,0.0,0.0,0.0,0.0,0.0,0.0,0.0,0.0,0.0,0.0,0.0,0.0,0.0,0.0,0.0,0.0,0.0,0.0,0.0,0.0,0.0,0.0,0.0,0.0,0.0,0.0,0.0,0.0,0.0,0.0,0.0,0.0,0.0,0.0,0.0,0.0,0.0,0.0,0.0,0.0,0.0,0.0,0.0,0.0,0.0,0.0,0.0,0.0,0.0,0.0,0.0,0.0,0.0,0.0,0.0,0.0,0.0,0.0,0.0,0.0,0.0,0.0,0.0,0.0,0.0,0.0,0.0,0.0,0.0,0.0,0.0,0.0,0.0,0.0,0.0,0.0,0.0,0.0,0.0,0.0,0.0,0.0,0.0,0.0,0.0,0.0,0.0,0.0,0.0,0.0,0.0,0.0,0.0,0.0,0.0,0.0,0.0,0.0,0.0,0.0,0.0,0.0,0.0,0.0,0.0,0.0,0.0,0.0,0.0,0.0,0.0,0.0,0.0,0.0,0.0,0.0,0.0,0.0,0.0,0.0,0.0,0.0,0.0,0.0,0.0,0.0,0.0,0.0,0.0,0.0,0.0,0.0,0.0,0.0,0.0,0.0,0.0,0.0,0.0,0.0,0.0,0.0,0.0,0.0,0.0,0.0,0.0,0.0,0.0,0.0,0.0,0.0,0.0,0.0,0.0,0.0,0.0,0.0,0.0,0.0,0.0,0.0,0.0,0.0,0.0,0.0,0.0,0.0,0.0,0.0,0.0,0.0,0.0,0.0,0.0,0.0,0.0,0.0,0.0,0.0,0.0,0.0,0.0,0.0,0.0,0.0,0.0,0.0,0.0,0.0,0.0,0.0,0.0,0.0,0.0,0.0,0.0,0.0,0.0,0.0,0.0,0.0,0.0,0.0,0.0,0.0,0.0,0.0,0.0,0.0,0.0,0.0,0.0,0.0,0.0,0.0,0.0,0.0,0.0,0.0,0.0,0.0,0.0,0.0,0.0,0.0,0.0,0.0,0.0,0.0,0.0,0.0,0.0,0.0,0.0,0.0,0.0,0.0,0.0,0.0,0.0,0.0,0.0,0.0,0.0,0.0,0.0,0.0,0.0,0.0,0.0,0.0,0.0,0.0,0.0,0.0,0.0,0.0,0.0,0.0,0.0,0.0,0.0,0.0,0.0,0.0,0.0,0.0,0.0,0.0,0.0,0.0,0.0,0.0,0.0,0.0,0.0,0.0,0.0,0.0,0.0,0.0,0.0,0.0,0.0,0.0,0.0,0.0,0.0,0.0,0.0,0.0,0.0,0.0,0.0,0.0,0.0,0.0,0.0,0.0,0.0,0.0,0.0,0.0,0.0,0.0,0.0,0.0,0.0,0.0,0.0,0.0,0.0,0.0,0.0,0.0,0.0,0.0,0.0,0.0,0.0,0.0,0.0,0.0,0.0,0.0,0.0,0.0,0.0,0.0,0.0,0.0,0.0,0.0,0.0,0.0,0.0,0.0,0.0,0.0,0.0,0.0,0.0,0.0,0.0,0.0,0.0,0.0,0.0,0.0,0.0,0.0,0.0,0.0,0.0,0.0,0.0,0.0,0.0,0.0,0.0,0.0,0.0,0.0,0.0,0.0,0.0,0.0,0.0,0.0,0.0,0.0,0.0,0.0,0.0,0.0,0.0,0.0,0.0,0.0,0.0,0.0,0.0,0.0,0.0,0.0,0.0,0.0,0.0,0.0,0.0,0.0,0.0,0.0,0.0,0.0,0.0,0.0,0.0,0.0,0.0,0.0,0.0,0.0,0.0,0.0,0.0,0.0,0.0,0.0,0.0,0.0,0.0,0.0,0.0,0.0,0.0,0.0,0.0,0.0,0.0,0.0,0.0,0.0,0.0,0.0,0.0,0.0,0.0,0.0,0.0,0.0,0.0,0.0,0.0,0.0,0.0,0.0,0.0,0.0,0.0,0.0,0.0,0.0,0.0,0.0,0.0,0.0,0.0,0.0,0.0,0.0,0.0,0.0,0.0,0.0,0.0,0.0,0.0,0.0,0.0,0.0,0.0,0.0,0.0,0.0,0.0,0.0,0.0,0.0,0.0,0.0,0.0,0.0,0.0,0.0,0.0,0.0,0.0,0.0,0.0,0.0,0.0,0.0,0.0,0.0,0.0,0.0,0.0,0.0,0.0,0.0,0.0,0.0,0.0,0.0,0.0,0.0,0.0,0.0,0.0,0.0,0.0,0.0,0.0,0.0,0.0,0.0,0.0,0.0,0.0,0.0,0.0,0.0,0.0,0.0,0.0,0.0,0.0,0.0,0.0,0.0,0.0,0.0,0.0,0.0,0.0,0.0,0.0,0.0,0.0,0.0,0.0,0.0,0.0,0.0,0.0,0.0,0.0,0.0,0.0,0.0,0.0,0.0,0.0,0.0,0.0,0.0,0.0,0.0,0.0,0.0,0.0,0.0,0.0,0.0,0.0,0.0,0.0,0.0,0.0,0.0,0.0,0.0,0.0,0.0,0.0,0.0,0.0,0.0,0.0,0.0,0.0,0.0,0.0,0.0,0.0,0.0,0.0,0.0,0.0,0.0,0.0,0.0,0.0,0.0,0.0,0.0,0.0,0.0,0.0,0.0,0.0,0.0,0.0,0.0,0.0,0.0,0.0,0.0,0.0,0.0,0.0,0.0,0.0,0.0,0.0,0.0,0.0,0.0,0.0,0.0,0.0,0.0,0.0,0.0,0.0,0.0,0.0,0.0,0.0,0.0,0.0,0.0,0.0,0.0,0.0,0.0,0.0,0.0,0.0,0.0,0.0,0.0,0.0,0.0,0.0,0.0,0.0,0.0,0.0,0.0,0.0,0.0,0.0,0.0,0.0,0.0,0.0,0.0,0.0,0.0,0.0,0.0,0.0,0.0,0.0,0.0,0.0,0.0,0.0,0.0,0.0,0.0,0.0,0.0,0.0,0.0,0.0,0.0,0.0,0.0,0.0,0.0,0.0,0.0,0.0,0.0,0.0,0.0,0.0,0.0,0.0,0.0,0.0,0.0,0.0,0.0,0.0,0.0,0.0,0.0,0.0,0.0,0.0,0.0,0.0,0.0,0.0,0.0,0.0,0.0,0.0,0.0,0.0,0.0,0.0,0.0,0.0,0.0,0.0,0.0,0.0,0.0,0.0,0.0,0.0,0.0,0.0,0.0,0.0,0.0,0.0,0.0,0.0,0.0,0.0,0.0,0.0,0.0,0.0,0.0,0.0,0.0,0.0,0.0,0.0,0.0,0.0,0.0,0.0,0.0,0.0,0.0,0.0,0.0,0.0,0.0,0.0,0.0,0.0,0.0,0.0,0.0,0.0,0.0,0.0,0.0,0.0,0.0,0.0,0.0,0.0,0.0,0.0,0.0,0.0,0.0,0.0,0.0,0.0,0.0,0.0,0.0,0.0,0.0,0.0,0.0,0.0,0.0,0.0,0.0,0.0,0.0,0.0,0.0,0.0,0.0,0.0,0.0,0.0,0.0,0.0,0.0,0.0,0.0,0.0,0.0,0.0,0.0,0.0,0.0,0.0,0.0,0.0,0.0,0.0,0.0,0.0,0.0,0.0,0.0,0.0,0.0,0.0,0.0,0.0,0.0,0.0,0.0,0.0,0.0,0.0,0.0,0.0,0.0,0.0,0.0,0.0,0.0,0.0,0.0,0.0,0.0,0.0,0.0,0.0,0.0,0.0,0.0,0.0,0.0,0.0,0.0,0.0,0.0,0.0,0.0,0.0,0.0,0.0,0.0,0.0,0.0,0.0,0.0,0.0,0.0,0.0,0.0,0.0,0.0,0.0,0.0,0.0,0.0,0.0,0.0,0.0,0.0,0.0,0.0,0.0,0.0,0.0,0.0,0.0,0.0,0.0,0.0,0.0,0.0,0.0,0.0,0.0,0.0,0.0,0.0,0.0,0.0,0.0,0.0,0.0,0.0,0.0,0.0,0.0,0.0,0.0,0.0,0.0,0.0,0.0,0.0,0.0,0.0,0.0,0.0,0.0,0.0,0.0,0.0,0.0,0.0,0.0,0.0,0.0,0.0,0.0,0.0,0.0,0.0,0.0,0.0,0.0,0.0,0.0,0.0,0.0,0.0,0.0,0.0,0.0,0.0,0.0,0.0,0.0,0.0,0.0,0.0,0.0,0.0,0.0,0.0,0.0,0.0,0.0,0.0,0.0,0.0,0.0,0.0,0.0,0.0,0.0,0.0,0.0,0.0,0.0,0.0,0.0,0.0,0.0,0.0,0.0,0.0,0.0,0.0,0.0,0.0,0.0,0.0,0.0,0.0,0.0,0.0,0.0,0.0,0.0,0.0,0.0,0.0,0.0,0.0,0.0,0.0,0.0,0.0,0.0,0.0,0.0,0.0,0.0,0.0,0.0,0.0,0.0,0.0,0.0,0.0,0.0,0.0,0.0,0.0,0.0,0.0,0.0,0.0,0.0,0.0,0.0,0.0,0.0,0.0,0.0,0.0,0.0,0.0,0.0,0.0,0.0,0.0,0.0,0.0,0.0,0.0,0.0,0.0,0.0,0.0,0.0,0.0,0.0,0.0,0.0,0.0,0.0,0.0,0.0,0.0,0.0,0.0,0.0,0.0,0.0,0.0,0.0,0.0,0.0,0.0,0.0,0.0,0.0,0.0,0.0,0.0,0.0,0.0,0.0,0.0,0.0,0.0,0.0,0.0,0.0,0.0,0.0,0.0,0.0,0.0,0.0,0.0,0.0,0.0,0.0,0.0,0.0,0.0,0.0,0.0,0.0,0.0,0.0,0.0,0.0,0.0,0.0,0.0,0.0,0.0,0.0,0.0,0.0,0.0,0.0,0.0,0.0,0.0,0.0,0.0,0.0,0.0,0.0,0.0,0.0,0.0,0.0,0.0,0.0,0.0,0.0,0.0,0.0,0.0,0.0,0.0,0.0,0.0,0.0,0.0,0.0,0.0,0.0,0.0,0.0,0.0,0.0,0.0,0.0,0.0,0.0,0.0,0.0,0.0,0.0,0.0,0.0,0.0,0.0,0.0,0.0,0.0,0.0,0.0,0.0,0.0,0.0,0.0,0.0,0.0,0.0,0.0,0.0,0.0,0.0,0.0,0.0,0.0,0.0,0.0,0.0,0.0,0.0,0.0,0.0,0.0,0.0,0.0,0.0,0.0,0.0,0.0,0.0,0.0,0.0,0.0,0.0,0.0,0.0,0.0,0.0,0.0,0.0,0.0,0.0,0.0,0.0,0.0,0.0,0.0,0.0,0.0,0.0,0.0,0.0,0.0,0.0,0.0,0.0,0.0,0.0,0.0,0.0,0.0,0.0,0.0,0.0,0.0,0.0,0.0,0.0,0.0,0.0,0.0,0.0,0.0,0.0,0.0,0.0,0.0,0.0,0.0,0.0,0.0,0.0,0.0,0.0,0.0,0.0,0.0,0.0,0.0,0.0,0.0,0.0,0.0,0.0,0.0,0.0,0.0,0.0,0.0,0.0,0.0,0.0,0.0,0.0,0.0,0.0,0.0,0.0,0.0,0.0,0.0,1.0138,0.0,0.0,0.0,0.0,0.0,0.0,0.0,0.0,0.0,0.0,0.0,0.0,0.0,0.0,0.0,0.0,0.0,0.0,0.0,0.0,0.0,0.0,0.0,0.0,0.0,0.0,0.0,0.0,0.0,0.0,0.0,0.0,0.0,0.0,0.0,0.0,0.0,0.1022,0.1968,0.2779,0.3592,0.4423,0.4977,0.5284,0.5402,0.0,0.0,0.0,0.0,0.0,0.0,0.0,0.0,0.0,0.0,0.0,0.0,0.0,0.0,0.0,0.0,0.0,0.0,0.0,0.0,0.0,0.0,0.0,0.0,0.0,0.0,0.0,0.0,0.0,0.0,0.0,0.0,0.0,0.0,0.0,0.0,0.0,0.0,0.0,0.0,0.0,0.0,0.0,0.0,0.0,0.0,0.0,0.0,0.0,0.0,0.0,0.0,0.0,0.0,0.0,0.0,0.0,0.0,0.0,0.0,0.0,0.0,0.0,0.0,0.0,0.0,0.0,0.0,0.0,0.0,0.0,1.0677,0.0,0.0,0.0,0.0,0.0,0.0,0.0,0.0,0.0,0.0,0.0,0.0,0.0,0.0,0.0,0.0,0.0,0.0,0.0,0.0,0.0,0.0,0.0,-0.0872,0.0,0.0,0.0,0.0,0.0,0.0,0.0,0.0,0.0,0.0,0.0,0.0163,0.0949,0.2427,0.2646,0.3607,0.5221,0.5491,0.5576,0.5559,0.5664,0.0,0.0,0.0,0.0,0.0,0.0,0.0,0.0,0.0,0.0,0.0,0.0,0.0,0.0,0.0,0.0,0.0,0.0,0.0,0.0,0.0,0.0,0.0,0.0,0.0,0.0,0.0,0.0,0.0,0.0,0.0,0.0,0.0,0.0,0.0,0.0,0.0,0.0,0.0,0.0,0.0,0.0,0.0,0.0,0.0,0.0,0.0,0.0,0.0,0.0,0.0,0.0,0.0,0.0,0.0,0.0,0.0,0.0,0.0,0.0,0.0,0.0,0.0,0.0,1.2561,1.2091,1.195,1.1453,1.0695,1.0859,1.1047,1.1252,0.0,0.0,0.0,0.0,0.0,0.0,0.0,0.0,0.0,0.0,0.0,0.0,0.0,0.0,0.0,0.0,0.0,0.0,0.0,0.0,0.0,0.0,-0.0889,0.0,0.0,0.0,0.0,0.0,0.0,0.0,0.0,0.0,0.0,0.0,0.0735,0.1189,0.1327,0.3,0.447,0.5722,0.6132,0.63,0.616,0.5672,0.5637,0.5952,0.0,0.0,0.0,0.0,0.0,0.0,0.0,0.0,0.0,0.0,0.0,0.0,0.0,0.0,0.0,0.0,0.0,0.0,0.0,0.0,0.0,0.0,0.0,0.0,0.0,0.0,0.0,0.0,0.0,0.0,0.0,0.0,0.0,0.0,0.0,0.0,0.0,0.0,0.0,0.0,0.0,0.9705,1.0605,0.0,0.0,0.0,0.0,0.0,0.0,0.0,0.0,0.0,0.0,0.0,0.0,0.0,0.0,1.3851,1.3909,1.3763,1.3402,1.2718,1.2131,1.1668,1.0948,1.0768,1.1047,1.105,0.0,0.997,1.0231,0.0,0.0,0.0,0.0,0.0,0.0,0.0,0.0,0.0,0.0,0.0,0.0,0.0,0.0,0.0,0.0,0.0,0.0,0.0,0.0,0.0,-0.0622,0.0,0.0,0.0,0.0,0.0,0.0,0.0,0.0,0.0,0.0,0.0,0.0839,0.1812,0.2829,0.4493,0.5558,0.6105,0.643,0.6566,0.6491,0.618,0.6088,0.6156,0.6088,0.0,0.0,0.0,0.0,0.0,0.0,0.0,0.0,0.0,0.0,0.0,0.0,0.0,0.0,0.0,0.0,0.0,0.0,0.0,0.0,0.0,0.0,0.0,0.0,0.0,0.0,0.0,0.0,0.0,0.0,0.0,0.0,0.0,0.0,0.0,0.0,0.0,0.0,0.0,0.9453,1.0049,1.0425,1.0828,1.1276,0.0,0.0,0.0,0.0,0.0,0.0,0.0,0.0,0.0,1.4209,1.4453,1.464,1.4825,1.4825,1.4476,1.3774,1.3277,1.2622,1.1877,1.1353,1.1036,1.0882,1.0882,1.0306,0.9493,1.0423,1.0772,1.0644,0.0,0.0,0.0,0.0,0.0,0.9727,0.0,0.0,0.0,0.0,0.0,0.0,0.0,0.0,0.0,0.0,0.0,0.0,-0.1157,-0.0435,0.0,0.0,0.0,0.0,0.0,0.0,0.0,0.0,0.0,0.0101,0.0337,0.1452,0.2944,0.4792,0.588,0.647,0.6593,0.6848,0.6966,0.6929,0.6848,0.6692,0.6474,0.6323,0.6135,0.6017,0.0,0.0,0.0,0.0,0.0,0.0,0.0,0.0,0.0,0.0,0.0,0.0,0.0,0.0,0.0,0.0,0.0,0.0,0.0,0.0,0.0,0.0,0.0,0.0,0.0,0.0,0.0,0.0,0.0,0.0,0.0,0.0,0.0,0.0,0.0,0.0,0.0,0.9798,1.0257,1.0105,1.0777,1.1335,0.0,0.0,0.0,0.0,0.0,0.0,1.362,1.368,1.3914,1.4389,1.4688,1.4893,1.5035,1.5035,1.4663,1.3961,1.3554,1.2997,1.2248,1.1809,1.13,1.0768,1.0768,1.0254,0.9502,1.0402,1.0504,1.0049,0.9545,0.953,0.9705,0.9276,0.9156,0.9358,0.0,0.0,0.0,0.0,0.0,0.0,0.0,0.0,0.0,0.0,0.0,-0.1148,-0.1098,-0.0432,0.0,0.0,0.0,0.0,0.0,0.0,0.0,0.0,0.0,0.0404,0.1207,0.3092,0.4826,0.6387,0.6597,0.6895,0.7368,0.7617,0.7685,0.756,0.7689,0.7502,0.7007,0.6303,0.6278,0.6607,0.6034,0.0,0.0,0.0,0.0,0.0,0.0,0.0,0.0,0.0,0.0,0.0,0.0,0.0,0.0,0.0,0.0,0.0,0.0,0.0,0.0,0.0,0.0,0.0,0.0,0.0,0.0,0.0,0.0,0.0,0.0,0.0,0.0,0.0,0.0,0.0,0.0,0.0,0.0,0.9855,1.058,0.0,0.0,0.0,0.0,1.3023,1.3273,1.3535,1.3948,1.3154,1.2847,1.3258,1.3314,1.3517,1.3958,1.3967,1.3967,1.3901,1.3107,1.2706,1.2639,1.181,1.1249,1.0987,1.0987,1.0633,1.0027,0.9522,0.9504,0.9769,0.9377,0.9829,1.0677,1.036,1.0418,1.0713,0.0,0.0,0.0,0.0,0.0,0.0,0.0,0.0,-0.301,-0.2009,-0.1417,-0.0911,-0.0434,-0.0142,0.0,0.0,0.0,0.0,0.0,0.0,0.0,0.0,0.0662,0.1785,0.3469,0.4264,0.5359,0.6766,0.7112,0.7407,0.7658,0.7862,0.788,0.7833,0.7831,0.7723,0.7529,0.6839,0.6586,0.6519,0.6112,0.6006,0.0,0.0,0.0,0.0,0.0,0.0,0.0,0.0,0.0,0.0,0.0,0.0,0.0,0.0,0.0,0.0,0.0,0.0,0.0,0.0,0.0,0.0,0.0,0.0,0.0,0.0,0.0,0.0,0.0,0.0,0.0,0.0,0.0,0.0,0.0,0.0,0.0,1.0613,1.1196,0.0,1.2127,1.2223,1.2492,1.3014,1.3306,1.357,1.379,1.3949,1.4122,1.4346,1.4784,1.4937,1.4749,1.4901,1.4584,1.3773,1.3296,1.2784,1.2158,1.1648,1.1335,1.1269,1.1269,1.1156,1.0883,1.0327,0.9946,0.9736,0.9564,0.9763,1.0084,0.9953,0.9981,1.0097,0.0,0.0,0.0,0.0,0.0,0.0,0.0,0.0,-0.2259,-0.1229,-0.0883,-0.0529,-0.0071,0.0,0.0,0.0,0.0,0.0,0.0,0.0,0.0143,0.0425,0.1804,0.3258,0.4722,0.5317,0.6073,0.7156,0.7502,0.7746,0.7889,0.7941,0.7988,0.7985,0.7884,0.7889,0.7858,0.7414,0.7021,0.6668,0.6318,0.6302,0.6437,0.0,0.0,0.0,0.0,0.0,0.0,0.0,0.0,0.0,0.0,0.0,0.0,0.0,0.0,0.0,0.0,0.0,0.0,0.0,0.0,0.0,0.0,0.0,0.0,0.0,0.0,0.0,0.0,0.0,0.0,0.0,0.0,0.0,0.0,0.0,1.161,1.133,1.1984,1.2603,1.3006,1.3017,1.3197,1.3725,1.3684,1.3766,1.398,1.4162,1.4296,1.437,1.4828,1.4889,1.4518,1.4618,1.423,1.3395,1.3114,1.2649,1.2047,1.181,1.1663,1.1577,1.1577,1.1482,1.1362,1.1009,1.0621,1.0241,0.9947,0.9826,0.9826,0.9826,0.9826,0.982,0.0,0.0,0.0,0.0,0.0,0.0,0.0,-0.1563,-0.109,-0.1064,-0.0458,0.0,0.0,0.0,0.0,0.0,0.0,0.0,0.0,0.0035,0.0458,0.1377,0.3391,0.4654,0.4979,0.6252,0.716,0.7607,0.775,0.7892,0.7988,0.7988,0.7988,0.7988,0.7988,0.7988,0.7978,0.7882,0.7567,0.7085,0.6675,0.6668,0.6839,0.0,0.0,0.0,0.0,0.0,0.0,0.0,0.0,0.0,0.0,0.0,0.0,0.0,0.0,0.0,0.0,0.0,0.0,0.0,0.0,0.0,0.0,0.0,0.0,0.0,0.0,0.0,0.0,0.0,0.0,0.0,0.0,0.0,1.0258,1.1209,1.1953,1.1986,1.2979,1.3586,1.3364,1.3768,1.4351,1.5107,1.4449,1.4174,1.4545,1.3734,1.3233,1.3227,1.3233,1.3227,1.3213,1.2951,1.2797,1.2784,1.2452,1.2311,1.2305,1.2311,1.2158,1.1919,1.1919,1.1724,1.1415,1.1409,1.1409,1.1322,1.0463,1.0154,1.014,1.014,1.011,1.0094,0.0,0.0,0.0,0.0,0.0,0.0,-0.1424,-0.1229,-0.0902,-0.0376,-0.0129,0.0,0.0,0.0,0.0,0.0,0.0,0.0,0.0,0.0593,0.1774,0.3672,0.4328,0.5213,0.6455,0.6993,0.7414,0.7753,0.7902,0.7948,0.7988,0.7988,0.7988,0.7988,0.7988,0.7988,0.7985,0.7944,0.7857,0.7695,0.7139,0.6903,0.6859,0.0,0.0,0.0,0.0,0.0,0.0,0.0,0.0,0.0,0.0,0.0,0.0,0.0,0.0,0.0,0.0,0.0,0.0,0.0,0.0,0.0,0.0,0.0,0.0,0.0,0.0,0.0,0.0,0.0,0.0,0.0,0.0,1.1621,1.1424,1.2649,1.3599,1.3755,1.4275,1.467,1.481,1.4767,1.4724,1.4699,1.4483,1.4344,1.4248,1.4007,1.3748,1.3493,1.3734,1.3641,1.3213,1.3126,1.2973,1.2784,1.2703,1.2549,1.2311,1.2563,1.2502,1.2184,1.2184,1.2138,1.2044,1.183,1.175,1.1703,1.1243,1.0935,1.0748,1.0748,1.0621,1.0486,0.0,0.0,0.0,0.0,0.0,0.0,-0.0684,-0.0637,-0.0479,-0.0058,0.0,0.0,0.0,0.0,0.0,0.0,0.0,0.0,0.0,0.1291,0.2839,0.4614,0.528,0.6119,0.7183,0.7448,0.7672,0.7906,0.7944,0.7988,0.7988,0.7988,0.7988,0.7988,0.7988,0.8025,0.8136,0.8136,0.8136,0.8109,0.7821,0.7577,0.7311,0.697,0.6966,0.7037,0.6739,0.7059,0.7655,0.7775,0.0,0.0,0.0,0.0,0.0,0.0,0.0,0.0,0.0,0.0,0.0,0.0,0.0,0.0,0.0,0.0,0.0,0.0,0.0,0.0,0.0,0.0,0.0,0.0,1.1817,1.2605,1.3139,1.3857,1.4441,1.4841,1.515,1.5391,1.5565,1.5311,1.5077,1.4897,1.4656,1.4449,1.4282,1.4155,1.4062,1.3973,1.4062,1.3981,1.3761,1.3473,1.33,1.312,1.3038,1.2891,1.2685,1.2764,1.269,0.0,1.2522,1.2418,1.2298,1.2288,1.2275,0.0,0.0,0.0,0.0,0.0,1.1176,1.0949,0.0,0.0,0.0,0.0,0.0,0.0,-0.0106,0.0,0.0,0.0,0.0,0.0,0.0,0.0,0.0,0.0,0.0,0.011,0.0317,0.2074,0.3685,0.489,0.6255,0.7119,0.7414,0.7695,0.7902,0.7988,0.7988,0.7988,0.7988,0.7988,0.7998,0.8015,0.8015,0.815,0.8347,0.8347,0.8347,0.8357,0.8431,0.8306,0.7934,0.7419,0.7428,0.7607,0.7257,0.7665,0.8375,0.815,0.0,0.0,0.0,0.0,0.0,0.0,0.0,0.0,0.0,0.0,0.0,0.0,0.0,0.0,0.0,0.0,0.0,0.0,0.0,0.0,0.0,0.0,0.0,0.0,1.2986,1.3781,1.4908,1.4816,1.4863,1.5384,1.5671,1.5784,1.5784,1.5591,1.5444,1.5444,1.493,1.4616,1.4616,0.0,0.0,0.0,0.0,1.4282,1.4469,1.3913,1.3633,1.36,1.3347,1.324,1.32,1.2998,1.2864,1.2837,1.2837,1.2683,1.2425,1.2723,1.2837,1.2757,1.1857,1.1663,1.1899,1.1866,1.167,0.0,0.0,0.0,0.0,0.0,0.0,0.0,-0.0027,0.0,0.0,0.0,0.0,0.0,0.0,0.0,0.0,0.0,0.0,0.0727,0.2374,0.2976,0.421,0.6392,0.7007,0.7424,0.7719,0.7902,0.7961,0.7988,0.7988,0.7988,0.7988,0.7988,0.8106,0.8225,0.8225,0.8306,0.8442,0.8442,0.8442,0.8442,0.8472,0.8306,0.7988,0.8048,0.8011,0.7867,0.7617,0.7866,0.8203,0.7534,0.8317,0.9446,0.8763,0.8973,0.0,0.0,0.0,0.0,0.0,0.0,0.0,0.0,0.0,0.0,0.0,0.0,0.0,0.0,0.0,0.0,0.0,0.0,0.0,1.318,1.4082,1.4834,1.5251,1.5464,1.5571,1.5732,1.5751,1.5784,1.5784,1.5731,1.5698,1.5698,1.5424,1.5231,1.5231,1.495,0.0,1.4529,1.4696,1.464,1.4175,1.4055,1.3881,1.36,0.0,0.0,1.322,1.3353,1.334,1.312,1.312,1.3086,1.3039,1.3093,1.312,1.3053,1.2392,1.2024,1.1873,1.1597,1.1623,1.1784,0.0,0.0,0.0,0.0,0.0,0.0,0.0,0.0,0.0,0.0,0.0,0.0,0.0,0.0,0.0,0.0,0.0,0.0627,0.2087,0.2412,0.3325,0.5039,0.5404,0.5674,0.5883,0.5944,0.6326,0.6983,0.6983,0.7335,0.7988,0.7988,0.8029,0.816,0.8238,0.835,0.8486,0.8564,0.8598,0.8604,0.8679,0.8577,0.8374,0.8377,0.833,0.8241,0.8092,0.8089,0.8096,0.7668,0.8189,0.8848,0.8021,0.8447,0.932,0.0,0.0,0.0,0.0,0.0,0.0,0.0,0.0,0.0,0.0,0.0,0.0,0.0,0.0,1.1042,1.1937,0.0,1.3267,1.4155,1.4796,1.5284,1.5571,1.5738,1.5784,1.5784,1.5784,1.5784,1.5784,1.5784,1.5784,1.5784,1.5558,1.5398,1.5398,1.5169,1.4963,1.4957,1.4963,1.4941,1.4743,1.464,1.4449,1.4302,1.4302,1.4148,1.3868,1.3868,1.3707,1.3387,1.3387,1.3307,1.322,1.3327,1.33,1.3193,1.3033,1.2799,1.2518,1.2371,1.2412,1.2538,0.0,0.0,0.0,0.0,0.0,0.0,0.0,0.0,0.0,0.0,0.0,0.0,0.0,0.0,0.0,0.0,0.0,0.0394,0.1352,0.169,0.2291,0.3356,0.3684,0.3908,0.4014,0.4016,0.4518,0.5627,0.5879,0.6531,0.7637,0.7889,0.8019,0.8083,0.8255,0.8408,0.8577,0.8703,0.8754,0.8767,0.892,0.8889,0.8743,0.8648,0.8594,0.8567,0.8537,0.8316,0.7995,0.8025,0.8257,0.8337,0.7521,0.8109,0.8994,0.8592,0.9394,0.0,0.0,0.0,0.0,0.0,0.0,0.0,0.0,0.0,1.1115,1.1436,1.169,1.2148,1.3267,1.366,1.4168,1.4997,1.5331,1.5565,1.5751,1.5784,1.5784,1.5784,1.5784,1.5784,1.5784,1.5784,1.5784,1.5784,1.5611,1.5478,1.5478,1.5257,1.5211,1.5391,1.5224,1.519,1.5311,1.5182,1.5062,1.5008,1.5008,1.4836,1.4596,1.4362,1.4128,1.386,1.386,1.3768,1.3567,1.376,1.372,1.3567,1.37,1.3626,1.344,1.3273,1.3247,1.3287,0.0,0.0,0.0,0.0,0.0,0.0,0.0,0.0,0.0,0.0,0.0,0.0,0.0,0.0,0.0,0.0,0.0,0.0501,0.1657,0.1901,0.2493,0.3715,0.3907,0.4007,0.4016,0.4016,0.4066,0.4218,0.5425,0.6079,0.6232,0.7437,0.818,0.8431,0.8452,0.8618,0.8834,0.8851,0.8858,0.8871,0.9072,0.9042,0.8868,0.9035,0.8998,0.8814,0.8733,0.8408,0.8012,0.8197,0.8041,0.7731,0.7702,0.7683,0.767,0.799,0.7918,0.802,0.922,1.0133,1.0841,1.1223,1.1295,1.1562,0.0,0.0,1.2703,1.3194,1.3333,1.3553,1.4213,1.4616,1.5017,1.5631,1.5758,1.5792,1.5778,1.5784,1.5784,1.5784,1.5784,1.5784,1.5784,1.5784,1.5784,1.5784,1.5751,1.5785,1.5785,1.5752,1.5631,1.5404,1.5618,1.5504,1.5062,1.5237,1.5217,1.5008,1.5008,1.4988,1.4955,1.4921,1.4894,1.4861,1.4861,1.4841,1.4814,1.4847,1.4841,1.4787,1.4516,1.4359,1.4282,1.35,1.3333,1.3513,0.0,0.0,0.0,0.0,0.0,0.0,0.0,0.0,0.0,0.0,0.0,0.0,0.0,0.0,0.0,0.0,0.0,0.0204,0.071,0.0815,0.1062,0.1584,0.1636,0.1661,0.1661,0.1679,0.2046,0.286,0.3407,0.4512,0.6169,0.6738,0.7522,0.8486,0.8574,0.8733,0.8888,0.9028,0.9113,0.9195,0.9221,0.9173,0.9052,0.8937,0.875,0.853,0.8374,0.8089,0.0,0.7756,0.7682,0.7611,0.7672,0.7604,0.7559,0.782,0.807,0.8563,1.0079,1.0926,1.1457,1.183,1.2204,1.2592,1.31,1.324,1.3434,1.3993,1.4289,1.4589,1.5132,1.5384,1.5545,0.0,1.5784,1.5784,1.5784,1.5784,1.5718,1.5598,1.5678,1.5784,1.5784,1.5784,1.5784,1.5784,1.5784,1.5784,1.5784,1.5784,1.5724,1.5651,1.5718,1.5712,1.5471,1.5585,1.5585,1.5471,1.5471,1.5378,1.5217,1.5217,1.5169,1.5008,1.5008,1.5008,1.5008,1.5008,1.5008,1.4995,1.4874,1.4669,1.4456,1.3921,1.3794,1.3881,0.0,0.0,0.0,0.0,0.0,0.0,0.0,0.0,0.0,0.0,0.0,0.0,0.0,0.0,0.0,0.0,0.0,0.0,0.0,0.0,0.0,0.0,0.0,0.0,0.0,0.0,0.0463,0.1439,0.1822,0.3094,0.5156,0.5943,0.6873,0.7961,0.8498,0.8818,0.9005,0.9166,0.9272,0.931,0.9255,0.9159,0.8994,0.8655,0.8343,0.8072,0.796,0.7672,0.7336,0.7224,0.7204,0.7244,0.7326,0.735,0.7368,0.742,0.8123,0.9114,1.0335,1.1317,1.2154,1.2659,1.3186,1.3634,1.3874,1.4053,1.4346,1.4897,1.511,1.5331,1.5752,1.5784,1.5784,1.5784,1.5784,1.5784,1.5784,1.5758,1.5631,1.5424,1.5511,1.5625,1.5705,1.5785,1.5784,1.5784,1.5784,1.5784,1.5784,1.5784,1.5784,1.5784,1.5784,1.5784,1.5784,1.5784,1.5784,1.5784,1.5784,1.5718,1.5518,1.5518,1.5398,1.5204,1.5204,1.5204,1.5204,1.5204,1.5204,1.5197,1.5162,1.495,1.4716,1.4342,1.4155,1.4088,0.0,0.0,0.0,0.0,0.0,0.0,0.0,0.0,0.0,0.0,0.0,0.0,0.0,0.0,0.0,0.0,0.0,0.0,0.0,0.0,0.0,0.0,0.0,0.0,0.0,0.0,0.0,0.0051,0.1362,0.2035,0.2174,0.5008,0.6417,0.6634,0.8053,0.8872,0.9204,0.9207,0.9214,0.9217,0.921,0.8981,0.8676,0.818,0.7875,0.7617,0.7614,0.7231,0.6725,0.6722,0.6532,0.6388,0.6637,0.6725,0.6695,0.6562,0.7603,0.8868,0.9265,1.0784,1.2565,1.3741,1.4262,1.4703,1.5511,1.5711,1.5845,1.6152,1.5999,1.5758,1.5778,1.5784,1.5784,1.5784,1.5784,1.5784,1.5784,1.5585,1.5404,1.5398,1.5202,1.5149,0.0,1.5665,1.5784,1.5784,1.5784,1.5784,1.5784,1.5784,1.5784,1.5784,1.5784,1.5784,1.5784,1.5784,1.5784,1.5784,1.5784,1.5778,1.5764,1.5764,1.5764,1.5758,1.5758,1.5758,1.5758,1.5758,1.5758,1.5724,1.5491,1.5378,1.5304,1.4723,1.4329,1.4088,0.0,0.0,0.0,0.0,0.0,0.0,0.0,0.0,0.0,0.0,0.0,0.0,0.0,0.0,0.0,0.0,0.0,0.0,0.0,0.0,0.0,0.0,0.0,0.0,0.0,0.0,0.0,0.0,0.0468,0.1153,0.2159,0.3104,0.4153,0.5172,0.5717,0.6543,0.7655,0.7576,0.8155,0.9127,0.8002,0.7457,0.7323,0.6666,0.6156,0.5866,0.0,0.6339,0.6227,0.603,0.6027,0.6125,0.6224,0.6215,0.6227,0.6071,0.7491,0.9196,0.9468,1.1488,1.3674,1.4512,1.503,1.5518,1.6012,1.6126,1.6092,1.5999,1.5591,1.5257,1.5257,1.5257,1.5257,1.5257,1.5578,1.5784,1.5784,1.5698,1.5538,1.5202,1.5197,0.0,0.0,0.0,0.0,1.5764,1.5784,1.5784,1.5784,1.5784,1.5784,1.5784,1.5784,1.5784,1.5784,1.5784,1.5391,1.4507,1.3638,1.3204,1.3253,1.4124,1.4555,1.4609,1.5439,1.5784,1.573,1.4902,1.5045,1.5724,1.4754,1.4797,1.5371,1.517,1.4917,1.4687,0.0,0.0,0.0,0.0,0.0,0.0,0.0,0.0,0.0,0.0,0.0,0.0,0.0,0.0,0.0,0.0,0.0,0.0,0.0,0.0,0.0,0.0,0.0,0.0,0.0,0.0,0.0,0.0,0.0,0.0494,0.1442,0.1963,0.2718,0.3727,0.4278,0.5128,0.6121,0.602,0.6621,0.7499,0.6345,0.5883,0.5719,0.5029,0.4752,0.0,0.5009,0.5337,0.5642,0.5488,0.5589,0.5789,0.5789,0.5864,0.5902,0.5895,0.7565,0.9456,0.9615,1.1597,1.3718,1.4131,1.4425,1.4722,1.5039,1.498,1.4849,1.4908,1.4545,1.4218,1.4172,1.4338,1.4469,1.4313,1.4798,1.5317,1.5631,1.5585,1.5424,1.515,1.519,1.5211,0.0,0.0,0.0,1.5758,1.5784,1.5784,1.5784,1.5784,1.5784,1.5784,1.5784,1.5588,1.5146,1.5099,1.4465,1.3151,1.2334,1.1896,1.1945,1.2813,1.3199,1.3247,1.4561,1.5099,1.5051,1.4214,1.4364,1.5045,1.422,1.4308,1.4912,1.5292,1.5344,1.5217,0.0,0.0,0.0,0.0,0.0,0.0,0.0,0.0,0.0,0.0,0.0,0.0,0.0,0.0,0.0,0.0,0.0,0.0,0.0,0.0,0.0,0.0,0.0,0.0,0.0,0.0,0.0,0.0,0.0,0.0,0.0043,0.1439,0.2102,0.2136,0.3603,0.4365,0.4562,0.4582,0.4604,0.4672,0.4451,0.427,0.4029,0.3479,0.3726,0.4335,0.3987,0.4374,0.509,0.5096,0.524,0.5405,0.5416,0.562,0.5857,0.5979,0.7778,0.9655,0.956,1.1129,1.2783,1.2823,1.2707,1.2648,1.2907,1.2546,1.2384,1.3128,1.297,1.2606,0.0,0.0,1.338,1.3008,1.3632,1.4449,1.5297,1.5177,1.5149,0.0,0.0,0.0,0.0,0.0,0.0,1.5804,0.0,1.5798,1.5784,1.575,1.5703,1.5683,1.5635,1.4997,1.383,1.3728,1.3054,1.1804,1.175,1.1702,1.1702,1.175,1.1804,1.1896,1.3199,1.3776,1.3776,1.3728,1.3734,1.3776,1.3776,1.383,1.404,1.5039,1.5591,1.5752,0.0,0.0,0.0,0.0,0.0,0.0,0.0,0.0,0.0,0.0,0.0,0.0,0.0,0.0,0.0,0.0,0.0,0.0,0.0,0.0,0.0,0.0,0.0,0.0,0.0,0.0,0.0,0.0,0.0,0.0,0.0,0.0367,0.0541,0.0599,0.0989,0.1792,0.2816,0.2712,0.3313,0.4238,0.3102,0.2614,0.2587,0.2664,0.2743,0.2929,0.4077,0.4663,0.4958,0.5063,0.5308,0.5549,0.5654,0.5898,0.6235,0.6454,0.7943,0.9561,0.9678,1.106,1.2526,1.2767,1.2707,1.2607,1.2663,1.2311,1.1953,1.1839,1.1182,1.0605,1.0444,0.0,0.0,1.2475,1.3949,0.0,1.5658,1.5658,0.0,1.5418,0.0,1.5638,1.5712,1.5718,0.0,0.0,1.6279,1.6059,1.5791,1.5097,1.4613,1.437,1.3397,1.2721,1.2431,1.1453,1.0823,1.0489,0.946,0.897,0.9019,1.0047,1.0485,1.0583,1.1848,1.2431,1.2334,1.1409,1.1551,1.2431,1.2431,1.3006,1.4058,1.5259,1.5718,1.5758,0.0,0.0,0.0,0.0,0.0,0.0,0.0,0.0,0.0,0.0,0.0,0.0,0.0,0.0,0.0,0.0,0.0,0.0,0.0,0.0,0.0,0.0,0.0,0.0,0.0,0.0,0.0,0.0,0.0,0.0,0.0,0.0,0.0,0.0,0.0,0.0472,0.1242,0.1134,0.1605,0.0,0.0,0.1128,0.1164,0.1679,0.2029,0.238,0.3661,0.4503,0.5022,0.5299,0.5538,0.5732,0.6006,0.6305,0.6624,0.6987,0.8318,0.9603,0.9398,1.0484,1.1531,1.1115,1.0893,1.0711,1.0477,1.0113,0.9777,0.9766,0.9269,0.8803,0.866,1.0104,1.1379,0.0,0.0,0.0,1.5671,1.5784,1.5865,0.0,1.6112,0.0,1.6213,1.5615,1.5393,0.0,1.6081,1.595,1.5187,1.4625,1.3892,1.3065,1.2285,1.1604,1.1072,0.9752,0.9118,0.9118,0.8382,0.7988,0.8038,0.8775,0.9118,0.9217,0.0,1.1072,1.1023,1.0288,1.0435,1.1116,1.1702,1.2382,1.3253,1.5099,1.5439,1.4949,0.0,0.0,0.0,0.0,0.0,0.0,0.0,0.0,0.0,0.0,0.0,0.0,0.0,0.0,0.0,0.0,0.0,0.0,0.0,0.0,0.0,0.0,0.0,0.0,0.0,0.0,0.0,0.0,0.0,0.0,0.0,0.0,0.0,0.0,0.0,0.0,0.0,0.0,0.0,0.0,0.0,0.0,0.0084,0.0,0.1647,0.2317,0.3249,0.4207,0.5117,0.5661,0.5857,0.5969,0.642,0.6783,0.7082,0.7536,0.8593,0.9513,0.8881,0.9578,1.0172,0.8982,0.8581,0.8303,0.7729,0.7333,0.7129,0.7508,0.7385,0.7219,0.7068,0.8776,1.0183,1.0157,0.0,1.3775,1.5389,1.5443,1.5644,1.659,1.6382,1.6251,1.6452,1.5164,1.4304,1.4447,1.5282,1.5294,1.4112,1.3888,1.3084,1.1419,1.1361,1.0828,0.9752,0.8577,0.7988,0.7988,0.7988,0.7988,0.7988,0.7988,0.7988,0.8088,0.0,0.0,0.9756,0.9756,0.9756,0.9899,1.1312,1.1896,1.2237,1.4854,1.5092,1.4166,0.0,0.0,0.0,0.0,0.0,0.0,0.0,0.0,0.0,0.0,0.0,0.0,0.0,0.0,0.0,0.0,0.0,0.0,0.0,0.0,0.0,0.0,0.0,0.0,0.0,0.0,0.0,0.0,0.0,0.0,0.0,0.0,0.0,0.0,0.0,0.0,0.0,0.0,0.0,0.0,0.0,0.0,0.014,0.1507,0.0,0.0,0.3912,0.4613,0.4891,0.5679,0.6152,0.6434,0.6885,0.7316,0.7699,0.7853,0.8394,0.8839,0.8733,0.8964,0.914,0.8798,0.8506,0.8184,0.7709,0.7173,0.6682,0.6391,0.6104,0.5894,0.5764,0.7004,0.8235,0.8814,1.024,1.2043,1.4256,1.355,1.3811,0.0,1.4784,1.3972,1.5178,1.3972,0.0,0.0,0.0,1.3172,1.2584,1.1776,1.0488,0.8733,0.8676,0.8577,0.8333,0.8137,0.7988,0.7988,0.7988,0.7988,0.7988,0.7988,0.7988,0.7988,0.0,0.0,0.8333,0.8333,0.8333,0.8577,1.0974,1.1896,1.2237,1.4854,1.5683,1.5486,0.0,0.0,0.0,0.0,0.0,0.0,0.0,-0.0383,0.0,0.0,0.0,0.0,0.0,0.0,0.0,0.0,0.0,0.0,0.0,0.0,0.0,0.0,0.0,0.0,0.0,0.0,0.0,0.0,0.0,0.0,0.0,0.0,0.0,0.0,0.0,0.0,0.0,0.0,0.0,0.0,0.0,0.0,0.0168,0.0,0.0,0.0,0.4316,0.4674,0.4897,0.5484,0.5986,0.6521,0.7163,0.7577,0.7858,0.8092,0.8364,0.8608,0.8689,0.8764,0.8781,0.8628,0.8309,0.7872,0.7272,0.679,0.6322,0.5789,0.5569,0.5484,0.5409,0.6563,0.7689,0.8295,0.9591,1.107,1.2791,1.2453,1.2724,1.4561,1.3756,1.3321,0.0,1.2787,0.0,0.0,0.0,0.0,1.1388,1.0057,0.8881,0.8045,0.7988,0.7988,0.7988,0.7988,0.7988,0.7988,0.7988,0.7988,0.7988,0.7988,0.7988,0.7988,0.7988,0.0,0.7988,0.7988,0.7988,0.8283,1.0872,1.1896,1.2237,1.4854,1.5391,1.48,0.0,0.0,0.0,0.0,0.0,0.0,0.0,-0.059,-0.0152,-0.0025,0.0,0.0,0.0,0.0,0.0,0.0,0.0,0.0,0.0,0.0,0.0,0.0,0.0,0.0,0.0,0.0,0.0,0.0,0.0,0.0,0.0,0.0,0.0,0.0,0.0,0.0,0.0,0.0,0.0,0.0,0.0,0.0,0.0,0.0,0.0,0.0,0.0,0.4665,0.4914,0.5213,0.5685,0.6245,0.701,0.7495,0.7807,0.8018,0.8248,0.8469,0.8621,0.8662,0.8625,0.8476,0.8099,0.7577,0.6861,0.642,0.6047,0.5508,0.5368,0.5354,0.5388,0.6298,0.721,0.7694,0.8658,0.9861,1.1311,1.1257,1.1541,1.2872,1.2646,0.0,1.2783,1.1483,0.0,0.0,0.0,0.0,1.0192,0.8834,0.8039,0.8039,0.8008,0.7988,0.7988,0.7988,0.7988,0.7988,0.7988,0.7988,0.7988,0.7988,0.7988,0.7988,0.7988,0.0,0.0,0.7988,0.7988,0.8233,1.0583,1.1653,1.2188,1.4513,1.4949,1.4316,0.0,0.0,0.0,0.0,0.0,0.0,0.0,-0.1204,-0.0612,-0.0079,0.0,0.0,0.0,0.0,0.0,0.0,0.0,0.0,0.0,0.0,0.0,0.0,0.0,0.0,0.0,0.0,0.0,0.0,0.0,0.0,0.0,0.0,0.0,0.0,0.0,0.0,0.0,0.0,0.0,0.0,0.0,0.0,0.0,0.0,0.0,0.0,0.0,0.4597,0.4758,0.5019,0.5281,0.5562,0.602,0.6841,0.7597,0.7531,0.79,0.8374,0.8465,0.8503,0.8469,0.8378,0.795,0.7458,0.6841,0.6257,0.5752,0.5463,0.525,0.5196,0.5368,0.5516,0.5797,0.6391,0.6578,0.7486,0.9852,0.9133,0.9531,1.2631,0.0,0.0,1.116,0.0,0.0,0.0,0.0,0.0,0.0,0.8436,0.8248,0.8248,0.8113,0.7988,0.7988,0.7988,0.7988,0.7988,0.7988,0.7988,0.7988,0.7988,0.7988,0.7988,0.0,0.0,0.0,0.7988,0.7988,0.8137,0.9608,1.0877,1.2091,1.3536,1.4752,1.5635,0.0,0.0,0.0,0.0,0.0,0.0,-0.1886,-0.1276,-0.0672,-0.0079,0.0,-0.0159,-0.0625,-0.0277,0.0,0.0,0.0,0.0,0.0,0.0,0.0,0.0,0.0,0.0,0.0,0.0,0.0,0.0,0.0,0.0,0.0,0.0,0.0,0.0,0.0,0.0,0.0,0.0,0.0,0.0,0.0,0.0,0.0,0.0,0.0,0.0,0.0,0.0,0.46,0.4691,0.4891,0.5094,0.5087,0.5688,0.6485,0.6966,0.74,0.7801,0.8126,0.8286,0.8319,0.817,0.759,0.6949,0.6532,0.5898,0.5342,0.5135,0.5114,0.5117,0.5209,0.533,0.5532,0.5915,0.5911,0.6381,0.7833,0.7628,0.802,0.9777,0.9189,0.0,0.0,0.0,0.0,0.0,0.0,0.0,0.0,0.8347,0.8323,0.8323,0.8119,0.7988,0.7988,0.7988,0.7988,0.7988,0.7988,0.7988,0.7988,0.7988,0.7988,0.7988,0.0,0.0,0.0,0.7988,0.7988,0.8137,0.946,1.0779,1.2042,1.3392,1.4704,1.5784,0.0,0.0,0.0,0.0,0.0,-0.276,-0.2168,-0.1543,-0.0949,-0.0338,-0.0262,-0.0471,-0.1045,-0.0759,-0.0485,-0.0344,-0.0136,0.0,0.0,0.0,0.0,0.0,0.0,0.0,0.0,0.0,0.0,0.0,0.0,0.0,0.0,0.0,0.0,0.0,0.0,0.0,0.0,0.0,0.0,0.0,0.0,0.0,0.0,0.0,0.0,0.0,0.0,0.0,0.0,0.0,0.0,0.4748,0.4559,0.4856,0.5416,0.6227,0.68,0.7261,0.7617,0.795,0.8109,0.8001,0.7333,0.6634,0.6419,0.5674,0.5032,0.505,0.5029,0.5063,0.5182,0.5287,0.5491,0.5752,0.5718,0.5898,0.6603,0.6868,0.7176,0.7789,0.0,0.0,0.0,0.0,0.0,0.0,0.0,0.0,0.0,0.8347,0.8323,0.8323,0.8119,0.7988,0.7988,0.7988,0.7988,0.7988,0.7988,0.7988,0.7988,0.7988,0.7988,0.7988,0.0,0.0,0.0,0.7988,0.8233,0.8676,0.9608,1.1019,1.2624,1.3536,1.4704,1.5784,0.0,0.0,0.0,0.0,0.0,0.0,-0.2778,-0.2182,-0.1565,-0.0979,-0.0883,-0.0933,-0.1085,-0.1509,-0.1592,-0.1118,-0.0413,0.0,0.0,0.0,0.0,0.0,0.0,0.0,0.0,0.0,0.0,0.0,0.0,0.0,0.0,0.0,0.0,0.0,0.0,0.0,0.0,0.0,0.0,0.0,0.0,0.0,0.0,0.0,0.0,0.0,0.0,0.0,0.0,0.0,0.0,0.0,0.0,0.4494,0.4621,0.5231,0.6047,0.6773,0.7024,0.7429,0.7814,0.7814,0.7251,0.6661,0.6545,0.5667,0.5003,0.533,0.5125,0.5009,0.5337,0.5392,0.5491,0.5752,0.58,0.601,0.6617,0.691,0.721,0.0,0.0,0.816,0.0,0.0,0.0,0.0,0.0,0.0,0.0,0.8347,0.8323,0.8323,0.8119,0.7988,0.7988,0.7988,0.7988,0.7988,0.7988,0.7988,0.7988,0.7988,0.7988,0.0,0.0,0.0,0.0,0.7988,0.8775,0.9998,0.9998,1.1599,1.3878,1.3872,1.4704,1.5784,0.0,0.0,0.0,0.0,0.0,0.0,0.0,-0.2544,-0.2192,-0.1588,-0.1524,-0.1735,-0.228,-0.2017,-0.178,-0.171,-0.1032,0.0,0.0,0.0,0.0,0.0,0.0,0.0,0.0,0.0,0.0,0.0,0.0,0.0,0.0,0.0,0.0,0.0,0.0,0.0,0.0,0.0,0.0,0.0,0.0,0.0,0.0,0.0,0.0,0.0,0.0,0.0,0.0,0.0,0.0,0.0,0.0,0.0,0.0,0.472,0.5272,0.5871,0.6236,0.6563,0.6725,0.662,0.6186,0.5781,0.5589,0.5064,0.4662,0.4757,0.4784,0.4823,0.5023,0.5138,0.5335,0.5735,0.58,0.5942,0.6381,0.0,0.0,0.7553,0.8225,0.0,0.0,0.0,0.0,0.0,0.0,0.0,0.0,0.8194,0.816,0.832,0.8119,0.7988,0.7988,0.7988,0.7988,0.7988,0.7988,0.7988,0.7988,0.7988,0.0,0.0,0.0,0.0,0.0,0.897,0.9608,1.0096,1.0974,1.2377,1.3926,1.3926,1.4704,1.5784,0.0,0.0,0.0,0.0,0.0,0.0,0.0,-0.2656,-0.25,-0.219,-0.2131,-0.233,-0.2839,-0.2446,-0.2098,-0.2015,-0.1327,0.0,0.0,0.0,0.0,0.0,0.0,0.0,0.0,0.0,0.0,0.0,0.0,0.0,0.0,0.0,0.0,0.0,0.0,0.0,0.0,0.0,0.0,0.0,0.0,0.0,0.3597,0.0,0.0,0.0,0.0,0.0,0.0,0.0,0.0,0.0,0.0,0.0,0.0,0.0,0.4757,0.5163,0.564,0.5969,0.6149,0.6016,0.5691,0.5368,0.524,0.4856,0.4525,0.4641,0.4663,0.4755,0.4931,0.5039,0.5228,0.5657,0.5766,0.5908,0.0,0.0,0.0,0.7617,0.0,0.0,0.0,0.0,0.0,0.0,0.0,0.0,0.0,0.0,0.8032,0.818,0.8089,0.7988,0.7988,0.7988,0.7988,0.7988,0.7988,0.7988,0.7988,0.7988,0.0,0.0,0.0,0.0,0.0,0.946,1.0293,1.0828,1.2134,1.3445,1.4609,1.4609,1.5099,1.5784,0.0,0.0,0.0,0.0,0.0,0.0,0.0,-0.2586,-0.2563,-0.2715,-0.2706,-0.2727,-0.2866,-0.2738,-0.2445,-0.1955,0.0,0.0,0.0,0.0,0.0,0.0,0.0,0.0,0.0,0.0,0.0,0.0,0.0,0.0,0.0,0.0,0.0,0.0,0.0,0.0352,0.0,0.0,0.0,0.0,0.0,0.4197,0.0,0.0,0.0,0.0,0.0,0.0,0.0,0.0,0.0,0.0,0.0,0.0,0.0,0.0,0.0,0.0,0.0,0.5599,0.5882,0.5882,0.5606,0.533,0.533,0.4894,0.0,0.4826,0.4772,0.4769,0.5042,0.509,0.5194,0.5566,0.5722,0.0,0.0,0.6681,0.0,0.0,0.0,0.0,0.0,0.0,0.0,0.0,0.0,0.0,0.0,0.0,0.7988,0.7988,0.7988,0.7988,0.7988,0.7988,0.7988,0.7988,0.7988,0.7988,0.7988,0.7988,0.0,0.0,0.0,0.0,0.0,0.9558,1.0828,1.2042,1.3494,1.4752,1.5784,1.5784,1.5784,1.5784,0.0,0.0,0.0,0.0,0.0,0.0,0.0,0.0,0.0,0.0,-0.2805,-0.2593,-0.2725,-0.231,-0.177,0.0,0.0,0.0,0.0,0.0,0.0,0.0,0.0,0.0,0.0,0.0,0.0,0.0,0.0,0.0,0.0,0.0,0.0,0.0,0.0,0.0652,0.0,0.0,0.0,0.0,0.4082,0.4197,0.0,0.0,0.0,0.0,0.4271,0.4271,0.0,0.0,0.0,0.0,0.0,0.0,0.0,0.0,0.4491,0.4522,0.4665,0.0,0.4859,0.4859,0.4781,0.4702,0.0,0.4593,0.4511,0.4583,0.4569,0.4672,0.5022,0.5012,0.5147,0.5787,0.0,0.5945,0.6405,0.0,0.0,0.0,0.0,0.0,0.0,0.0,0.0,0.0,0.0,0.0,0.0,0.0,0.7988,0.7988,0.7988,0.7988,0.7988,0.7988,0.7988,0.7988,0.7988,0.7988,0.7988,0.7988,0.0,0.0,0.0,0.0,0.8184,1.0485,1.1604,1.2139,1.4465,1.5534,1.5784,1.5784,1.5784,1.5784,0.0,0.0,0.0,0.0,0.0,0.0,0.0,0.0,0.0,0.0,0.0,-0.2197,-0.2268,-0.1753,0.0,0.0,0.0,0.0,0.0,0.0,0.0,0.0,0.0,0.0,0.0,0.0,0.0,0.0,0.0,0.0,0.0,0.0,0.0,0.0026,0.0576,0.1426,0.0,0.0,0.0,0.0,0.4133,0.0,0.0,0.0,0.0,0.0,0.4117,0.4115,0.0,0.4314,0.4365,0.4375,0.0,0.0,0.0,0.0,0.4491,0.4491,0.4491,0.4491,0.4491,0.4491,0.4491,0.4491,0.4491,0.4491,0.4491,0.4491,0.4491,0.4607,0.4931,0.4938,0.5086,0.0,0.5871,0.0,0.0,0.0,0.0,0.0,0.0,0.0,0.0,0.0,0.0,0.0,0.0,0.0,0.0,0.0,0.7988,0.7988,0.7988,0.7988,0.7988,0.7988,0.7988,0.7988,0.7988,0.7988,0.7988,0.7988,0.0,0.0,0.0,0.0,0.8187,1.0828,1.1896,1.2139,1.4758,1.5784,1.5784,1.5784,1.5784,1.5784,0.0,0.0,0.0,0.0,0.0,0.0,0.0,0.0,0.0,0.0,0.0,0.0,0.0,0.0,0.0,0.0,0.0,0.0,0.0,0.0,0.0,0.0,0.0,0.0,0.0,0.0,0.0,0.0,0.0,0.0,0.0,0.0,0.0056,0.0193,0.1319,0.2239,0.0,0.0,0.0,0.0,0.4143,0.0,0.0,0.0,0.0,0.0,0.0,0.0,0.0,0.4136,0.4177,0.4244,0.4392,0.0,0.0,0.0,0.0,0.0,0.445,0.4474,0.4491,0.4491,0.4491,0.4491,0.4491,0.4491,0.4491,0.4491,0.4508,0.4617,0.4894,0.4969,0.0,0.0,0.0,0.0,0.7068,0.7343,0.0,0.0,0.0,0.0,0.0,0.0,0.0,0.0,0.0,0.0,0.0,0.0,0.0,0.7988,0.7988,0.7988,0.7988,0.7988,0.7988,0.7988,0.7988,0.7988,0.7988,0.7988,0.0,0.0,0.0,0.0,0.8187,1.0828,1.1896,1.2139,1.4758,1.5784,1.5784,1.5784,1.5784,1.5784,0.0,0.0,0.0,0.0,0.0,0.0,0.0,0.0,0.0,0.0,0.0,0.0,0.0,0.0,0.0,0.0,0.0,0.0,0.0,0.0,0.0,0.0,0.0,0.0,0.0,0.0,0.0,0.0,0.0,0.0,0.0,0.0,0.0272,0.0794,0.1619,0.2313,0.2945,0.366,0.0,0.4164,0.4187,0.0,0.0,0.0,0.0,0.0,0.0,0.0,0.0,0.3981,0.4115,0.42,0.4247,0.0,0.0,0.0,0.0,0.0,0.422,0.4368,0.4491,0.4491,0.4491,0.4491,0.4491,0.4491,0.4491,0.4491,0.4593,0.4748,0.5012,0.5206,0.5474,0.0,0.0,0.0,0.0,0.0,0.0,0.0,0.0,0.0,0.0,0.0,0.0,0.0,0.0,0.0,0.0,0.0,0.0,0.7988,0.7988,0.7988,0.7988,0.7988,0.7988,0.7988,0.7988,0.7988,0.7988,0.7988,0.7988,0.0,0.0,0.7988,0.8187,1.0828,1.1896,1.2139,1.4758,1.5784,1.5784,1.5784,1.5784,1.5784,0.0,0.0,0.0,0.0,0.0,0.0,0.0,0.0,0.0,0.0,0.0,0.0,0.0,0.0,0.0,0.0,0.0,0.0,0.0,0.0,0.0,0.0,0.0,0.0,0.0,0.0,0.0,0.0,0.0,0.0,0.0,0.0,0.0315,0.0928,0.1586,0.2267,0.2942,0.36,0.396,0.4099,0.0,0.0,0.0,0.0,0.0,0.0,0.0,0.0,0.0,0.0,0.3987,0.4004,0.4143,0.0,0.0,0.0,0.0,0.0,0.4324,0.444,0.4508,0.4593,0.4679,0.4687,0.4634,0.465,0.4707,0.4707,0.4765,0.4904,0.5199,0.0,0.5711,0.6364,0.0,0.0,0.0,0.0,0.0,0.0,0.0,0.0,0.0,0.0,0.0,0.0,0.0,0.0,0.0,0.0,0.0,0.0,0.7837,0.783,0.7988,0.7907,0.7907,0.7988,0.7988,0.7988,0.7988,0.7988,0.7988,0.7988,0.0,0.7988,0.8187,1.0828,1.1896,1.2139,1.4758,1.5784,1.5784,1.5784,1.5784,1.5784,0.0,0.0,0.0,0.0,0.0,0.0,0.0,0.0,0.0,0.0,0.0,0.0,0.0,0.0,0.0,0.0,0.0,0.0,0.0,0.0,0.0,0.0,0.0,0.0,0.0,0.0,0.0,0.0,0.0,0.0,0.0,0.0,0.033,0.0928,0.1378,0.2053,0.2874,0.3341,0.3707,0.3944,0.0,0.0,0.0,0.0,0.0,0.0,0.0,0.0,0.0,0.0,0.0,0.0,0.0,0.0,0.0,0.416,0.417,0.42,0.4372,0.4464,0.4518,0.4638,0.4724,0.4819,0.4843,0.4911,0.4968,0.5073,0.5125,0.5186,0.5412,0.5566,0.0,0.6751,0.0,0.0,0.0,0.0,0.0,0.0,0.0,0.0,0.0,0.0,0.0,0.0,0.0,0.0,0.0,0.0,0.0,0.0,0.7716,0.7709,0.7884,0.7821,0.7855,0.7988,0.7988,0.7988,0.7988,0.7988,0.7988,0.7988,0.7988,0.7988,0.8187,1.0828,1.1896,1.2139,1.4758,1.5784,1.5784,1.5784,1.5784,1.5784,0.0,0.0,0.0,0.0,0.0,0.0,0.0,0.0,0.0,0.0,0.0,0.0,0.0,0.0,0.0,0.0,0.0,0.0,0.0,0.0,0.0,0.0,0.0,0.0,0.0,0.0,0.0,0.0,0.0,0.0,0.0,0.0,0.0323,0.0904,0.0952,0.1627,0.2707,0.2751,0.3186,0.3809,0.3809,0.0,0.0,0.0,0.0,0.0,0.0,0.0,0.0,0.0,0.0,0.0,0.0,0.0,0.418,0.419,0.4122,0.4045,0.4196,0.4362,0.4494,0.4505,0.4515,0.4668,0.5221,0.5209,0.5201,0.565,0.5739,0.5705,0.0,0.5806,0.6165,0.6785,0.0,0.0,0.0,0.0,0.0,0.0,0.0,0.0,0.0,0.0,0.0,0.0,0.0,0.0,0.0,0.0,0.0,0.0,0.0,0.7611,0.7631,0.7621,0.7756,0.7988,0.7988,0.7988,0.7988,0.7988,0.7988,0.7988,0.7988,0.7988,0.8187,1.0828,1.1896,1.2139,1.4758,1.5784,1.5784,1.5784,1.5784,1.5784,0.0,0.0,0.0,0.0,0.0,0.0,0.0,0.0,0.0,0.0,0.0,0.0,0.0,0.0,0.0,0.0,0.0,0.0,0.0,0.0,0.0,0.0,0.0,0.0,0.0,0.0,0.0,0.0,0.0,0.0,0.0,0.0,0.012,0.0367,0.0733,0.1158,0.1607,0.1984,0.2518,0.3123,0.3123,0.3123,0.0,0.0,0.0,0.0,0.0,0.0,0.0,0.0,0.2535,0.2908,0.3223,0.3543,0.387,0.4028,0.4041,0.4048,0.4314,0.449,0.4634,0.4634,0.4634,0.4767,0.5279,0.5457,0.5596,0.5766,0.6023,0.6176,0.0,0.0,0.665,0.0,0.0,0.0,0.0,0.0,0.0,0.0,0.0,0.0,0.0,0.0,0.0,0.0,0.0,0.0,0.0,0.0,0.0,0.0,0.0,0.7404,0.7597,0.7506,0.756,0.7767,0.7855,0.7896,0.7899,0.7944,0.7988,0.7988,0.7988,0.7988,0.8187,1.0828,1.1896,1.2139,1.4758,1.5784,1.5784,1.5784,1.5784,1.5784,0.0,0.0,0.0,0.0,0.0,0.0,0.0,0.0,0.0,0.0,0.0,0.0,0.0,0.0,0.0,0.0,0.0,0.0,0.0,0.0,0.0,0.0,-0.0188,-0.0289,-0.0273,-0.0441,-0.035,0.0,0.0,0.0,0.0,0.0,0.0,0.0022,0.0426,0.0716,0.0918,0.134,0.1873,0.2406,0.2406,0.2539,0.0,0.0,0.0,0.0,0.0,0.0,0.0,0.0,0.2486,0.2864,0.3161,0.3546,0.3921,0.41,0.4158,0.4202,0.4436,0.4566,0.4648,0.4648,0.4657,0.4823,0.5354,0.5623,0.5881,0.6166,0.6356,0.648,0.6385,0.0,0.0,0.0,0.0,0.0,0.0,0.0,0.0,0.0,0.0,0.0,0.0,0.0,0.0,0.0,0.0,0.0,0.0,0.0,0.0,0.0,0.0,0.0,0.7451,0.735,0.735,0.7458,0.7604,0.7723,0.7814,0.787,0.7944,0.7988,0.7988,0.8237,0.8825,1.1019,1.2382,1.3301,1.5099,1.5784,1.5784,1.5784,1.5784,1.5784,0.0,0.0,0.0,0.0,0.0,0.0,0.0,0.0,0.0,0.0,0.0,0.0,0.0,0.0,0.0,0.0,0.0,0.0,0.0,0.0,0.0,0.0,-0.0573,-0.0895,-0.0902,-0.1367,-0.1069,0.0,0.0,0.0,0.0,0.0,0.0,0.0,0.0,0.0337,0.0895,0.0895,0.1228,0.1784,0.1784,0.2162,0.2696,0.0,0.0,0.0,0.0,0.0,0.0,0.0,0.2848,0.3191,0.3789,0.4219,0.4484,0.4487,0.4487,0.4487,0.4487,0.4487,0.4491,0.4487,0.4607,0.485,0.545,0.5698,0.6054,0.691,0.678,0.6511,0.6511,0.6399,0.0,0.0,0.0,0.0,0.0,0.0,0.0,0.0,0.0,0.0,0.0,0.0,0.0,0.0,0.0,0.0,0.0,0.0,0.0,0.0,0.0,0.0,0.7092,0.7092,0.7095,0.7095,0.7295,0.7522,0.7807,0.7811,0.7892,0.7988,0.7988,0.8772,1.0096,1.1361,1.3445,1.5784,1.5784,1.5784,1.5784,1.5784,1.5784,1.5784,0.0,0.0,0.0,0.0,0.0,0.0,0.0,0.0,0.0,0.0,0.0,0.0,0.0,0.0,0.0,0.0,0.0,0.0,0.0,0.0,0.0,0.0,-0.0487,-0.0769,-0.0769,-0.1169,-0.1239,-0.0913,-0.063,-0.0502,-0.048,-0.0149,0.0,0.0,0.0,0.0088,0.0258,0.0266,0.0605,0.1163,0.1163,0.1784,0.2696,0.0,0.0,0.0,0.0,0.0,0.0,0.0,0.0,0.0,0.2265,0.2516,0.2723,0.3347,0.3451,0.3496,0.4121,0.4385,0.4464,0.4338,0.4628,0.5074,0.5395,0.5579,0.5878,0.6668,0.6559,0.6395,0.6494,0.0,0.0,0.0,0.0,0.0,0.0,0.0,0.0,0.0,0.0,0.0,0.0,0.0,0.0,0.0,0.0,0.0,0.0,0.0,0.0,0.0,0.0,0.0,0.6831,0.6896,0.695,0.695,0.7095,0.7312,0.7509,0.7716,0.7834,0.7879,0.7879,0.807,0.8646,1.0847,1.3381,1.5784,1.5784,1.5784,1.5784,1.5784,1.5784,1.5784,0.0,0.0,0.0,0.0,0.0,0.0,0.0,0.0,0.0,0.0,-0.1258,-0.137,0.0,0.0,0.0,0.0,0.0,0.0,0.0,0.0,0.0,0.0,-0.0505,-0.0949,-0.1288,-0.1708,-0.1814,-0.1582,-0.0993,-0.0604,-0.0409,-0.0141,0.0,0.0,0.0,0.0,0.0,0.0,0.0213,0.0532,0.0532,0.1125,0.1993,0.0,0.0,0.0,0.0,0.0,0.0,0.0,0.0,0.0,0.1776,0.1915,0.2112,0.2866,0.3072,0.322,0.3984,0.4355,0.4484,0.4402,0.4709,0.5052,0.5237,0.5664,0.0,0.0,0.6552,0.6429,0.6536,0.0,0.0,0.0,0.0,0.0,0.0,0.0,0.0,0.0,0.0,0.0,0.0,0.0,0.0,0.0,0.0,0.0,0.0,0.0,0.0,0.0,0.0,0.0,0.6702,0.6793,0.6837,0.6841,0.6943,0.7105,0.7204,0.7502,0.7672,0.7726,0.824,0.8756,0.9368,1.1433,1.3531,1.5484,1.5484,1.5558,1.5658,1.5658,1.5732,1.5784,0.0,0.0,-0.2089,-0.1717,0.0,0.0,0.0,0.0,0.0,0.0,-0.1414,-0.1299,0.0,0.0,0.0,0.0,0.0,0.0,0.0,0.0,0.0,0.0,-0.0559,-0.1295,-0.2157,-0.2597,-0.2522,-0.1931,-0.1147,-0.052,-0.0058,-0.0019,0.0,0.0,0.0,0.0,0.0,0.0,0.0,0.0,0.0,0.0353,0.0903,0.0902,0.0,0.0,0.0,0.0,0.0,0.0,0.0,0.0,0.1891,0.1947,0.2137,0.2804,0.3069,0.3305,0.3984,0.4324,0.4487,0.4613,0.4796,0.4951,0.512,0.5932,0.6654,0.6738,0.0,0.6478,0.663,0.0,0.0,0.0,0.0,0.0,0.0,0.0,0.0,0.0,0.0,0.0,0.0,0.0,0.0,0.0,0.0,0.0,0.0,0.0,0.0,0.0,0.0,0.0,0.6658,0.6671,0.6678,0.0,0.6834,0.6866,0.6876,0.7231,0.7448,0.7624,0.8811,1.0048,1.139,1.2535,1.3787,1.5008,1.5008,1.5137,1.5398,1.5398,1.5578,1.5784,0.0,0.0,-0.2171,-0.2092,0.0,0.0,0.0,0.0,0.0,0.0,0.0,0.0,0.0,0.0,0.0,0.0,0.0,0.0,0.0,0.0,0.0,0.0,-0.0479,-0.1144,-0.203,-0.2135,-0.195,-0.1457,-0.1271,-0.0965,-0.0537,-0.0165,0.0,0.0,0.0,0.0,0.0,0.0,0.0,0.0,0.0,0.0353,0.09,0.0909,0.0975,0.0,0.0,0.0,0.0,0.0,0.0,0.0,0.1145,0.0835,0.0703,0.1892,0.2175,0.2397,0.3683,0.4068,0.4151,0.4277,0.4688,0.5154,0.5569,0.5833,0.5973,0.5895,0.601,0.6173,0.0,0.0,0.0,0.0,0.0,0.0,0.0,0.0,0.0,0.0,0.0,0.0,0.0,0.0,0.0,0.0,0.0,0.0,0.0,0.0,0.0,0.0,0.0,0.6361,0.6395,0.6504,0.6562,0.0,0.6675,0.6749,0.6763,0.718,0.7436,0.7467,0.7735,0.9084,1.1149,1.1418,1.2933,1.5008,1.5008,1.5137,1.5398,1.5398,1.5578,1.5784,0.0,0.0,0.0,0.0,0.0,0.0,0.0,0.0,0.0,0.0,0.0,0.0,0.0,-0.2028,0.0,0.0,-0.0604,-0.0235,-0.0017,0.0,-0.0101,-0.0319,-0.0755,-0.1208,-0.1659,-0.1878,-0.1778,-0.1305,-0.1305,-0.0987,-0.0351,-0.0123,0.0,0.0,0.0,0.0,0.0,0.0,0.0,0.0,0.0,0.0183,0.0475,0.0468,0.0643,0.0854,0.0563,0.0,0.0,0.0,0.0,0.0,0.0,0.0,0.0191,0.1186,0.1474,0.1694,0.2747,0.3086,0.326,0.3796,0.421,0.4659,0.5309,0.5426,0.5396,0.5501,0.5715,0.0,0.0,0.0,0.0,0.0,0.0,0.0,0.0,0.0,0.0,0.0,0.0,0.0,0.0,0.0,0.0,0.0,0.0,0.0,0.0,0.0,0.0,0.0,0.6149,0.6186,0.63,0.6375,0.6412,0.6412,0.6522,0.663,0.6709,0.6943,0.7435,0.8025,0.7857,0.9248,1.1647,1.1532,1.2683,1.4586,1.4586,1.4723,1.4977,1.4977,1.5164,1.5418,0.0,0.0,0.0,0.0,0.0,0.0,0.0,0.0,0.0,0.0,0.0,0.0,0.0,-0.1978,-0.1594,0.0,0.0,0.0,-0.0034,-0.0084,-0.0303,-0.0689,-0.1089,-0.1305,-0.1305,-0.1676,-0.1692,-0.1305,-0.1305,-0.0887,-0.0118,-0.0118,-0.0084,0.0,0.0,0.0,0.0,0.0,0.0,0.0,0.0,0.0,0.0,0.0,0.0315,0.0681,0.0184,0.0385,0.0798,0.0202,0.0,0.0,0.0,0.0,0.0247,0.0761,0.1055,0.1343,0.1849,0.2096,0.2429,0.3372,0.3677,0.3997,0.4866,0.4972,0.4989,0.5266,0.0,0.0,0.0,0.0,0.0,0.0,0.0,0.0,0.0,0.0,0.0,0.0,0.0,0.0,0.0,0.0,0.0,0.0,0.0,0.0,0.0,0.0,0.5861,0.5949,0.5952,0.6051,0.6218,0.6221,0.6221,0.6221,0.634,0.6424,0.6546,0.6573,0.7225,0.8341,0.823,0.9617,1.188,1.1845,1.2686,1.3935,1.3935,1.4142,1.4442,1.4442,1.4663,1.5008,0.0,0.0,0.0,0.0,0.0,0.0,0.0,0.0,0.0,0.0,-0.2696,-0.2679,-0.2613,-0.1876,-0.1355,-0.1221,-0.0536,-0.0067,0.0,0.0,0.0,-0.0689,-0.1089,-0.1305,-0.1305,-0.1355,-0.1355,-0.1305,-0.1305,-0.1056,-0.0605,-0.0605,-0.0387,0.0,0.0,0.0,0.0,0.0,0.0,0.0,0.0,0.0,0.0,0.0,0.0053,0.0111,0.0019,0.0387,0.0809,0.0199,0.0337,0.0,0.0,0.0,0.0806,0.0873,0.1279,0.1747,0.1951,0.2108,0.2423,0.3369,0.3607,0.3849,0.0,0.0,0.4897,0.0,0.0,0.0,0.0,0.0,0.0,0.0,0.0,0.0,0.0,0.0,0.0,0.0,0.0,0.0,0.0,0.0,0.0,0.0,0.0,0.0,0.0,0.58,0.581,0.583,0.583,0.584,0.5864,0.5864,0.5864,0.5864,0.5881,0.5901,0.5925,0.6057,0.6421,0.7017,0.7851,0.8964,1.031,1.118,1.2255,1.3327,1.3327,1.3661,1.4142,1.4142,1.4489,1.5008,0.0,0.0,0.0,0.0,0.0,0.0,0.0,0.0,0.0,0.0,0.0,-0.2596,-0.2331,-0.1945,-0.1492,-0.1007,-0.0621,-0.0286,-0.0017,-0.0437,-0.0807,-0.1023,-0.1458,-0.1692,-0.1692,-0.1692,-0.1557,-0.1305,-0.1557,-0.1475,-0.1039,-0.1039,-0.067,0.0,0.0,0.0,0.0,0.0,0.0,0.0,0.0,0.0,0.0,0.0,0.0,0.0,0.0,0.0168,0.035,0.0089,0.018,0.0359,0.009,0.0,0.0,0.0,0.1318,0.1734,0.1457,0.118,0.1163,0.2006,0.2513,0.3048,0.3978,0.4429,0.4711,0.0,0.0,0.0,0.0,0.0,0.0,0.0,0.0,0.0,0.0,0.0,0.0,0.0,0.0,0.0,0.0,0.0,0.0,0.0,0.0,0.0,0.559,0.559,0.5593,0.5681,0.5684,0.5722,0.58,0.58,0.58,0.58,0.58,0.58,0.5803,0.5871,0.6437,0.747,0.8413,0.9493,1.0717,1.1784,1.2505,1.2927,1.2534,1.2503,1.2776,1.2927,1.314,1.3501,0.0,0.0,0.0,0.0,0.0,0.0,0.0,0.0,0.0,0.0,0.0,-0.2513,-0.2047,0.0,0.0,0.0,-0.0588,-0.037,-0.0017,-0.0537,-0.099,-0.1288,-0.1859,-0.2131,-0.1997,-0.1997,-0.1828,-0.1473,-0.1828,-0.1797,-0.1425,-0.1464,-0.1047,-0.0279,-0.0083,0.0,0.0,0.0,0.0,0.0,0.0,0.0,0.0,0.0,0.0,0.0,0.0,0.0,0.0,0.0,0.0,0.0,0.0,0.0511,0.0,0.0,0.0,0.155,0.1049,0.055,0.0323,0.0944,0.1522,0.2186,0.0,0.0,0.4328,0.0,0.0,0.0,0.0,0.0,0.0,0.0,0.0,0.0,0.0,0.0,0.0,0.0,0.0,0.0,0.0,0.0,0.0,0.0,0.0,0.0,0.5279,0.5317,0.5355,0.5471,0.5511,0.5562,0.563,0.5596,0.5576,0.5576,0.5613,0.563,0.5633,0.5711,0.6335,0.7455,0.8393,0.9364,1.0341,1.1406,1.1872,1.1846,1.1306,1.1146,1.1272,1.181,1.2028,1.2295,0.0,0.0,0.0,0.0,0.0,0.0,0.0,0.0,0.0,0.0,0.0,-0.2513,-0.2047,-0.1609,-0.1173,-0.0739,-0.0286,-0.0034,0.0,-0.0803,-0.1271,-0.1305,-0.2175,0.0,-0.2014,-0.1997,-0.1981,-0.1964,-0.1981,-0.1925,-0.1777,-0.1898,-0.1627,-0.1017,-0.0311,0.0,0.0,0.0,0.0,0.0,0.0,0.0,0.0,0.0,0.0,0.0,0.0,0.0,0.0,0.0,0.0,0.0,0.0,0.0801,0.1625,0.0,0.0,0.0,0.098,0.0777,0.0727,0.1037,0.1128,0.1499,0.0,0.0,0.0,0.0,0.0,0.0,0.0,0.0,0.0,0.0,0.0,0.0,0.0,0.0,0.0,0.0,0.0,0.0,0.0,0.0,0.0,0.0,0.0,0.0,0.4911,0.5039,0.5113,0.512,0.5298,0.5308,0.5137,0.5002,0.4935,0.4935,0.5069,0.5133,0.5143,0.5467,0.5644,0.5804,0.6922,0.7528,0.7779,0.8846,0.9379,0.9468,0.944,0.9573,0.9946,1.1261,1.188,1.2295,0.0,0.0,0.0,0.0,0.0,0.0,0.0,0.0,0.0,0.0,0.0,0.0,0.0,-0.1641,-0.1139,-0.0739,-0.0269,0.0,0.0,-0.0821,-0.1305,-0.1305,-0.2192,-0.2613,-0.2447,-0.2447,-0.2297,-0.1997,-0.2297,-0.2274,-0.192,-0.1977,-0.1892,-0.1643,-0.0815,-0.0454,-0.0437,-0.0134,0.0,0.0,0.0,0.0,0.0,0.0,0.0,0.0,0.0,0.0,0.0,0.0,0.0,0.0,0.0,0.0,0.0,0.2127,0.2066,0.1861,0.1754,0.1425,0.1045,0.0876,0.1197,0.1698,0.2257,0.2814,0.0,0.0,0.0,0.0,0.0,0.0,0.0,0.0,0.0,0.0,0.0,0.0,0.0,0.0,0.0,0.0,0.0,0.0,0.0,0.0,0.0,0.0,0.4887,0.4935,0.4965,0.4965,0.5047,0.505,0.4965,0.4914,0.4887,0.4887,0.4938,0.5012,0.5103,0.5214,0.5348,0.5481,0.5898,0.6522,0.7326,0.8575,0.904,0.8936,0.8524,0.8392,0.8556,0.9232,1.0043,1.1053,0.0,0.0,0.0,0.0,0.0,-0.3118,-0.3168,-0.3054,-0.2993,-0.3087,0.0,0.0,0.0,0.0,-0.1457,-0.0829,-0.0441,-0.0235,-0.0235,-0.0905,-0.1371,-0.1523,-0.2278,-0.2696,-0.2696,-0.2696,-0.2547,-0.2231,-0.2547,-0.2521,-0.2169,-0.2211,-0.2208,-0.2136,-0.1447,-0.1041,-0.0873,-0.042,-0.0235,-0.0219,-0.0067,0.0,0.0,0.0,0.0,0.0,0.0,0.0,0.0,0.0,0.0,0.0,0.0,0.0,0.0,0.2396,0.2416,0.2108,0.2031,0.1771,0.144,0.1007,0.1325,0.1801,0.21,0.0,0.0,0.0,0.0,0.0,0.0,0.0,0.0,0.0,0.0,0.0,0.0,0.0,0.0,0.0,0.0,0.0,0.0,0.0,0.0,0.0,0.0,0.0,0.4765,0.4813,0.4867,0.4887,0.487,0.4843,0.4843,0.4792,0.4765,0.4765,0.4816,0.4891,0.4955,0.5005,0.5142,0.5284,0.5284,0.5816,0.6734,0.764,0.7983,0.7928,0.7465,0.7288,0.7423,0.8339,0.9328,1.0435,0.0,-0.3808,-0.3363,-0.3576,-0.3334,-0.3165,-0.3293,-0.3185,-0.3111,-0.3114,0.0,0.0,0.0,0.0,0.0,-0.0999,-0.0796,-0.0723,-0.0723,-0.1089,-0.1523,-0.1981,-0.2447,-0.2696,-0.2696,-0.2696,-0.2696,-0.2696,-0.2696,-0.2637,-0.2508,-0.2644,-0.2634,-0.2496,-0.2158,-0.1761,-0.1321,-0.0889,-0.0706,-0.0655,-0.0202,-0.0017,0.0,0.0,0.0,0.0,0.0,0.0,0.0,0.0,0.0,0.0,0.0,0.0,0.0,0.0,0.1871,0.1919,0.0,0.0,0.0,0.143,0.1469,0.0,0.236,0.0,0.0,0.0,0.0,0.0,0.0,0.0,0.0,0.0,0.0,0.0,0.0,0.0,0.0,0.0,0.0,0.0,0.0,0.0,0.0,0.0,0.0,0.4491,0.4491,0.4631,0.4752,0.487,0.4762,0.4684,0.4684,0.4563,0.4491,0.4491,0.4641,0.4687,0.4697,0.4847,0.4958,0.5093,0.5096,0.5349,0.5789,0.5793,0.5976,0.6293,0.6331,0.6335,0.6623,0.8877,0.992,1.0557,-0.3818,-0.3654,-0.3531,-0.3593,-0.3532,-0.3466,-0.351,-0.3406,-0.3348,0.0,0.0,0.0,-0.286,-0.2417,-0.1882,-0.1251,-0.1149,-0.1139,-0.1139,-0.1559,-0.1861,-0.1997,-0.2447,-0.2696,-0.2696,-0.2696,-0.2696,-0.2696,-0.2696,-0.2675,-0.2651,-0.2679,-0.2675,-0.2634,-0.2547,-0.243,-0.2258,-0.1473,-0.0973,-0.0689,-0.0555,-0.0305,0.0,0.0,0.0,0.0,0.0,0.0,0.0,0.0,0.0,0.0067,0.0,0.0,0.0806,0.0,0.0,0.1546,0.1812,0.0,0.0,0.0,0.0,0.0,0.2425,0.2713,0.0,0.0,0.0,0.0,0.0,0.0,0.0,0.0,0.0,0.0,0.0,0.0,0.0,0.0,0.0,0.0,0.0,0.0,0.0,0.0,0.4491,0.4491,0.4491,0.4532,0.4573,0.4614,0.4576,0.4552,0.4552,0.4511,0.4491,0.4491,0.4532,0.461,0.4694,0.4735,0.4836,0.4951,0.5056,0.5264,0.5525,0.5603,0.5823,0.6167,0.6873,0.7249,0.7561,0.8909,1.0222,1.1387,-0.3943,-0.3751,-0.3604,-0.3604,-0.3604,-0.3604,-0.3604,-0.3525,-0.3523,0.0,0.0,0.0,-0.3195,-0.2645,-0.213,-0.1709,-0.1627,-0.1592,-0.1592,-0.2026,-0.2374,-0.254,-0.299,-0.3155,-0.2957,-0.2957,-0.2874,-0.2696,-0.2696,-0.2696,-0.2696,-0.2696,-0.2696,-0.2696,-0.2696,-0.2696,-0.2663,-0.2109,-0.1523,-0.094,-0.0773,0.0,0.0,0.0,0.0,0.0,0.0,0.0,0.0,0.0,0.0,0.0,0.0,0.0,0.0,0.0,0.0,0.1105,0.1385,0.1728,0.2007,0.207,0.0,0.0,0.2775,0.2911,0.3037,0.0,0.0,0.0,0.0,0.0,0.0,0.0,0.0,0.0,0.0,0.0,0.0,0.0,0.0,0.0,0.0,0.0,0.0,0.0,0.4457,0.4491,0.4491,0.4491,0.4491,0.4491,0.4491,0.4491,0.4491,0.4491,0.4491,0.4491,0.4491,0.4539,0.4624,0.4624,0.4677,0.4826,0.4911,0.5067,0.5274,0.5362,0.5818,0.6514,0.709,0.7712,0.8328,0.9373,1.0577,1.1724,0.0,-0.3924,-0.3604,-0.3604,-0.3604,-0.3604,-0.3604,-0.3604,-0.3604,0.0,-0.3587,-0.349,-0.3279,-0.2944,-0.2597,-0.2291,-0.2153,-0.2119,-0.2197,-0.256,-0.297,-0.3406,-0.3787,-0.381,-0.3392,-0.3376,-0.3183,-0.2762,-0.2762,-0.2746,-0.2696,-0.2696,-0.2696,-0.2696,-0.2696,-0.2696,-0.2696,-0.2696,-0.2159,-0.1273,-0.0906,-0.0467,0.0,0.0,0.0,0.0,0.0,0.0,0.0,0.0,0.0,0.0,0.0,0.0,0.0,0.0,0.0294,0.0636,0.0689,0.1311,0.1987,0.0,0.0,0.0,0.3168,0.3135,0.3086,0.0,0.0,0.0,0.0,0.0,0.0,0.0,0.0,0.0,0.0,0.0,0.0,0.0,0.0,0.0,0.0,0.0,0.417,0.417,0.4358,0.4467,0.4467,0.4481,0.4491,0.4491,0.4491,0.4491,0.4491,0.4491,0.4491,0.4491,0.4491,0.4491,0.4491,0.4491,0.4563,0.4667,0.4684,0.484,0.5052,0.5069,0.5866,0.7085,0.7186,0.795,0.9124,1.0179,1.1115,1.1909,-0.3751,-0.3667,-0.3604,-0.3604,-0.3604,-0.3604,-0.3604,-0.3604,-0.3604,-0.3604,-0.3451,-0.3252,-0.3003,-0.2917,-0.279,-0.2612,-0.2579,-0.2811,-0.3416,-0.329,-0.3474,-0.4155,-0.4068,-0.3961,-0.3858,-0.3858,-0.3642,-0.3179,-0.3179,-0.3019,-0.2696,-0.2696,-0.2696,-0.2696,-0.2696,-0.2696,-0.2696,-0.2696,0.0,-0.1288,-0.1221,0.0,0.0,0.0,0.0,0.0,0.0,0.0,0.0,0.0,0.0,0.0,0.0,0.0,0.0,0.0,0.0,0.0,0.0,0.0,0.0,0.0,0.0,0.0,0.2752,0.2798,0.2743,0.0,0.0,0.0,0.0,0.0,0.0,0.0,0.0,0.0,0.0,0.0,0.0,0.0,0.0,0.0,0.0,0.0,0.4038,0.4038,0.418,0.4264,0.4264,0.4399,0.4491,0.4491,0.4491,0.4491,0.4491,0.4491,0.4491,0.4491,0.4491,0.4491,0.4491,0.4491,0.4505,0.4542,0.4665,0.4724,0.4785,0.4908,0.5732,0.7026,0.7845,0.8948,1.0221,1.1245,1.2013,1.2627,-0.3604,-0.3604,-0.3604,-0.3604,-0.3604,-0.3604,-0.3604,-0.3604,-0.3604,-0.3604,-0.3425,-0.3252,-0.3167,-0.3063,-0.2966,-0.2907,-0.3168,-0.3378,-0.3442,-0.376,-0.4002,-0.4099,-0.4163,-0.4075,-0.3804,-0.3799,-0.3643,-0.3306,-0.3101,-0.3003,-0.2986,-0.2795,-0.2737,-0.2795,-0.2795,-0.2674,-0.2463,-0.2699,-0.2106,-0.101,-0.1215,0.0,-0.0438,-0.0378,-0.0395,-0.0449,-0.0382,-0.0192,0.0,0.0,0.0,0.0,0.0,0.0,0.0,0.0,0.0,0.006,0.0,0.0,0.0,0.1569,0.0,0.0,0.0,0.2359,0.2377,0.0,0.0,0.0,0.0,0.0,0.0,0.0,0.0,0.0,0.0,0.0,0.0,0.0,0.0,0.0,0.0,0.0,0.3593,0.3963,0.4065,0.4142,0.419,0.4291,0.4389,0.4487,0.4491,0.4491,0.4491,0.4491,0.4491,0.4491,0.4491,0.4491,0.4519,0.4842,0.4814,0.4522,0.493,0.4958,0.4726,0.5177,0.6121,0.7335,0.7854,0.9203,1.0965,1.1469,1.2147,1.2764,-0.3604,-0.3604,-0.3604,-0.3604,-0.3604,-0.3604,-0.3604,-0.3604,-0.3604,-0.3604,-0.3425,-0.3337,-0.3453,-0.3308,-0.319,-0.319,-0.3632,-0.3788,-0.3505,-0.4034,-0.4289,-0.4142,-0.4309,-0.4187,-0.3721,-0.3738,-0.3695,-0.3546,-0.3168,-0.3136,-0.3394,-0.3039,-0.2874,-0.291,-0.2917,-0.2658,-0.2219,-0.2416,0.0,-0.0737,0.0,-0.117,-0.0901,-0.0876,-0.0882,-0.0874,-0.0649,-0.0328,0.0,0.0,0.0,0.0,0.0,0.0,0.0,0.0,0.0,0.0,0.0,0.0,0.0,0.0,0.0,0.2635,0.0,0.0,0.0,0.0,0.0,0.0,0.0,0.0,0.0,0.0,0.0,0.0,0.0,0.0,0.0,0.0,0.0,0.0,0.0,0.0,0.3039,0.3851,0.3835,0.3889,0.4143,0.418,0.4287,0.4484,0.4491,0.4491,0.4491,0.4491,0.4491,0.4491,0.4491,0.457,0.4708,0.5242,0.5273,0.4924,0.5464,0.5469,0.5102,0.5722,0.6725,0.787,0.7907,0.9303,1.1315,1.1369,1.1911,1.2589,-0.3604,-0.3604,-0.3604,-0.3604,-0.3604,-0.3604,-0.3604,-0.3604,-0.3604,-0.3604,-0.3425,-0.3419,-0.3715,-0.3629,-0.3536,-0.3536,-0.3543,0.0,-0.4809,0.0,-0.4003,-0.5254,-0.4721,-0.4317,-0.4136,-0.4247,-0.4347,-0.4448,-0.4167,-0.394,-0.3748,-0.3576,-0.3278,-0.291,-0.2954,-0.2688,-0.2151,0.0,-0.0959,0.0,-0.1334,-0.1294,0.0,-0.1349,-0.1255,-0.0835,-0.0278,-0.0036,0.0,0.0,0.0,0.0,0.0,0.0,0.0,0.0,0.0,0.0,0.0,0.0,0.0,0.0,0.1436,0.0,0.0,0.0,0.0,0.0,0.0,0.0,0.0,0.0,0.0,0.0,0.0,0.0,0.0,0.0,0.0,0.0,0.0,0.0,0.0,0.0,0.0,0.3558,0.3254,0.3327,0.3986,0.4123,0.4287,0.4484,0.4491,0.4491,0.4491,0.4491,0.4491,0.4491,0.4491,0.4814,0.5378,0.546,0.5819,0.6372,0.6448,0.6436,0.6378,0.6487,0.7307,0.8522,0.8617,0.9648,1.1069,1.1295,1.1657,1.2033,-0.3604,-0.3604,-0.3604,-0.3604,-0.3604,-0.3604,-0.3604,-0.3604,-0.3604,-0.3604,-0.3524,-0.3648,-0.4094,0.0,0.0,0.0,0.0,-0.4751,0.0,0.0,-0.4412,-0.4836,-0.4273,0.0,-0.3684,-0.3731,-0.3877,-0.4133,-0.3748,-0.3799,-0.4256,-0.36,-0.3437,-0.3649,-0.3322,0.0,-0.1964,0.0,-0.1444,0.0,0.0,0.0,0.0,-0.1683,-0.1265,-0.0716,-0.0193,0.0,0.0,0.0,0.0,0.0,0.0,0.0,0.0,0.0,0.0,0.0,0.0,0.0,0.0,0.0,0.0,0.0,0.0515,0.0,0.0728,0.0,0.0,0.0,0.0,0.0,0.0,0.0,0.0,0.0,0.0,0.0,0.0,0.0,0.0,0.0,0.0,0.0,0.0,0.0,0.0,0.2988,0.3456,0.3853,0.4222,0.4484,0.4491,0.4491,0.4491,0.4491,0.4704,0.5085,0.5085,0.5464,0.6145,0.6578,0.6713,0.6615,0.7047,0.6993,0.6652,0.728,0.7966,0.8663,0.9289,1.0147,1.1009,1.1129,1.147,1.1926,-0.361,-0.3604,-0.3604,-0.3604,-0.3604,-0.3604,-0.3604,-0.3862,-0.4031,-0.3965,-0.4061,0.0,-0.4826,-0.484,0.0,0.0,-0.5276,-0.5399,0.0,0.0,-0.484,0.0,0.0,0.0,0.0,0.0,-0.3648,-0.42,-0.3636,-0.3742,-0.4481,-0.3703,-0.3579,-0.3967,-0.3559,-0.2883,-0.2069,0.0,-0.1955,-0.1226,-0.218,-0.2609,-0.2624,-0.1928,-0.1365,-0.086,-0.0227,0.0,0.0,0.0,0.0,0.0,0.0,0.0,0.0,0.0,0.0,0.0,-0.1029,0.0,0.0,0.0,0.0,0.0,0.0,0.0,0.0,0.0,0.0,0.0,0.0,0.0,0.0,-0.0255,0.0,0.0,0.0,0.0,0.0,0.0,0.0,0.0,0.0,0.0,0.0,0.0,0.0,0.0,0.3078,0.3518,0.3975,0.4481,0.4491,0.4598,0.4759,0.4787,0.5113,0.5792,0.5792,0.6199,0.6912,0.7456,0.7509,0.7235,0.7777,0.7696,0.7257,0.8116,0.8634,0.8992,0.9783,1.0428,1.0882,1.0962,1.1263,1.1692,-0.3628,-0.3604,-0.3604,-0.3604,-0.3604,-0.3604,-0.3604,0.0,0.0,0.0,0.0,0.0,0.0,0.0,0.0,0.0,0.0,-0.5556,-0.6112,0.0,-0.5037,0.0,0.0,-0.4062,0.0,0.0,0.0,-0.524,-0.4382,-0.4053,-0.4201,-0.4053,-0.377,-0.342,-0.355,-0.3258,-0.2652,-0.2475,-0.2164,-0.1828,-0.2448,-0.2697,-0.2626,0.0,-0.1694,-0.1441,-0.0384,0.0,0.0,0.0,0.0,0.0,0.0,0.0,0.0,0.0,0.0,0.0,0.0,0.0,0.0,-0.1762,0.0,0.0,0.0,0.0,-0.0672,0.0,0.0,0.0,0.0,0.0,-0.0863,-0.0869,-0.0379,0.0,0.0,0.0,0.0,0.0,0.0,0.0,0.0,0.0,0.0,0.0,0.0,0.0,0.3023,0.3116,0.3559,0.4481,0.4491,0.4814,0.546,0.546,0.5842,0.6561,0.6561,0.6939,0.767,0.7696,0.8076,0.8725,0.8752,0.8752,0.8745,0.9036,0.9356,0.9684,0.997,1.0307,1.064,1.0889,1.1002,1.1102,-0.4475,-0.4058,-0.3713,-0.3617,-0.3902,0.0,0.0,-0.5508,0.0,0.0,0.0,0.0,0.0,-0.6144,-0.6091,0.0,0.0,-0.6171,-0.6204,-0.5879,0.0,0.0,0.0,-0.4888,0.0,0.0,0.0,0.0,-0.4254,-0.414,-0.49,-0.4118,-0.386,-0.405,-0.3727,-0.3262,0.0,0.0,0.0,0.0,0.0,-0.3303,-0.3221,0.0,0.0,-0.1679,-0.1319,-0.1196,0.0,-0.1187,-0.1186,-0.1185,-0.1185,-0.134,-0.1496,-0.1496,-0.163,0.0,0.0,0.0,-0.2406,-0.2406,0.0,0.0,0.0,0.0,0.0,0.0,0.0,0.0,0.0,0.0,-0.1369,-0.0957,-0.0723,-0.0454,0.0,0.0,0.0,0.0,0.0,0.0,0.0,0.0,0.0,0.0,0.0,0.0,0.0,0.3646,0.4022,0.4484,0.4921,0.5273,0.5487,0.5982,0.661,0.7316,0.7316,0.7723,0.8427,0.8427,0.856,0.8804,0.8804,0.8804,0.8844,0.9332,0.9593,0.9762,1.0251,1.0153,0.983,1.0476,1.0861,1.1076,-0.4992,-0.4364,-0.3826,0.0,0.0,0.0,0.0,0.0,0.0,0.0,-0.6281,0.0,-0.6637,0.0,-0.6625,0.0,-0.6648,-0.6723,-0.6671,-0.6382,0.0,-0.6078,-0.5752,0.0,0.0,0.0,0.0,0.0,0.0,-0.4574,-0.5286,-0.4334,-0.418,-0.4696,-0.4136,-0.3785,-0.3617,-0.3397,-0.3309,0.0,0.0,-0.3604,0.0,0.0,-0.2534,-0.2017,0.0,-0.176,-0.1745,-0.1778,-0.181,-0.1808,-0.1808,-0.194,-0.2117,-0.2117,-0.2275,-0.2521,-0.2923,-0.3012,0.0,-0.3012,-0.3012,0.0,-0.2251,0.0,0.0,0.0,0.0,0.0,0.0,0.0,-0.1927,-0.1318,-0.1048,-0.0681,0.0,0.0,0.0,0.0,0.0,0.0,0.0,0.0,0.0,0.0,0.0,0.0,0.0,0.0,0.4171,0.4835,0.503,0.5519,0.6276,0.6502,0.7101,0.8103,0.8103,0.8348,0.8804,0.8804,0.8804,0.8804,0.8804,0.8804,0.8844,0.9325,0.9586,0.9762,1.0214,1.0147,0.9817,1.0396,1.0841,1.1202,-0.5142,-0.4523,-0.396,0.0,-0.5011,0.0,0.0,0.0,-0.7397,0.0,-0.735,-0.7506,-0.7464,-0.7464,-0.735,-0.7026,-0.7,-0.7141,-0.745,-0.6718,0.0,0.0,-0.6133,-0.5894,-0.6937,0.0,0.0,0.0,0.0,-0.5355,-0.5345,-0.4753,-0.4775,-0.5296,-0.4696,0.0,-0.528,-0.4696,-0.4452,-0.4391,-0.388,-0.3667,-0.3644,-0.3644,0.0,-0.248,-0.2035,-0.1801,-0.1718,-0.1846,-0.1897,-0.1897,-0.1897,-0.2271,-0.2733,-0.2733,-0.3139,-0.359,-0.359,-0.3597,-0.3604,-0.3604,0.0,0.0,0.0,0.0,-0.2586,0.0,0.0,0.0,0.0,0.0,0.0,-0.1899,-0.1273,-0.0657,-0.0074,0.0,0.0,0.0,0.0,0.0,0.0,0.0,0.0,0.0,0.0,0.0,0.0,0.0,0.0,0.5401,0.4869,0.5523,0.7557,0.6966,0.7369,0.8752,0.8778,0.8804,0.8804,0.8804,0.8804,0.8804,0.8804,0.8804,0.8831,0.9091,0.9384,0.9713,1.0007,1.0294,1.0593,1.0593,1.0915,1.1369,-0.5268,-0.4647,-0.4127,0.0,-0.4872,-0.5766,0.0,0.0,0.0,0.0,-0.7586,-0.7404,-0.7161,-0.7134,-0.7101,-0.7006,-0.7,0.0,0.0,0.0,0.0,-0.6545,-0.6793,-0.6762,-0.6413,-0.6317,0.0,-0.7178,0.0,-0.6066,-0.6259,-0.5641,-0.5455,-0.5585,-0.522,-0.5262,-0.5585,-0.522,-0.5065,-0.5065,-0.4918,-0.4591,0.0,0.0,-0.3748,-0.3091,-0.3134,-0.3109,-0.3086,-0.313,-0.3129,-0.3129,-0.3129,-0.3147,-0.3149,-0.3149,-0.3258,-0.3387,-0.3387,-0.3493,-0.3604,-0.3604,-0.3604,-0.3556,0.0,0.0,0.0,0.0,0.0,0.0,0.0,0.0,0.0,-0.1979,-0.0912,-0.0185,0.0,0.0,0.0,0.0,0.0,0.0,0.0,0.0,0.0,0.0,0.0,0.0,0.0,0.0,0.0,0.4728,0.5085,0.5515,0.6059,0.6961,0.7616,0.7996,0.8533,0.8804,0.8804,0.8804,0.8804,0.8804,0.8804,0.8804,0.8831,0.9091,0.9384,0.9713,1.0007,1.0294,1.0593,1.0593,1.0821,1.1102,-0.5464,-0.4816,0.0,-0.4341,0.0,0.0,-0.6822,0.0,0.0,-0.8045,-0.748,0.0,-0.7213,-0.708,-0.7,-0.7,-0.7,0.0,-0.7208,0.0,0.0,-0.6787,-0.7102,-0.7043,-0.6562,-0.669,0.0,-0.7513,0.0,0.0,-0.7161,-0.6585,-0.6445,-0.6649,-0.6253,-0.6293,-0.6637,-0.6085,-0.5715,-0.5461,-0.5343,0.0,0.0,-0.4805,-0.4543,-0.4151,-0.3996,-0.3749,-0.349,-0.358,-0.3604,-0.3604,-0.3604,-0.352,-0.3428,-0.3428,-0.3428,-0.3428,-0.3428,-0.3514,-0.3604,-0.3604,-0.3604,-0.3604,-0.3604,-0.3604,-0.3604,0.0,0.0,0.0,0.0,0.0,0.0,-0.2437,-0.1229,0.0,0.0,0.0,0.0,0.0,0.0,0.0,0.0,0.0,0.0,0.0,0.0,0.0,0.0,0.0,0.0,0.4917,0.503,0.5355,0.5982,0.6492,0.7069,0.7696,0.8129,0.848,0.8811,0.8911,0.8971,0.8971,0.8971,0.9072,0.9192,0.9198,0.9464,0.99,1.0194,1.0445,1.0593,1.0593,1.0774,1.0995,-0.5624,-0.503,0.0,0.0,0.0,0.0,0.0,-0.7011,0.0,-0.8295,0.0,-0.6817,-0.7424,-0.7235,-0.704,-0.7006,0.0,-0.7188,-0.7471,-0.7228,-0.7194,-0.7477,-0.7181,-0.7,-0.7,-0.704,0.0,0.0,0.0,-0.7745,-0.7965,-0.7496,-0.752,-0.7941,-0.7428,-0.7463,0.0,-0.7046,-0.6418,-0.5907,-0.5635,-0.5475,-0.5416,-0.5416,-0.5367,-0.5243,-0.4713,-0.4055,-0.3458,-0.3556,-0.3604,-0.3604,-0.3604,-0.3587,-0.3573,-0.3573,-0.3573,-0.3573,-0.3573,-0.3587,-0.3604,-0.3604,-0.3604,-0.3604,-0.3604,-0.3604,-0.3604,-0.3604,-0.3604,0.0,0.0,0.0,0.0,-0.3007,0.0,0.0,0.0,0.0,0.0,0.0,0.0,0.0,0.0,0.0,0.0,0.0,0.0,0.0,0.0,0.0,0.0,0.0,0.4921,0.0,0.6588,0.0,0.6276,0.7563,0.7643,0.8049,0.8679,0.8983,0.9102,0.9013,0.9096,0.9296,0.9491,0.9289,0.9557,1.0117,1.0479,1.0593,1.0593,1.0633,1.0807,1.0995,-0.5515,0.0,0.0,0.0,0.0,-0.7155,-0.6669,-0.7011,-0.7576,-0.8295,-0.7942,-0.7609,-0.7517,-0.7437,-0.731,-0.702,-0.7248,0.0,0.0,0.0,0.0,-0.7506,-0.7181,-0.7,-0.7,-0.7261,-0.7542,0.0,0.0,0.0,-0.8322,-0.8215,-0.8215,-0.8283,-0.7916,0.0,-0.7862,-0.7504,0.0,-0.7167,-0.6834,-0.6428,-0.605,-0.605,-0.5739,-0.5281,-0.5173,-0.4738,-0.4154,-0.3741,-0.3604,-0.3604,-0.3604,-0.3493,-0.3371,-0.3413,-0.3392,-0.3346,-0.3346,-0.3483,-0.3604,-0.3604,-0.3604,-0.3604,-0.3604,-0.3604,-0.3604,-0.3604,-0.3604,-0.3604,-0.3604,0.0,0.0,0.0,0.0,0.0,0.0,0.0,0.0,0.0,0.0,0.0,0.0,0.0,0.0,0.0,0.0,0.0,0.0,0.0,0.0,0.0,0.0,0.0,0.0,0.0,0.0,0.6804,0.7396,0.7777,0.7916,0.8559,0.8525,0.8009,0.8611,0.8719,0.8486,0.9008,0.9557,1.0117,1.0479,1.0593,1.062,1.0861,1.0949,1.0995,0.0,0.0,0.0,0.0,0.0,0.0,0.0,-0.7696,0.0,-0.8571,-0.8011,-0.7682,-0.7925,-0.7819,-0.7649,-0.7486,-0.7622,-0.7702,-0.7702,-0.7702,-0.7635,-0.7497,-0.735,0.0,-0.7006,-0.7161,-0.7462,-0.7905,0.0,0.0,-0.8597,-0.8597,-0.8597,-0.8597,-0.845,-0.8358,0.0,0.0,0.0,-0.7919,-0.7457,-0.7194,-0.7058,-0.6739,-0.6536,-0.6393,-0.5939,-0.5588,-0.52,-0.4312,-0.3836,-0.3604,-0.3604,-0.3527,-0.347,-0.3491,-0.3491,-0.3448,-0.3448,-0.3524,-0.3604,-0.3604,-0.3604,-0.3604,-0.3604,-0.3604,-0.3604,-0.3604,-0.3604,-0.3651,-0.3782,-0.3309,0.0,0.0,0.0,0.0,0.0,0.0,0.0,0.0,0.0,0.0,0.0,0.0,0.0,0.0,0.0,0.0,0.0,0.0,0.0,0.0,0.0,0.0,0.0,0.0,0.0,0.6615,0.7348,0.7889,0.8295,0.877,0.8808,0.8503,0.8862,0.9084,0.9233,0.9712,1.0094,1.0392,1.0539,1.0593,1.0626,1.0882,1.0995,1.1015,0.0,-0.6443,0.0,0.0,-0.6956,0.0,-0.7723,-0.8321,-0.8804,-0.8804,-0.8106,-0.7821,-0.8333,-0.8163,-0.7979,-0.7912,-0.7965,-0.8005,-0.8005,-0.8005,-0.7916,-0.7692,-0.7558,-0.7377,-0.7121,-0.7033,-0.7299,0.0,0.0,0.0,0.0,-0.8804,0.0,0.0,0.0,0.0,0.0,0.0,-0.8402,-0.8355,-0.7806,-0.7715,-0.7859,-0.7373,-0.7361,-0.749,-0.6796,-0.6481,-0.6233,-0.5111,-0.4311,-0.3781,-0.3858,-0.3758,-0.3604,-0.3604,-0.3604,-0.3604,-0.3604,-0.3604,-0.3604,-0.3604,-0.3604,-0.3604,-0.3604,-0.3604,-0.361,-0.3641,-0.3672,-0.3708,-0.3792,-0.3329,0.0,0.0,0.0,0.0,0.0,0.0,0.0,0.0,0.0,0.0,0.0,0.0,0.0,0.0,0.0,0.0,0.0,0.0,0.0,0.0,0.0,0.4869,0.5171,0.0,0.6036,0.0,0.7348,0.7996,0.8566,0.8936,0.9068,0.8989,0.9128,0.9544,1.014,1.0472,1.0593,1.06,1.066,1.0687,1.0727,1.1082,1.1176,1.1223,0.0,0.0,0.0,0.0,0.0,0.0,0.0,-0.8321,-0.8804,-0.8804,-0.8732,-0.8586,-0.8429,-0.8375,-0.8223,-0.7932,-0.8176,-0.8362,-0.8362,-0.8362,-0.8342,-0.8315,-0.7785,-0.7493,-0.745,-0.7161,-0.7299,0.0,0.0,0.0,0.0,0.0,0.0,0.0,0.0,0.0,0.0,-0.8523,-0.8402,-0.8368,-0.7999,-0.7879,-0.7899,-0.7846,-0.7839,-0.7859,-0.7762,-0.7435,-0.6901,-0.6107,-0.5181,-0.4376,-0.4679,-0.4244,-0.3604,-0.3604,-0.3604,-0.3604,-0.3604,-0.3604,-0.3604,-0.3604,-0.3604,-0.3604,-0.3604,-0.3604,-0.3638,-0.3744,-0.3883,-0.3801,-0.3276,-0.3116,-0.291,0.0,0.0,0.0,0.0,0.0,0.0,0.0,0.0,0.0,0.0,0.0,0.0,0.0,0.0,0.0,0.0,0.0,0.0,0.6362,0.0,0.6059,0.7396,0.6804,0.0,0.6615,0.7348,0.7723,0.783,0.8506,0.8634,0.8335,0.8927,0.9544,1.014,1.0472,1.0593,1.062,1.0881,1.0955,1.1022,1.1618,1.1826,1.1866,0.0,0.0,0.0,0.0,0.0,0.0,0.0,-0.8619,-0.8804,-0.8804,-0.8804,-0.8764,-0.8651,-0.8637,-0.8584,-0.8445,-0.8564,-0.8637,-0.8637,-0.8637,-0.8583,-0.8409,-0.8167,-0.7953,-0.7749,-0.7606,-0.7752,0.0,0.0,0.0,0.0,0.0,0.0,0.0,0.0,-0.8804,-0.8798,-0.8684,-0.8637,-0.8611,-0.8317,-0.8303,-0.8392,-0.8039,-0.8019,-0.8121,-0.7459,-0.7104,-0.6833,-0.6296,-0.5542,-0.4762,-0.4454,-0.4059,-0.373,-0.373,-0.3668,-0.3604,-0.3604,-0.3604,-0.3604,-0.3604,-0.3665,-0.373,-0.373,-0.3778,-0.386,-0.3917,-0.4024,-0.3913,-0.3229,-0.2806,-0.2335,0.0,0.0,0.0,0.0,0.0,0.0,0.0,0.0,0.0,0.0,0.0,0.0,0.0,0.0,0.0,0.0,0.0,0.0,0.5914,0.0,0.6448,0.7047,0.7182,0.7262,0.7262,0.7996,0.8374,0.8374,0.8672,0.8803,0.8835,0.9468,0.987,1.014,1.0472,1.0593,1.062,1.0914,1.0995,1.1062,1.1692,1.1906,1.1946,-0.8253,0.0,-0.8646,0.0,-0.8454,-0.8804,-0.8804,-0.8804,-0.8804,-0.8804,-0.8804,-0.8804,-0.8804,-0.8804,-0.8804,-0.8804,-0.8804,-0.8804,-0.8804,-0.8804,-0.8717,-0.8536,-0.8449,0.0,-0.8045,-0.7952,-0.8076,-0.8402,-0.8402,0.0,0.0,0.0,0.0,0.0,-0.8804,-0.8804,-0.8804,-0.8804,-0.8804,-0.8791,-0.8584,-0.8624,-0.8731,-0.8086,-0.7985,-0.8057,-0.708,-0.6732,-0.6659,-0.6153,-0.5646,-0.5119,-0.4549,-0.415,-0.386,-0.386,-0.3788,-0.37,-0.3675,-0.3699,-0.3697,-0.3675,-0.3751,-0.386,-0.386,-0.3941,-0.4008,-0.4051,-0.418,-0.3987,-0.3016,-0.2499,-0.1898,0.0,0.0,0.0,0.0,0.0,0.0,0.0,0.1126,0.1867,0.2345,0.0,0.0,0.0,0.0,0.0,0.0,0.0,0.0,0.0,0.0,0.0,0.0,0.745,0.7696,0.7696,0.8454,0.8804,0.8811,0.8985,0.9218,0.9497,1.0027,1.0247,1.0267,1.0506,1.064,1.0747,1.1009,1.1176,1.1343,1.181,1.2033,1.2024,-0.9196,-0.8978,-0.8804,-0.8778,-0.8804,-0.8804,-0.8804,-0.8804,-0.8804,-0.8804,-0.8804,-0.8804,-0.8804,-0.8804,-0.8804,-0.8804,-0.8804,-0.8804,-0.8804,-0.8804,-0.8804,0.0,0.0,-0.8402,-0.8395,-0.8059,-0.8076,-0.8402,0.0,0.0,-0.8804,0.0,-0.8804,-0.8804,-0.8804,-0.8804,-0.8804,-0.8804,-0.8804,-0.8804,-0.8804,-0.8804,-0.8725,-0.7984,-0.7717,-0.761,-0.688,-0.6605,-0.6497,-0.5756,-0.5511,-0.5477,-0.5331,-0.4692,-0.3991,-0.3991,-0.3991,-0.3957,-0.3829,-0.3897,-0.3954,-0.3826,-0.3904,-0.3991,-0.3991,-0.3994,-0.4038,-0.4164,-0.4358,-0.4039,-0.248,-0.2202,-0.173,-0.0252,0.0,0.0,0.0,0.0,0.0,0.0,0.226,0.3131,0.3267,0.0,0.0,0.0,0.0,0.0,0.0,0.0,0.0,0.6551,0.6588,0.0,0.767,0.7696,0.7696,0.7696,0.8454,0.8804,0.8824,0.9412,0.9833,1.0127,1.0452,1.0586,1.0586,1.0593,1.076,1.1015,1.1309,1.1597,1.1933,1.2191,1.2298,1.2298,-0.9579,-0.9466,-0.9365,-0.9225,-0.8985,-0.8804,-0.8804,-0.8804,-0.8804,-0.8804,-0.8804,-0.8804,-0.8804,-0.8804,-0.8804,0.0,-0.8804,-0.8804,0.0,-0.8804,-0.8804,-0.8804,-0.8717,-0.8671,-0.8671,-0.8577,-0.8577,-0.8671,0.0,0.0,0.0,-0.8804,-0.8804,-0.8804,-0.8804,-0.8804,-0.8804,-0.8804,-0.8804,-0.8804,-0.8804,-0.8507,-0.8023,-0.7777,-0.7402,-0.6853,-0.6118,-0.5846,-0.5733,-0.5058,-0.4814,-0.4807,-0.4756,-0.4476,-0.4123,-0.4123,-0.4078,-0.3984,-0.3961,-0.3957,-0.3984,-0.3937,-0.4038,-0.4123,-0.4123,-0.425,-0.4361,-0.4385,-0.407,-0.3428,-0.2397,-0.1786,-0.1146,-0.0168,0.0,0.0,0.0,0.0,0.0,0.0,0.2407,0.3293,0.0,0.3938,0.0,0.0,0.0,0.0,0.0,0.0,0.0,0.0,0.7074,0.0,0.6966,0.7456,0.7696,0.7696,0.8454,0.8884,0.9084,0.9506,0.984,1.0134,1.0459,1.0593,1.0593,1.0593,1.076,1.0956,1.0542,1.0565,1.0911,1.1181,1.1279,1.1391,-1.0384,-1.0196,-0.9863,-0.9272,-0.8971,-0.8804,-0.8804,-0.8804,-0.8804,-0.8804,-0.8804,-0.8804,-0.8804,-0.8804,0.0,-0.8804,-0.8804,-0.8804,-0.8804,-0.8804,-0.8804,-0.8804,-0.8804,-0.8804,-0.8804,0.0,0.0,-0.8804,-0.8804,-0.8804,-0.8804,-0.8804,-0.8804,-0.8804,-0.8804,-0.8804,-0.8804,-0.8804,-0.8804,-0.8804,-0.8804,-0.8348,-0.767,-0.7396,-0.6826,-0.6095,-0.5382,-0.5136,-0.5054,-0.4653,-0.4491,-0.4491,-0.4491,-0.4402,-0.4301,-0.4301,-0.4263,-0.4175,-0.4095,-0.4119,-0.4175,-0.4092,-0.419,-0.4301,-0.4301,-0.4399,-0.4491,-0.4491,-0.3901,-0.3121,-0.2343,-0.1591,-0.0866,-0.0112,0.0,0.0,0.0,0.0,0.0,0.0,0.0,0.0,0.0,0.4208,0.0,0.0,0.0,0.0,0.0,0.0,0.0,0.6313,0.6933,0.0,0.6709,0.709,0.7289,0.7289,0.7817,0.8413,0.9035,0.8918,0.9047,0.9308,0.9541,0.9811,1.011,1.011,1.0296,1.0552,1.0093,0.9947,1.0022,1.0172,1.049,1.0901,-1.1529,-1.1077,0.0,0.0,-0.9017,0.0,-0.9087,-0.9087,-0.9008,-0.8831,-0.8804,-0.8804,-0.8804,-0.8804,-0.8804,-0.8804,0.0,0.0,0.0,-0.8804,-0.8804,-0.8804,-0.8804,0.0,-0.8804,-0.8804,-0.8804,-0.8804,-0.8804,-0.8804,-0.8804,-0.8804,-0.8804,-0.8804,-0.8804,-0.8804,-0.8804,-0.8804,-0.8804,-0.8804,-0.8804,-0.8321,-0.7563,-0.6858,-0.6118,-0.5351,-0.4732,-0.4491,-0.4491,-0.4491,-0.4491,-0.4491,-0.4491,-0.4491,-0.4491,-0.4491,-0.4491,-0.446,-0.4274,-0.4362,-0.4457,-0.4271,-0.4365,-0.4491,-0.4491,-0.4491,-0.4491,-0.4436,-0.379,-0.301,-0.2258,-0.1507,-0.0811,-0.0112,0.0,0.0,0.0,0.0,0.0,0.0,0.0,0.0,0.0,0.4491,0.4522,0.0,0.0,0.0,0.0,0.0,0.6187,0.5838,0.6295,0.6618,0.6753,0.6623,0.6579,0.6633,0.6834,0.7531,0.8673,0.7871,0.7686,0.7994,0.7994,0.8463,0.9233,0.9297,0.9524,0.9829,0.9829,0.9563,0.9183,0.9183,0.982,1.0708,0.0,0.0,-1.0506,-1.0224,-1.1146,-1.1934,-1.1934,-1.1934,-1.1175,-0.9087,-0.8804,-0.8804,-0.8804,-0.8804,-0.8804,-0.8804,-0.8804,-0.8804,-0.8804,-0.8804,-0.8804,-0.8804,-0.8804,-0.8804,-0.8804,-0.8804,-0.8804,-0.8804,-0.8804,-0.8804,-0.8804,-0.8804,-0.8804,-0.8804,-0.8804,-0.8804,-0.8804,-0.8804,-0.8804,-0.8804,-0.8804,-0.8023,-0.6831,-0.6669,-0.5823,-0.4708,-0.4543,-0.4491,-0.4491,-0.4491,-0.4491,-0.4491,-0.4491,-0.4491,-0.4491,-0.4491,-0.4491,-0.4484,-0.445,-0.4464,-0.4481,-0.4447,-0.4464,-0.4491,-0.4491,-0.4491,-0.4349,-0.3763,-0.301,-0.2232,-0.1507,-0.0755,-0.0196,-0.0028,0.0,0.0,0.0,0.1256,0.0,0.0,0.3566,0.4491,0.4491,0.4491,0.4786,0.0,0.0,0.0,0.0,0.0,0.604,0.5956,0.6062,0.5885,0.5367,0.5885,0.6418,0.6973,0.7022,0.7335,0.7809,0.7597,0.7686,0.7994,0.7994,0.8189,0.8526,0.9296,0.9405,0.9042,0.9042,0.867,0.8161,0.8161,0.8803,0.9782,-1.3678,-1.3196,-1.2779,-1.2779,-1.2851,-1.2471,-1.1225,-1.1023,-1.049,-0.8989,-0.8804,-0.8804,-0.8804,-0.8804,-0.8804,-0.8804,-0.8804,-0.8804,-0.8804,-0.8804,-0.8804,-0.8804,-0.8804,-0.8804,-0.8804,-0.8804,-0.8804,-0.8804,-0.8804,-0.8804,-0.8804,-0.8804,-0.8804,-0.8804,-0.8804,-0.8804,-0.8804,-0.8804,-0.8804,-0.8804,-0.8804,-0.791,-0.6588,-0.6588,-0.5719,-0.4491,-0.4491,-0.4491,-0.4491,-0.4491,-0.4491,-0.4491,-0.4491,-0.4491,-0.4491,-0.4491,-0.4491,-0.4491,-0.4491,-0.4491,-0.4491,-0.4491,-0.4491,-0.4491,-0.4491,-0.4491,-0.4377,-0.3987,-0.2982,-0.2091,-0.1675,-0.0727,0.0,0.0,0.0,0.0,0.0,0.1256,0.0,0.2202,0.3615,0.4593,0.4593,0.4658,0.4879,0.5339,0.0,0.0,0.5589,0.5669,0.5677,0.5597,0.5525,0.5342,0.4982,0.5342,0.5912,0.6782,0.6384,0.6515,0.7108,0.6734,0.6681,0.6894,0.6894,0.747,0.8383,0.8481,0.8609,0.876,0.829,0.7721,0.7099,0.7099,0.805,0.9387,-1.541,-1.541,-1.541,-1.541,-1.4219,-1.2418,-0.9807,-0.942,-0.9263,-0.8857,-0.8804,-0.8804,-0.8804,-0.8804,-0.8804,-0.8804,-0.8804,-0.8804,-0.8804,-0.8804,-0.8804,-0.8804,-0.8804,-0.8804,-0.8804,-0.8804,-0.8804,-0.8804,-0.8804,-0.8804,-0.8804,-0.8804,-0.8804,-0.8804,-0.8804,-0.8804,-0.8804,-0.8804,-0.8804,-0.8804,-0.8804,-0.799,-0.675,-0.6642,-0.5796,-0.4625,-0.4546,-0.4491,-0.4491,-0.4491,-0.4491,-0.4491,-0.4491,-0.4491,-0.4491,-0.4491,-0.4491,-0.4491,-0.4491,-0.4491,-0.4491,-0.4491,-0.4491,-0.4491,-0.4491,-0.4491,-0.4439,-0.4209,-0.3105,-0.2124,-0.1909,-0.0842,0.0,0.0,0.0,0.0,0.0,0.0,0.2023,0.2023,0.3383,0.4367,0.4516,0.463,0.4782,0.4951,0.5066,0.5154,0.0,0.5359,0.5369,0.5204,0.5042,0.5043,0.5133,0.5047,0.5417,0.624,0.5513,0.5614,0.6494,0.5745,0.5501,0.5593,0.5613,0.6608,0.8148,0.7437,0.7654,0.8374,0.7834,0.7157,0.6528,0.6528,0.7838,0.9601,-1.541,-1.541,-1.541,-1.541,-1.5195,-1.4394,-1.2554,-1.2264,-1.1426,-0.9113,-0.8804,-0.8804,-0.8804,-0.8804,-0.8804,-0.8804,-0.8804,-0.8804,-0.8804,-0.8804,-0.8804,-0.8804,-0.8804,-0.8804,-0.8804,-0.8804,-0.8804,-0.8804,-0.8804,-0.8804,-0.8804,-0.8804,-0.8804,-0.8804,-0.8804,-0.8804,-0.8804,-0.8804,-0.8804,-0.8804,-0.8804,-0.8295,-0.7456,-0.6831,-0.6064,-0.5273,-0.4708,-0.4491,-0.4491,-0.4491,-0.4491,-0.4491,-0.4491,-0.4491,-0.4491,-0.4491,-0.4491,-0.4491,-0.4491,-0.4491,-0.4491,-0.4491,-0.4491,-0.4491,-0.4491,-0.4491,-0.4132,-0.2832,-0.2361,-0.1829,-0.0581,-0.0143,0.0,0.0,0.0,0.0,0.0,0.0,0.1282,0.1282,0.2065,0.2895,0.3689,0.3798,0.4236,0.5241,0.5347,0.5467,0.5684,0.5722,0.5722,0.5698,0.5433,0.5337,0.5358,0.5337,0.5403,0.5555,0.5424,0.5437,0.5594,0.5596,0.5566,0.5596,0.5718,0.5995,0.6471,0.7159,0.7157,0.6827,0.8377,0.84,0.7553,0.7553,0.899,1.0788,-1.541,-1.541,-1.541,-1.541,-1.541,-1.5146,-1.4365,-1.3467,-1.2446,-1.1175,-0.9725,-0.8804,-0.8804,-0.8804,-0.8804,-0.8804,-0.8804,-0.8804,-0.8804,-0.8804,-0.8804,-0.8804,-0.8804,-0.8804,-0.8804,-0.8804,-0.8804,-0.8804,-0.8804,-0.8804,-0.8804,-0.8804,-0.8804,-0.8804,-0.8804,-0.8804,-0.8804,-0.8804,-0.8804,-0.8804,-0.8804,-0.8348,-0.767,-0.7316,-0.6497,-0.546,-0.5136,-0.4814,-0.4491,-0.4491,-0.4491,-0.4491,-0.4491,-0.4491,-0.4491,-0.4491,-0.4491,-0.4491,-0.4491,-0.4491,-0.4491,-0.4491,-0.4552,-0.4614,-0.4614,-0.4679,-0.437,-0.3205,-0.2645,-0.201,-0.0812,-0.0265,0.0,0.0,0.0,0.0,0.0,0.0648,0.1093,0.1112,0.1856,0.2535,0.2961,0.3071,0.3587,0.4677,0.4268,0.4491,0.5721,0.5258,0.5186,0.5764,0.5671,0.5599,0.5599,0.5599,0.5593,0.5521,0.5597,0.5593,0.5525,0.5637,0.5749,0.583,0.5895,0.6303,0.698,0.6904,0.7289,0.7974,0.8351,0.8542,0.8542,0.8012,0.9246,1.1095,-1.5985,-1.5693,-1.541,-1.541,-1.541,-1.541,-1.541,-1.4307,-1.3467,-1.3467,-1.131,-0.9524,-0.8857,-0.8804,-0.8804,-0.8804,-0.8804,-0.8864,-0.8998,-0.8884,-0.8804,-0.8804,-0.8804,-0.8804,-0.8804,-0.8804,-0.8804,-0.8804,-0.8804,-0.8804,-0.8804,-0.8804,-0.8804,-0.8804,-0.8804,-0.8804,-0.8804,-0.8804,-0.8804,-0.8804,-0.8804,-0.8454,-0.7943,-0.7777,-0.6983,-0.5973,-0.562,-0.5164,-0.4708,-0.4543,-0.4491,-0.4491,-0.4491,-0.4491,-0.4491,-0.4491,-0.4491,-0.4491,-0.4491,-0.4491,-0.4498,-0.4535,-0.4634,-0.4701,-0.4735,-0.4833,-0.465,-0.3812,-0.3024,-0.2217,-0.1304,-0.0516,0.0,0.0,0.0,0.0,0.0,0.0492,0.0829,0.0855,0.1466,0.2006,0.2184,0.2298,0.2812,0.3837,0.3185,0.3449,0.5088,0.4614,0.48,0.5872,0.5837,0.58,0.58,0.58,0.5745,0.564,0.5749,0.5745,0.5644,0.5789,0.5918,0.5993,0.6067,0.6601,0.7403,0.6606,0.7365,0.8884,0.8351,0.8646,0.9296,0.876,0.9777,1.1281,-1.7822,-1.6523,-1.541,-1.541,-1.541,-1.541,-1.541,-1.5312,-1.5225,-1.5225,-1.369,-1.1635,-0.9087,-0.8804,-0.8804,-0.8804,-0.8804,-0.9038,-0.9586,-0.9112,-0.8804,-0.8804,-0.8804,-0.8804,-0.8804,-0.8804,-0.8804,-0.8804,-0.8804,-0.8804,-0.8804,-0.8804,-0.8804,-0.8804,-0.8804,-0.8804,-0.8804,-0.8804,-0.8804,-0.8804,-0.8804,-0.8778,-0.8646,-0.7969,-0.7643,-0.7369,-0.6005,-0.546,-0.5324,-0.4708,-0.4491,-0.4491,-0.4491,-0.4491,-0.4491,-0.4491,-0.4491,-0.4491,-0.4491,-0.4491,-0.4525,-0.4665,-0.468,-0.4728,-0.487,-0.4881,-0.4676,-0.3938,-0.3097,-0.2264,-0.1437,-0.0596,0.0,0.0,0.0,0.0,0.0,0.0033,0.0067,0.0069,0.0142,0.0506,0.1301,0.1411,0.183,0.293,0.2935,0.2999,0.3297,0.4155,0.517,0.6227,0.5949,0.58,0.58,0.58,0.5796,0.5786,0.5796,0.5796,0.5789,0.5905,0.5983,0.6,0.6179,0.6328,0.6412,0.6338,0.6945,0.8012,0.8846,0.9302,0.9589,1.0573,1.1311,1.1852,-1.7793,-1.6611,-1.541,-1.541,-1.541,-1.541,-1.541,-1.541,-1.541,-1.541,-1.4853,-1.405,-1.3023,-1.2874,-1.2487,-1.1495,-1.1058,-1.0869,-1.0885,-1.0043,-0.9312,-0.8831,-0.8804,-0.8891,-0.9044,-0.9044,-0.9138,-0.9352,-0.9138,-0.9044,-0.9044,-0.8891,-0.8804,-0.8804,-0.8804,-0.8804,-0.8804,-0.8804,-0.8804,-0.8804,-0.8804,-0.8804,-0.8778,-0.848,-0.8103,-0.7557,-0.6556,-0.59,-0.5406,-0.4732,-0.4491,-0.4505,-0.4604,-0.4634,-0.4651,-0.4718,-0.4745,-0.4745,-0.4745,-0.4677,-0.4648,-0.4677,-0.4826,-0.5003,-0.5159,-0.5267,-0.5136,-0.4375,-0.3438,-0.2504,-0.163,-0.0681,0.0,0.0,0.0,0.0,0.0,0.0,0.0,0.0,0.0,0.0147,0.0447,0.0485,0.0941,0.2005,0.1469,0.1667,0.3044,0.4198,0.5311,0.6393,0.6317,0.6176,0.6126,0.6122,0.6037,0.5942,0.604,0.6037,0.5912,0.6101,0.6173,0.6176,0.6276,0.63,0.63,0.63,0.7249,0.8765,0.9145,1.0231,1.153,1.1304,1.1921,1.2883,-1.7773,-1.7051,-1.623,-1.623,-1.5771,-1.541,-1.541,-1.541,-1.541,-1.541,-1.541,-1.541,-1.541,-1.541,-1.4962,-1.3855,-1.3362,-1.2812,-1.2078,-1.0766,-0.974,-0.9112,-0.9078,-0.9172,-0.9344,-0.9351,-0.9479,-0.9715,-0.9479,-0.9351,-0.9344,-0.9172,-0.9078,-0.9078,-0.9078,-0.9078,-0.9078,-0.8978,-0.8918,-0.8904,-0.8844,-0.8804,-0.8804,-0.8804,-0.848,-0.7937,-0.7208,-0.6514,-0.5811,-0.5077,-0.4717,-0.4644,-0.4674,-0.4724,-0.4782,-0.4887,-0.4887,-0.4887,-0.4887,-0.4874,-0.483,-0.483,-0.4951,-0.515,-0.5419,-0.5549,-0.5383,-0.458,-0.3591,-0.2614,-0.1672,-0.0682,0.0,0.0,0.0,0.0,0.0,0.0,0.0,0.0,0.0,0.0,0.0,0.0,0.0308,0.1057,0.0432,0.0943,0.304,0.4027,0.5094,0.6474,0.6559,0.6494,0.6303,0.63,0.6245,0.6105,0.6248,0.6245,0.6105,0.6252,0.63,0.63,0.63,0.63,0.6338,0.6644,0.7816,0.9441,0.9785,1.0975,1.2459,1.2072,1.2485,1.314,-1.8008,-1.8008,-1.8008,-1.8008,-1.6582,-1.543,-1.543,-1.543,-1.543,-1.541,-1.542,-1.543,-1.543,-1.543,-1.54,-1.5391,-1.5391,-1.4717,-1.31,-1.1185,-0.9993,-0.9729,-0.9715,-0.9715,-0.9715,-0.9715,-0.9715,-0.9722,-0.9715,-0.9715,-0.9715,-0.9715,-0.9715,-0.9715,-0.9715,-0.9715,-0.9666,-0.9344,-0.9217,-0.9191,-0.8904,-0.8818,-0.8818,-0.8818,-0.8811,-0.8705,-0.7969,-0.7362,-0.6756,-0.5826,-0.5232,-0.4864,-0.4741,-0.4799,-0.4894,-0.4894,-0.4894,-0.4894,-0.4894,-0.4999,-0.5103,-0.51,-0.5103,-0.5184,-0.5521,-0.5593,-0.5354,-0.4408,-0.3523,-0.258,-0.1491,-0.0583,0.0,0.0,0.0,0.0,0.0,0.0,0.0,0.0,0.0,0.0,0.0,0.0,0.0,0.0,0.0,0.0951,0.3194,0.3509,0.4498,0.6445,0.6624,0.6563,0.6306,0.6303,0.63,0.63,0.63,0.63,0.6303,0.6303,0.6303,0.6303,0.6303,0.6303,0.638,0.7407,0.8547,0.9781,1.0801,1.1505,1.2029,1.3177,1.3054,1.2504,-1.8252,-1.8008,-1.8008,-1.8008,-1.7578,-1.7236,-1.7236,-1.7236,-1.6797,-1.5576,-1.6475,-1.7236,-1.7236,-1.7236,-1.6457,-1.4507,-1.4993,-1.4234,-1.1514,-1.0781,-1.0419,-1.0332,-0.993,-0.978,-0.998,-0.9987,-1.0094,-1.0332,-1.0094,-0.9987,-0.998,-0.978,-0.9715,-0.9715,-0.9715,-0.9715,-0.9708,-0.9586,-0.9552,-0.9546,-0.9459,-0.9419,-0.9419,-0.9419,-0.9292,-0.9022,-0.851,-0.7699,-0.6805,-0.6196,-0.5515,-0.4897,-0.4951,-0.5179,-0.5389,-0.5389,-0.546,-0.5518,-0.5416,-0.5491,-0.5552,-0.5345,-0.5372,-0.5532,-0.583,-0.5898,-0.5641,-0.4717,-0.3747,-0.2716,-0.1686,-0.0701,0.0,0.0,0.0,0.0,0.0,0.0,0.0,0.0,0.0,0.0,0.0,0.0,0.0,0.0,0.0,0.104,0.3394,0.3569,0.4561,0.6709,0.6837,0.6766,0.6573,0.6405,0.63,0.63,0.63,0.6354,0.645,0.645,0.6508,0.6563,0.6497,0.6511,0.664,0.7676,0.8788,0.9967,1.1101,1.216,1.3136,1.3477,1.3572,1.3603,-1.835,-1.8008,-1.8008,-1.8008,-1.8008,-1.8008,-1.8008,-1.8008,-1.7637,-1.6582,-1.7353,-1.8008,-1.8008,-1.8008,-1.7345,-1.5675,-1.4273,-1.2687,-1.0713,-1.0593,-1.0593,-1.0593,-1.0251,-1.0144,-1.0287,-1.0294,-1.0412,-1.0593,-1.0412,-1.0294,-1.0287,-1.0144,-1.0064,-1.0064,-1.0064,-1.0064,-1.0057,-0.9907,-0.9853,-0.9846,-0.9733,-0.9715,-0.9715,-0.9715,-0.9573,-0.9382,-0.9115,-0.8217,-0.7086,-0.674,-0.5961,-0.5128,-0.5332,-0.5525,-0.5674,-0.5674,-0.5735,-0.5783,-0.5698,-0.5735,-0.5772,-0.5654,-0.565,-0.5735,-0.5939,-0.6078,-0.5854,-0.4969,-0.3912,-0.2853,-0.1852,-0.0775,0.0,0.0,0.0,0.0,0.0,0.0,0.0,0.0,0.0,0.0,0.0,0.0,0.0,0.0,0.0463,0.154,0.3506,0.4059,0.5109,0.6843,0.6886,0.6854,0.6702,0.6525,0.6474,0.6474,0.6474,0.6518,0.6563,0.6563,0.6614,0.6695,0.6603,0.658,0.6729,0.8256,0.9306,1.0196,1.1815,1.3018,1.3814,1.3814,1.3935,1.4088,-1.8545,-1.8115,-1.8008,-1.8008,-1.8008,-1.8008,-1.8008,-1.8008,-1.8008,-1.8008,-1.8008,-1.8008,-1.8008,-1.8008,-1.8008,-1.8008,-1.3565,-1.0747,-1.0747,-1.068,-1.064,-1.0633,-1.0633,-1.062,-1.0593,-1.0593,-1.0593,-1.0593,-1.0593,-1.0593,-1.0593,-1.0593,-1.0593,-1.0593,-1.0593,-1.0593,-1.0573,-1.0274,-1.0123,-1.0134,-0.9866,-0.9789,-0.9789,-0.9789,-0.973,-0.9642,-0.9757,-0.88,-0.7409,-0.7228,-0.6398,-0.5481,-0.5718,-0.581,-0.5823,-0.5823,-0.583,-0.584,-0.5827,-0.583,-0.5871,-0.5959,-0.5945,-0.5898,-0.6,-0.6179,-0.6045,-0.5092,-0.4045,-0.3016,-0.197,-0.0799,0.0,0.0,0.0,0.0,0.0,0.0,0.0,0.0,0.0,0.0,0.0,0.0,0.0,0.0,0.1118,0.2346,0.3518,0.4731,0.5887,0.6863,0.6906,0.6839,0.6742,0.6739,0.6725,0.6702,0.6702,0.6709,0.6722,0.6722,0.6729,0.6739,0.6725,0.6651,0.6741,0.9009,1.007,1.0442,1.2738,1.3848,1.4088,1.4088,1.4088,1.4088,-2.0126,-1.8936,-1.8008,-1.8008,-1.8008,-1.8008,-1.8008,-1.8008,-1.8008,-1.8008,-1.8008,-1.8008,-1.8008,-1.8008,-1.8008,-1.8008,-1.428,-1.1924,-1.1924,-1.1349,-1.0975,-1.0935,-1.0902,-1.0821,-1.0593,-1.0593,-1.0593,-1.0593,-1.0593,-1.0593,-1.0593,-1.0593,-1.0593,-1.0593,-1.0593,-1.0593,-1.0586,-1.0519,-1.0492,-1.0486,-1.0425,-1.0399,-1.0399,-1.0399,-0.9887,-0.9304,-1.0328,-0.9067,-0.6806,-0.6295,-0.5926,-0.5718,-0.5783,-0.5884,-0.5942,-0.5942,-0.6064,-0.6173,-0.6013,-0.6071,-0.6177,-0.6013,-0.6179,-0.6375,-0.6369,-0.6439,-0.6184,-0.5249,-0.4172,-0.3058,-0.2012,-0.081,0.0,0.0,0.0,0.0,0.0,0.0,0.0,0.0,0.0,0.0,0.0,0.0,0.0,0.0,0.1099,0.231,0.3548,0.4765,0.5927,0.7007,0.7051,0.7034,0.7001,0.7001,0.6929,0.6702,0.6702,0.6763,0.6836,0.6836,0.6896,0.6994,0.6883,0.6879,0.7159,0.9373,1.0391,1.073,1.3102,1.4035,1.4088,1.4088,1.4088,1.4088,-2.0605,-1.9881,-1.9228,-1.9228,-1.8555,-1.8008,-1.8008,-1.8252,-1.833,-1.8047,-1.8252,-1.832,-1.8037,-1.8008,-1.726,-1.5438,-1.344,-1.2225,-1.2037,-1.1608,-1.1315,-1.1209,-1.1196,-1.1129,-1.0975,-1.0969,-1.0868,-1.0593,-1.0593,-1.0593,-1.0593,-1.0734,-1.0727,-1.06,-1.0734,-1.072,-1.0593,-1.0593,-1.0673,-1.0801,-1.0801,-1.0881,-1.0969,-1.0969,-1.0329,-0.9532,-1.0211,-0.8927,-0.6791,-0.6111,-0.5911,-0.5922,-0.5996,-0.6074,-0.6139,-0.6139,-0.6235,-0.6296,-0.6244,-0.6302,-0.6399,-0.6352,-0.6464,-0.6563,-0.6528,-0.6169,-0.5868,-0.5939,-0.4201,-0.2638,-0.2636,-0.1181,0.0,0.0,0.0,0.0,0.0,0.0,0.0,0.0,0.0,0.0,0.0,0.0,0.0,0.0,0.1646,0.2948,0.357,0.5362,0.6616,0.7206,0.7251,0.7251,0.7251,0.7251,0.7136,0.6909,0.6909,0.691,0.6987,0.6987,0.7024,0.7092,0.7018,0.6991,0.7168,0.9548,1.0481,1.0757,1.3159,1.4088,1.4088,1.4088,1.4088,1.4088,-2.0605,-2.0605,-2.0605,-2.0605,-1.9394,-1.835,-1.8057,-1.8418,-1.8662,-1.8477,-1.8867,-1.8723,-1.7481,-1.732,-1.6077,-1.2863,-1.2605,-1.2438,-1.2015,-1.2024,-1.1855,-1.1555,-1.1542,-1.1495,-1.1395,-1.1389,-1.1189,-1.074,-1.074,-1.074,-1.0747,-1.0955,-1.0942,-1.0754,-1.0962,-1.0929,-1.074,-1.074,-1.0881,-1.1069,-1.1069,-1.1209,-1.1389,-1.1389,-1.0714,-0.9729,-0.9904,-0.8806,-0.709,-0.6321,-0.6067,-0.6091,-0.6259,-0.63,-0.6306,-0.6327,-0.6337,-0.6368,-0.6511,-0.6552,-0.6542,-0.6668,-0.6719,-0.6664,-0.6329,-0.5641,-0.5327,-0.6161,-0.3905,-0.2114,-0.3097,-0.1485,0.0,0.0,0.0,0.0,0.0,0.0,0.0,0.0,0.0,0.0,0.0,0.0,0.0,0.0,0.2248,0.364,0.3654,0.6051,0.7456,0.7456,0.7456,0.7456,0.7456,0.7456,0.7346,0.7173,0.7173,0.7146,0.7095,0.7095,0.7095,0.7095,0.7095,0.7031,0.7146,0.9593,1.0542,1.0684,1.3121,1.4088,1.4088,1.4088,1.4122,1.4162,-2.0605,-2.0605,-2.0605,-2.0605,-2.041,-1.9754,-1.8232,-1.8076,-1.8633,-2.0077,-2.0321,-1.8909,-1.5056,-1.4612,-1.4406,-1.3889,-1.3848,-1.3681,-1.3287,-1.326,-1.2939,-1.2211,-1.2184,-1.1944,-1.1402,-1.1389,-1.1349,-1.1275,-1.1275,-1.1275,-1.1275,-1.1315,-1.1349,-1.1275,-1.1315,-1.1349,-1.1275,-1.1275,-1.1295,-1.1335,-1.1335,-1.1355,-1.1389,-1.1389,-1.0365,-0.9078,-0.999,-0.9217,-0.7559,-0.6605,-0.6269,-0.6272,-0.6293,-0.63,-0.6323,-0.6446,-0.6484,-0.6518,-0.6627,-0.6668,-0.6675,-0.6695,-0.68,-0.659,-0.5531,-0.5208,-0.4891,-0.4215,-0.284,-0.1839,-0.2022,-0.092,0.0,0.0,0.0,0.0,0.0,0.0,0.0,0.0,0.0,0.0,0.0,0.0,0.0,0.0,0.2341,0.3789,0.3764,0.6183,0.7567,0.7567,0.7567,0.7567,0.7567,0.7567,0.7556,0.7539,0.7539,0.7397,0.7095,0.7095,0.7095,0.7095,0.7095,0.7085,0.7244,0.9648,1.059,1.0828,1.3197,1.4088,1.4088,1.4088,1.4249,1.4462,-2.0605,-2.0605,-2.0605,-2.0605,-2.0605,-2.0351,-1.9551,-1.917,-1.9355,-2.0468,-2.0605,-1.8939,-1.4573,-1.4088,-1.4088,-1.4088,-1.3888,-1.3641,-1.3353,-1.334,-1.318,-1.2826,-1.2812,-1.2685,-1.2425,-1.2425,-1.2425,-1.2425,-1.1715,-1.1389,-1.1395,-1.1597,-1.1583,-1.1395,-1.1597,-1.1583,-1.1389,-1.1389,-1.1523,-1.167,-1.167,-1.177,-1.1917,-1.1917,-1.0743,-0.8991,-0.836,-0.7655,-0.6999,-0.6573,-0.6474,-0.6508,-0.6508,-0.6508,-0.6519,-0.658,-0.66,-0.6634,-0.6787,-0.6827,-0.6848,-0.6926,-0.6486,-0.5738,-0.4523,-0.3753,-0.3336,-0.3541,-0.2094,-0.0987,-0.1691,-0.0799,0.0,0.0,0.0,0.0,0.0,0.0,0.0,0.0,0.0,0.0,0.0,0.0,0.0,0.0,0.2345,0.3809,0.3796,0.6278,0.7719,0.7719,0.7719,0.7719,0.7719,0.7719,0.7678,0.76,0.7682,0.756,0.7272,0.7272,0.7221,0.7139,0.7797,0.8105,0.8277,1.0605,1.1552,1.1729,1.3428,1.4088,1.4088,1.4088,1.4269,1.4522]},{"header":{"parameterUnit":"m.s-1","parameterCategory":1,"la1":30.6,"la2":28.766,"lo1":-90.7593,"lo2":-88.6598,"dy":0.0162,"dx":0.0183,"nx":116,"ny":114,"refTime":"2024-03-07T06:00:00:Z","depth":0,"parameterNumber":3,"parameterNumberName":"V-component_of_WINDS"},"data":[0.0,0.0,0.0,0.0,0.0,0.0,0.0,0.0,0.0,0.0,0.0,0.0,0.0,0.0,0.0,0.0,0.0,0.0,0.0,0.0,0.0,0.0,0.0,0.0,0.0,0.0,0.0,0.0,0.0,0.0,0.0,0.0,0.0,0.0,0.0,0.0,0.0,0.0,0.0,0.0,0.0,0.0,0.0,0.0,0.0,0.0,0.0,0.0,0.0,0.0,0.0,0.0,0.0,0.0,0.0,0.0,0.0,0.0,0.0,0.0,0.0,0.0,0.0,0.0,0.0,0.0,0.0,0.0,0.0,0.0,0.0,0.0,0.0,0.0,0.0,0.0,0.0,0.0,0.0,0.0,0.0,0.0,0.0,0.0,0.0,0.0,0.0,0.0,0.0,0.0,0.0,0.0,0.0,0.0,0.0,0.0,0.0,0.0,0.0,0.0,0.0,0.0,0.0,0.0,0.0,0.0,0.0,0.0,0.0,0.0,0.0,0.0,0.0,0.0,0.0,0.0,0.0,0.0,0.0,0.0,0.0,0.0,0.0,0.0,0.0,0.0,0.0,0.0,0.0,0.0,0.0,0.0,0.0,0.0,0.0,0.0,0.0,0.0,0.0,0.0,0.0,0.0,0.0,0.0,0.0,0.0,0.0,0.0,0.0,0.0,0.0,0.0,0.0,0.0,0.0,0.0,0.0,0.0,0.0,0.0,0.0,0.0,0.0,0.0,0.0,0.0,0.0,0.0,0.0,0.0,0.0,0.0,0.0,0.0,0.0,0.0,0.0,0.0,0.0,0.0,0.0,0.0,0.0,0.0,0.0,0.0,0.0,0.0,0.0,0.0,0.0,0.0,0.0,0.0,0.0,0.0,0.0,0.0,0.0,0.0,0.0,0.0,0.0,0.0,0.0,0.0,0.0,0.0,0.0,0.0,0.0,0.0,0.0,0.0,0.0,0.0,0.0,0.0,0.0,0.0,0.0,0.0,0.0,0.0,0.0,0.0,0.0,0.0,0.0,0.0,0.0,0.0,0.0,0.0,0.0,0.0,0.0,0.0,0.0,0.0,0.0,0.0,0.0,0.0,0.0,0.0,0.0,0.0,0.0,0.0,0.0,0.0,0.0,0.0,0.0,0.0,0.0,0.0,0.0,0.0,0.0,0.0,0.0,0.0,0.0,0.0,0.0,0.0,0.0,0.0,0.0,0.0,0.0,0.0,0.0,0.0,0.0,0.0,0.0,0.0,0.0,0.0,0.0,0.0,0.0,0.0,0.0,0.0,0.0,0.0,0.0,0.0,0.0,0.0,0.0,0.0,0.0,0.0,0.0,0.0,0.0,0.0,0.0,0.0,0.0,0.0,0.0,0.0,0.0,0.0,0.0,0.0,0.0,0.0,0.0,0.0,0.0,0.0,0.0,0.0,0.0,0.0,0.0,0.0,0.0,0.0,0.0,0.0,0.0,0.0,0.0,0.0,0.0,0.0,0.0,0.0,0.0,0.0,0.0,0.0,0.0,0.0,0.0,0.0,0.0,0.0,0.0,0.0,0.0,0.0,0.0,0.0,0.0,0.0,0.0,0.0,0.0,0.0,0.0,0.0,0.0,0.0,0.0,0.0,0.0,0.0,0.0,0.0,0.0,0.0,0.0,0.0,0.0,0.0,0.0,0.0,0.0,0.0,0.0,0.0,0.0,0.0,0.0,0.0,0.0,0.0,0.0,0.0,0.0,0.0,0.0,0.0,0.0,0.0,0.0,0.0,0.0,0.0,0.0,0.0,0.0,0.0,0.0,0.0,0.0,0.0,0.0,0.0,0.0,0.0,0.0,0.0,0.0,0.0,0.0,0.0,0.0,0.0,0.0,0.0,0.0,0.0,0.0,0.0,0.0,0.0,0.0,0.0,0.0,0.0,0.0,0.0,0.0,0.0,0.0,0.0,0.0,0.0,0.0,0.0,0.0,0.0,0.0,0.0,0.0,0.0,0.0,0.0,0.0,0.0,0.0,0.0,0.0,0.0,0.0,0.0,0.0,0.0,0.0,0.0,0.0,0.0,0.0,0.0,0.0,0.0,0.0,0.0,0.0,0.0,0.0,0.0,0.0,0.0,0.0,0.0,0.0,0.0,0.0,0.0,0.0,0.0,0.0,0.0,0.0,0.0,0.0,0.0,0.0,0.0,0.0,0.0,0.0,0.0,0.0,0.0,0.0,0.0,0.0,0.0,0.0,0.0,0.0,0.0,0.0,0.0,0.0,0.0,0.0,0.0,0.0,0.0,0.0,0.0,0.0,0.0,0.0,0.0,0.0,0.0,0.0,0.0,0.0,0.0,0.0,0.0,0.0,0.0,0.0,0.0,0.0,0.0,0.0,0.0,0.0,0.0,0.0,0.0,0.0,0.0,0.0,0.0,0.0,0.0,0.0,0.0,0.0,0.0,0.0,0.0,0.0,0.0,0.0,0.0,0.0,0.0,0.0,0.0,0.0,0.0,0.0,0.0,0.0,0.0,0.0,0.0,0.0,0.0,0.0,0.0,0.0,0.0,0.0,0.0,0.0,0.0,0.0,0.0,0.0,0.0,0.0,0.0,0.0,0.0,0.0,0.0,0.0,0.0,0.0,0.0,0.0,0.0,0.0,0.0,0.0,0.0,0.0,0.0,0.0,0.0,0.0,0.0,0.0,0.0,0.0,0.0,0.0,0.0,0.0,0.0,0.0,0.0,0.0,0.0,0.0,0.0,0.0,0.0,0.0,0.0,0.0,0.0,0.0,0.0,0.0,0.0,0.0,0.0,0.0,0.0,0.0,0.0,0.0,0.0,0.0,0.0,0.0,0.0,0.0,0.0,0.0,0.0,0.0,0.0,0.0,0.0,0.0,0.0,0.0,0.0,0.0,0.0,0.0,0.0,0.0,0.0,0.0,0.0,0.0,0.0,0.0,0.0,0.0,0.0,0.0,0.0,0.0,0.0,0.0,0.0,0.0,0.0,0.0,0.0,0.0,0.0,0.0,0.0,0.0,0.0,0.0,0.0,0.0,0.0,0.0,0.0,0.0,0.0,0.0,0.0,0.0,0.0,0.0,0.0,0.0,0.0,0.0,0.0,0.0,0.0,0.0,0.0,0.0,0.0,0.0,0.0,0.0,0.0,0.0,0.0,0.0,0.0,0.0,0.0,0.0,0.0,0.0,0.0,0.0,0.0,0.0,0.0,0.0,0.0,0.0,0.0,0.0,0.0,0.0,0.0,0.0,0.0,0.0,0.0,0.0,0.0,0.0,0.0,0.0,0.0,0.0,0.0,0.0,0.0,0.0,0.0,0.0,0.0,0.0,0.0,0.0,0.0,0.0,0.0,0.0,0.0,0.0,0.0,0.0,0.0,0.0,0.0,0.0,0.0,0.0,0.0,0.0,0.0,0.0,0.0,0.0,0.0,0.0,0.0,0.0,0.0,0.0,0.0,0.0,0.0,0.0,0.0,0.0,0.0,0.0,0.0,0.0,0.0,0.0,0.0,0.0,0.0,0.0,0.0,0.0,0.0,0.0,0.0,0.0,0.0,0.0,0.0,0.0,0.0,0.0,0.0,0.0,0.0,0.0,0.0,0.0,0.0,0.0,0.0,0.0,0.0,0.0,0.0,0.0,0.0,0.0,0.0,0.0,0.0,0.0,0.0,0.0,0.0,0.0,0.0,0.0,0.0,0.0,0.0,0.0,0.0,0.0,0.0,0.0,0.0,0.0,0.0,0.0,0.0,0.0,0.0,0.0,0.0,0.0,0.0,0.0,0.0,0.0,0.0,0.0,0.0,0.0,0.0,0.0,0.0,0.0,0.0,0.0,0.0,0.0,0.0,0.0,0.0,0.0,0.0,0.0,0.0,0.0,0.0,0.0,0.0,0.0,0.0,0.0,0.0,0.0,0.0,0.0,0.0,0.0,0.0,0.0,0.0,0.0,0.0,0.0,0.0,0.0,0.0,0.0,0.0,0.0,0.0,0.0,0.0,0.0,0.0,0.0,0.0,0.0,0.0,0.0,0.0,0.0,0.0,0.0,0.0,0.0,0.0,0.0,0.0,0.0,0.0,0.0,0.0,0.0,0.0,0.0,0.0,0.0,0.0,0.0,0.0,0.0,0.0,0.0,0.0,0.0,0.0,0.0,0.0,0.0,0.0,0.0,0.0,0.0,0.0,0.0,0.0,0.0,0.0,0.0,0.0,0.0,0.0,0.0,0.0,0.0,0.0,0.0,0.0,0.0,0.0,0.0,0.0,0.0,0.0,0.0,0.0,0.0,0.0,0.0,0.0,0.0,0.0,0.0,0.0,0.0,0.0,0.0,0.0,0.0,0.0,0.0,0.0,0.0,0.0,0.0,0.0,0.0,0.0,0.0,0.0,0.0,0.0,0.0,0.0,0.0,0.0,0.0,0.0,0.0,0.0,0.0,0.0,0.0,0.0,0.0,0.0,0.0,0.0,0.0,0.0,0.0,0.0,0.0,0.0,0.0,0.0,0.0,0.0,0.0,0.0,0.0,0.0,0.0,0.0,0.0,0.0,0.0,0.0,0.0,0.0,0.0,0.0,0.0,0.0,0.0,0.0,0.0,0.0,0.0,0.0,0.0,0.0,0.0,0.0,0.0,0.0,0.0,0.0,0.0,0.0,0.0,0.0,0.0,0.0,0.0,0.0,0.0,0.0,0.0,0.0,0.0,0.0,0.0,0.0,0.0,0.0,0.0,0.0,0.0,0.0,0.0,0.0,0.0,0.0,0.0,0.0,0.0,0.0,0.0,0.0,0.0,0.0,0.0,0.0,0.0,0.0,0.0,0.0,0.0,0.0,0.0,0.0,0.0,0.0,0.0,0.0,0.0,0.0,0.0,0.0,0.0,0.0,0.0,0.0,0.0,0.0,0.0,0.0,0.0,0.0,0.0,0.0,0.0,0.0,0.0,0.0,0.0,0.0,0.0,0.0,0.0,0.0,0.0,0.0,0.0,0.0,0.0,0.0,0.0,0.0,0.0,0.0,0.0,0.0,0.0,0.0,0.0,0.0,0.0,0.0,0.0,0.0,0.0,0.0,0.0,0.0,0.0,0.0,0.0,0.0,0.0,0.0,0.0,0.0,0.0,0.0,0.0,0.0,0.0,0.0,0.0,0.0,0.0,0.0,0.0,0.0,0.0,0.0,0.0,0.0,0.0,0.0,0.0,0.0,0.0,0.0,0.0,0.0,0.0,0.0,0.0,0.0,0.0,0.0,0.0,0.0,0.0,0.0,0.0,0.0,0.0,0.0,0.0,0.0,0.0,0.0,0.0,0.0,0.0,0.0,0.0,0.0,0.0,0.0,0.0,0.0,0.0,0.0,0.0,0.0,0.0,0.0,0.0,0.0,0.0,0.0,0.0,0.0,0.0,0.0,0.0,0.0,0.0,0.0,0.0,0.0,0.0,0.0,0.0,0.0,0.0,0.0,0.0,0.0,0.0,0.0,0.0,0.0,0.0,0.0,0.0,0.0,0.0,0.0,0.0,0.0,0.0,0.0,0.0,0.0,0.0,0.0,0.0,0.0,0.0,0.0,0.0,0.0,0.0,0.0,0.0,0.0,0.0,0.0,0.0,0.0,0.0,0.0,0.0,0.0,0.0,0.0,0.0,0.0,0.0,0.0,0.0,0.0,0.0,0.0,0.0,0.0,0.0,0.0,0.0,0.0,0.0,0.0,0.0,0.0,0.0,0.0,0.0,0.0,0.0,0.0,0.0,0.0,0.0,0.0,0.0,0.0,0.0,0.0,0.0,0.0,0.0,0.0,0.0,0.0,0.0,0.0,0.0,0.0,0.0,0.0,0.0,0.0,0.0,0.0,0.0,0.0,0.0,0.0,0.0,0.0,0.0,0.0,0.0,0.0,0.0,0.0,0.0,0.0,0.0,0.0,0.0,0.0,0.0,0.0,0.0,0.0,0.0,0.0,0.0,0.0,0.0,0.0,0.0,0.0,0.0,0.0,0.0,0.0,0.0,0.0,0.0,0.0,0.0,0.0,0.0,0.0,0.0,0.0,0.0,0.0,0.0,0.0,0.0,0.0,0.0,0.0,0.0,0.0,0.0,0.0,0.0,0.0,0.0,0.0,0.0,0.0,1.7782,0.0,0.0,0.0,0.0,0.0,0.0,0.0,0.0,0.0,0.0,0.0,0.0,0.0,0.0,0.0,0.0,0.0,0.0,0.0,0.0,0.0,0.0,0.0,0.0,0.0,0.0,0.0,0.0,0.0,0.0,0.0,0.0,0.0,0.0,0.0,0.0,0.0,2.9259,3.0033,2.9537,2.9253,2.9159,2.9545,2.9967,3.0442,0.0,0.0,0.0,0.0,0.0,0.0,0.0,0.0,0.0,0.0,0.0,0.0,0.0,0.0,0.0,0.0,0.0,0.0,0.0,0.0,0.0,0.0,0.0,0.0,0.0,0.0,0.0,0.0,0.0,0.0,0.0,0.0,0.0,0.0,0.0,0.0,0.0,0.0,0.0,0.0,0.0,0.0,0.0,0.0,0.0,0.0,0.0,0.0,0.0,0.0,0.0,0.0,0.0,0.0,0.0,0.0,0.0,0.0,0.0,0.0,0.0,0.0,0.0,0.0,0.0,0.0,0.0,0.0,0.0,0.0,0.0,1.8823,0.0,0.0,0.0,0.0,0.0,0.0,0.0,0.0,0.0,0.0,0.0,0.0,0.0,0.0,0.0,0.0,0.0,0.0,0.0,0.0,0.0,0.0,0.0,2.5766,2.6211,2.6934,2.7148,2.7598,0.0,0.0,0.0,0.0,0.0,2.9082,2.9805,2.9804,2.9985,3.0411,2.9863,2.9645,2.98,3.0942,3.1423,3.1327,3.2122,0.0,0.0,0.0,0.0,0.0,0.0,0.0,0.0,0.0,0.0,0.0,0.0,0.0,0.0,0.0,0.0,0.0,0.0,0.0,0.0,0.0,0.0,0.0,0.0,0.0,0.0,0.0,0.0,0.0,0.0,0.0,0.0,0.0,0.0,0.0,0.0,0.0,0.0,0.0,0.0,0.0,0.0,0.0,0.0,0.0,0.0,0.0,0.0,0.0,0.0,0.0,0.0,0.0,0.0,0.0,0.0,0.0,0.0,0.0,0.0,0.0,0.0,0.0,0.0,2.2201,2.1479,2.1558,2.1428,2.1162,2.0262,1.9981,2.0247,0.0,0.0,0.0,0.0,0.0,0.0,0.0,0.0,0.0,0.0,0.0,0.0,0.0,0.0,0.0,0.0,0.0,0.0,0.0,0.0,0.0,0.0,2.6293,2.6875,2.6992,2.7695,2.8496,2.9375,0.0,2.9766,3.0527,3.0566,3.0605,3.0723,3.0616,3.027,2.9658,3.0124,3.1067,3.2449,3.4776,3.55,3.4712,3.1962,3.1968,3.3975,0.0,0.0,0.0,0.0,0.0,0.0,0.0,0.0,0.0,0.0,0.0,0.0,0.0,0.0,0.0,0.0,0.0,0.0,0.0,0.0,0.0,0.0,0.0,0.0,0.0,0.0,0.0,0.0,0.0,0.0,0.0,0.0,0.0,0.0,0.0,0.0,0.0,0.0,0.0,0.0,0.0,2.2657,2.3005,0.0,0.0,0.0,0.0,0.0,0.0,0.0,0.0,0.0,0.0,0.0,0.0,0.0,0.0,2.4051,2.4152,2.3898,2.3272,2.3608,2.3367,2.2595,2.2952,2.3425,2.3963,2.3832,0.0,2.0844,2.1693,0.0,0.0,0.0,0.0,0.0,0.0,0.0,0.0,0.0,0.0,0.0,0.0,0.0,0.0,0.0,0.0,0.0,0.0,0.0,0.0,0.0,2.7141,2.793,2.8418,3.0117,3.0937,3.0371,3.168,3.1992,3.0957,3.0898,3.0898,3.0898,3.077,3.0728,3.0788,3.2484,3.3665,3.4404,3.6469,3.7238,3.6815,3.4827,3.4308,3.4911,3.4526,0.0,0.0,0.0,0.0,0.0,0.0,0.0,0.0,0.0,0.0,0.0,0.0,0.0,0.0,0.0,0.0,0.0,0.0,0.0,0.0,0.0,0.0,0.0,0.0,0.0,0.0,0.0,0.0,0.0,0.0,0.0,0.0,0.0,0.0,0.0,0.0,0.0,0.0,0.0,2.3397,2.353,2.2679,2.3354,2.3575,0.0,0.0,0.0,0.0,0.0,0.0,0.0,0.0,0.0,2.4611,2.5033,2.5422,2.5743,2.5743,2.5717,2.5635,2.5369,2.5177,2.5041,2.4768,2.4932,2.5404,2.5404,2.4651,2.3423,2.341,2.2776,2.1885,0.0,0.0,0.0,0.0,0.0,2.098,0.0,0.0,0.0,0.0,0.0,0.0,0.0,0.0,0.0,0.0,0.0,0.0,2.7182,2.8473,2.9648,3.0508,3.2305,3.2871,3.1621,3.2695,3.2656,3.0976,3.0898,3.0879,3.0857,3.0942,3.166,3.3053,3.5136,3.6462,3.7154,3.8834,3.9508,3.9296,3.8834,3.795,3.6719,3.5635,3.4795,3.4122,0.0,0.0,0.0,0.0,0.0,0.0,0.0,0.0,0.0,0.0,0.0,0.0,0.0,0.0,0.0,0.0,0.0,0.0,0.0,0.0,0.0,0.0,0.0,0.0,0.0,0.0,0.0,0.0,0.0,0.0,0.0,0.0,0.0,0.0,0.0,0.0,0.0,2.41,2.4311,2.2696,2.4064,2.4518,0.0,0.0,0.0,0.0,0.0,0.0,2.4383,2.5065,2.576,2.6502,2.7051,2.7429,2.7618,2.7618,2.7795,2.8154,2.7636,2.7558,2.7835,2.7323,2.7114,2.7162,2.7162,2.6713,2.5931,2.5034,2.3801,2.2571,2.3043,2.3007,2.2657,2.2393,2.2104,2.1913,0.0,0.0,0.0,0.0,0.0,0.0,0.0,0.0,0.0,0.0,0.0,2.6283,2.7947,3.0446,3.2324,3.3144,3.332,3.3359,3.3281,3.1133,3.0176,3.0879,3.0898,3.0837,3.0718,3.1391,3.3285,3.6456,3.7411,3.9104,4.1519,4.3201,4.3585,4.2874,4.3605,4.2547,3.9996,3.5975,3.5603,3.7469,3.4218,0.0,0.0,0.0,0.0,0.0,0.0,0.0,0.0,0.0,0.0,0.0,0.0,0.0,0.0,0.0,0.0,0.0,0.0,0.0,0.0,0.0,0.0,0.0,0.0,0.0,0.0,0.0,0.0,0.0,0.0,0.0,0.0,0.0,0.0,0.0,0.0,0.0,0.0,2.3718,2.57,0.0,0.0,0.0,0.0,2.4884,2.5634,2.6422,2.7154,2.7656,2.8273,2.9008,2.9047,2.9405,3.0105,3.0123,3.0123,3.0153,3.0507,3.0676,3.0703,3.0969,3.0699,2.9984,2.9984,2.9115,2.7548,2.5986,2.4678,2.3732,2.4831,2.4404,2.3294,2.4332,2.403,2.3106,0.0,0.0,0.0,0.0,0.0,0.0,0.0,0.0,2.5428,2.5526,2.7033,2.8794,3.0583,3.2597,3.4375,3.5781,3.5918,3.543,3.4316,3.3398,3.2773,3.2519,3.1927,3.206,3.3002,3.3814,3.5595,3.8373,4.0335,4.2008,4.3431,4.4586,4.4979,4.471,4.4412,4.3797,4.2701,3.9034,3.7353,3.6969,3.4661,3.4064,0.0,0.0,0.0,0.0,0.0,0.0,0.0,0.0,0.0,0.0,0.0,0.0,0.0,0.0,0.0,0.0,0.0,0.0,0.0,0.0,0.0,0.0,0.0,0.0,0.0,0.0,0.0,0.0,0.0,0.0,0.0,0.0,0.0,0.0,0.0,0.0,0.0,2.783,2.9552,0.0,2.9097,2.8972,2.8644,2.783,2.8534,2.9101,2.9321,3.0432,3.1169,3.1389,3.2348,3.2493,3.1719,3.223,3.2375,3.2155,3.1805,3.1741,3.1986,3.1572,3.125,3.0962,3.0962,3.065,3.0001,2.8374,2.687,2.5614,2.6012,2.5855,2.5437,2.5845,2.575,2.539,0.0,0.0,0.0,0.0,0.0,0.0,0.0,0.0,2.5506,2.5595,2.7896,3.0327,3.2383,3.4902,3.7031,3.8496,3.7812,3.668,3.5234,3.3789,3.2832,3.2497,3.2391,3.3082,3.47,3.6115,3.8073,4.0585,4.2547,4.3932,4.4739,4.5325,4.5594,4.5575,4.4998,4.4739,4.4566,4.2047,3.9815,3.7815,3.5834,3.5738,3.6507,0.0,0.0,0.0,0.0,0.0,0.0,0.0,0.0,0.0,0.0,0.0,0.0,0.0,0.0,0.0,0.0,0.0,0.0,0.0,0.0,0.0,0.0,0.0,0.0,0.0,0.0,0.0,0.0,0.0,0.0,0.0,0.0,0.0,0.0,0.0,3.0146,3.0919,3.2926,3.3822,3.2704,3.2321,3.1762,3.0918,3.147,3.1945,3.2151,3.3263,3.3885,3.3854,3.4826,3.4864,3.3791,3.4024,3.404,3.3789,3.2976,3.2739,3.2986,3.2449,3.2045,3.1806,3.1806,3.1654,3.1323,3.0246,2.9182,2.8136,2.7328,2.6998,2.6998,2.6998,2.6998,2.6979,0.0,0.0,0.0,0.0,0.0,0.0,0.0,2.5558,2.5602,2.5642,2.8004,3.0664,3.3242,3.7344,4.0254,4.1152,3.8769,3.6875,3.6055,3.1973,2.9957,3.077,3.2264,3.392,3.5709,3.8124,4.0604,4.3143,4.3951,4.4759,4.5594,4.5594,4.5594,4.5594,4.5594,4.5594,4.5537,4.4701,4.2912,4.0439,3.7853,3.7815,3.9034,0.0,0.0,0.0,0.0,0.0,0.0,0.0,0.0,0.0,0.0,0.0,0.0,0.0,0.0,0.0,0.0,0.0,0.0,0.0,0.0,0.0,0.0,0.0,0.0,0.0,0.0,0.0,0.0,0.0,0.0,0.0,0.0,0.0,2.79,3.0693,3.2729,3.2821,3.5661,3.6582,3.3927,3.4292,3.454,3.413,3.4456,3.4971,3.5664,3.613,3.6358,3.634,3.6358,3.634,3.6303,3.5463,3.5041,3.5004,3.4211,3.3825,3.3807,3.3825,3.3403,3.2638,3.2638,3.221,3.147,3.1452,3.1452,3.1213,2.8845,2.7897,2.786,2.786,2.7871,2.7732,0.0,0.0,0.0,0.0,0.0,0.0,2.5566,2.5595,2.5844,2.6521,2.9453,3.2695,3.5879,3.8437,4.0488,4.1933,3.7988,3.5586,3.5976,3.1948,3.0652,3.3196,3.4318,3.6228,3.91,4.0435,4.2047,4.397,4.4816,4.5364,4.5594,4.5594,4.5594,4.5594,4.5594,4.5594,4.5575,4.5344,4.4844,4.3921,4.0746,3.94,3.915,0.0,0.0,0.0,0.0,0.0,0.0,0.0,0.0,0.0,0.0,0.0,0.0,0.0,0.0,0.0,0.0,0.0,0.0,0.0,0.0,0.0,0.0,0.0,0.0,0.0,0.0,0.0,0.0,0.0,0.0,0.0,0.0,3.1186,3.128,3.3387,3.5659,3.7664,3.9221,4.0033,3.9877,3.9497,3.8992,3.8291,3.8353,3.8238,3.7857,3.7967,3.7771,3.7199,3.7734,3.7477,3.6303,3.6064,3.5642,3.5004,3.4784,3.4362,3.3825,3.4399,3.4234,3.3476,3.3476,3.3348,3.3091,3.2504,3.2284,3.2155,3.0889,3.0044,2.9531,2.9531,2.9182,2.8712,0.0,0.0,0.0,0.0,0.0,0.0,2.5088,2.5402,2.5835,2.6387,3.0098,3.3594,3.5957,3.8418,4.0293,4.1269,3.7266,3.4629,3.4414,3.1966,3.165,3.4182,3.614,3.8363,4.0997,4.2239,4.3508,4.4836,4.5344,4.5594,4.5594,4.5594,4.5594,4.5594,4.5594,4.5806,4.6144,4.6144,4.6144,4.599,4.4355,4.297,4.1728,3.9785,3.9508,3.9912,3.8219,3.8558,3.938,3.6385,0.0,0.0,0.0,0.0,0.0,0.0,0.0,0.0,0.0,0.0,0.0,0.0,0.0,0.0,0.0,0.0,0.0,0.0,0.0,0.0,0.0,0.0,0.0,0.0,3.2467,3.4633,3.5977,3.6939,3.8368,4.0636,4.1625,4.2286,4.2763,4.2066,4.1423,4.0928,4.0267,3.9698,3.9239,3.8891,3.8634,3.8521,3.8634,3.8414,3.7808,3.7144,3.6541,3.6046,3.5701,3.5298,3.4853,3.4949,3.4747,0.0,3.4289,3.4119,3.3788,3.3647,3.361,0.0,0.0,0.0,0.0,0.0,3.0705,3.0081,0.0,0.0,0.0,0.0,0.0,0.0,2.4375,2.5059,2.5625,2.582,3.0176,3.3555,3.4336,3.7441,3.9453,3.9453,3.6289,3.3672,3.2264,3.2179,3.2978,3.4795,3.7885,4.0373,4.2047,4.3643,4.4816,4.5594,4.5594,4.5594,4.5594,4.5594,4.5652,4.5748,4.5748,4.622,4.7038,4.7038,4.7038,4.7096,4.7817,4.7105,4.5287,4.2343,4.2124,4.3143,4.142,4.0372,3.9613,3.8343,0.0,0.0,0.0,0.0,0.0,0.0,0.0,0.0,0.0,0.0,0.0,0.0,0.0,0.0,0.0,0.0,0.0,0.0,0.0,0.0,0.0,0.0,0.0,0.0,3.5679,3.7863,4.082,4.0708,4.0836,4.2268,4.3057,4.3515,4.3515,4.2837,4.2433,4.2433,4.102,4.0157,4.0157,0.0,0.0,0.0,0.0,3.9239,3.9753,3.8355,3.7584,3.7492,3.6795,3.6376,3.6266,3.5591,3.5224,3.5151,3.5151,3.4729,3.4137,3.4839,3.5151,3.4931,3.2577,3.2045,3.2583,3.2491,3.2063,0.0,0.0,0.0,0.0,0.0,0.0,0.0,2.4297,2.4531,2.5156,2.6562,3.0078,3.25,3.2676,3.5117,3.6758,3.6758,3.3613,3.173,3.1943,3.3187,3.5238,3.8199,4.0254,4.2104,4.3778,4.4816,4.5441,4.5594,4.5594,4.5594,4.5594,4.5594,4.597,4.6644,4.6644,4.7105,4.7875,4.7875,4.7875,4.7875,4.8048,4.7105,4.5594,4.5643,4.5432,4.4902,4.3201,4.3771,4.4802,4.1152,4.0881,4.1537,3.8728,3.5988,0.0,0.0,0.0,0.0,0.0,0.0,0.0,0.0,0.0,0.0,0.0,0.0,0.0,0.0,0.0,0.0,0.0,0.0,0.0,3.6336,3.8689,4.0618,4.1901,4.2488,4.2927,4.3222,4.3423,4.3515,4.3515,4.3368,4.3276,4.3276,4.2378,4.1846,4.1846,4.1075,0.0,3.9918,4.0377,4.0086,3.8946,3.8615,3.8138,3.7492,0.0,0.0,3.6321,3.6813,3.6652,3.6046,3.6046,3.5954,3.5826,3.5973,3.6046,3.5862,3.4045,3.3036,3.2509,3.1861,3.1935,3.2375,0.0,0.0,0.0,0.0,0.0,0.0,2.3633,2.4121,2.4863,2.6172,2.9004,3.0898,3.0898,3.2422,3.3457,3.3457,3.1094,3.0267,3.1846,3.3957,3.6627,3.9957,4.2115,4.3833,4.5067,4.5532,4.5736,4.57,4.57,4.5665,4.5594,4.5594,4.5825,4.6278,4.6721,4.7355,4.8125,4.8567,4.8759,4.8798,4.9221,4.8644,4.749,4.7509,4.724,4.674,4.5893,4.5874,4.5913,4.3767,4.2877,4.2307,4.0323,3.8298,3.6202,0.0,0.0,0.0,0.0,0.0,0.0,0.0,0.0,0.0,0.0,0.0,0.0,0.0,0.0,3.0338,3.2797,0.0,3.645,3.8891,4.0653,4.1992,4.2782,4.324,4.3515,4.3515,4.3515,4.3515,4.3515,4.3515,4.3515,4.3515,4.2745,4.2304,4.2304,4.1535,4.1111,4.1093,4.1111,4.0912,4.0506,4.0086,3.9698,3.9294,3.9294,3.8872,3.8102,3.8102,3.7661,3.6905,3.6905,3.6684,3.6321,3.674,3.6666,3.6248,3.5807,3.5165,3.4394,3.399,3.41,3.4449,0.0,0.0,0.0,0.0,0.0,0.0,0.0,2.3613,2.4473,2.5332,2.7715,2.9219,2.8887,2.9766,3.0332,3.0156,2.9473,3.0115,3.2609,3.5194,3.8134,4.1485,4.3751,4.5242,4.5879,4.5899,4.5872,4.5828,4.5816,4.5747,4.5635,4.5612,4.5768,4.6133,4.6817,4.7682,4.8644,4.9356,4.9644,4.9721,5.0587,5.0414,4.9586,4.9048,4.874,4.8586,4.8413,4.7163,4.5633,4.5806,4.4017,4.1674,4.1333,4.0306,3.8575,3.5277,3.5214,0.0,0.0,0.0,0.0,0.0,0.0,0.0,0.0,0.0,3.0436,3.1421,3.2118,3.349,3.645,3.7658,3.8927,4.1203,4.2121,4.2763,4.3423,4.3515,4.3515,4.3515,4.3515,4.3515,4.3515,4.3515,4.3515,4.3515,4.2892,4.2525,4.2525,4.1919,4.1791,4.2286,4.1827,4.1735,4.2066,4.1572,4.1242,4.1095,4.1095,4.0763,4.0102,3.946,3.8817,3.8208,3.8208,3.7826,3.7276,3.7933,3.7823,3.7276,3.7768,3.7566,3.6927,3.6468,3.6395,3.6505,0.0,0.0,0.0,0.0,0.0,0.0,0.0,0.0,2.3633,2.4434,2.6816,2.7851,2.6309,2.7617,2.8281,2.75,3.0098,3.2828,3.5293,3.7862,4.0764,4.4121,4.5222,4.5802,4.5899,4.5899,4.5894,4.59,4.5832,4.579,4.5789,4.5668,4.6394,4.7817,4.7932,4.8875,5.0423,5.0519,5.0558,5.0635,5.1452,5.1279,5.0616,5.1241,5.1029,5.0308,4.9529,4.7682,4.5729,4.649,4.503,4.3022,4.3682,4.2753,4.0888,3.7997,3.5715,3.3567,3.1002,2.985,2.9684,3.0834,3.114,3.1874,0.0,0.0,3.4784,3.6372,3.6758,3.7364,3.9182,4.0157,4.1258,4.2947,4.3296,4.3387,4.3496,4.3515,4.3515,4.3515,4.3515,4.3515,4.3515,4.3515,4.3515,4.3515,4.3423,4.3369,4.3369,4.3277,4.2947,4.2323,4.291,4.2598,4.1242,4.1864,4.1809,4.1095,4.1095,4.104,4.0948,4.0857,4.0783,4.0691,4.0691,4.0636,4.0563,4.0655,4.0636,4.049,3.9882,3.9585,3.9239,3.7092,3.6758,3.7254,0.0,0.0,0.0,0.0,0.0,0.0,0.0,0.0,0.0,2.4355,2.5781,2.6504,2.5781,2.6348,2.6641,2.6289,2.8496,3.123,3.425,3.7335,4.0572,4.3975,4.542,4.6122,4.6122,4.663,4.685,4.6768,4.724,4.7403,4.7255,4.7197,4.7494,4.8125,4.8625,4.9529,5.0731,5.1202,5.1683,5.2145,5.1962,5.1692,5.1337,5.0683,4.9625,4.8375,4.749,4.5874,0.0,4.3989,4.3566,4.3162,4.3508,4.3124,4.1802,3.8012,3.6781,3.6188,3.4027,3.2304,3.1372,3.2504,3.3532,3.4596,3.5991,3.6376,3.6909,3.8576,3.9258,4.0084,4.1715,4.2268,4.2708,0.0,4.3515,4.3515,4.3515,4.3515,4.3331,4.2855,4.3221,4.3515,4.3515,4.3515,4.3515,4.3515,4.3515,4.3515,4.3515,4.3515,4.3349,4.3002,4.3331,4.3167,4.2506,4.2818,4.2818,4.2506,4.2506,4.2249,4.1809,4.1809,4.1535,4.1095,4.1095,4.1095,4.1095,4.1095,4.1095,4.1058,4.0728,4.0304,3.9717,3.8248,3.79,3.8138,0.0,0.0,0.0,0.0,0.0,0.0,0.0,0.0,0.0,0.0,2.5156,2.5703,2.5703,2.5703,2.5703,2.5703,2.7285,2.9668,3.2851,3.6328,3.9766,4.3183,4.5019,4.6055,4.6289,4.6914,4.7185,4.7107,4.7699,4.8006,4.8044,4.7973,4.8145,4.8551,4.9134,5.001,5.1068,5.1654,5.225,5.2799,5.2154,5.1615,5.101,4.9086,4.7317,4.5778,4.5143,4.3508,4.1604,4.0969,4.0854,4.1085,4.1546,4.1681,4.1003,3.7515,3.683,3.6899,3.5315,3.3944,3.328,3.478,3.6229,3.7459,3.812,3.8741,3.9549,4.0928,4.1515,4.2121,4.3277,4.3515,4.3515,4.3515,4.3515,4.3515,4.3515,4.3296,4.2947,4.2378,4.2616,4.2928,4.3149,4.3369,4.3515,4.3515,4.3515,4.3515,4.3515,4.3515,4.3515,4.3515,4.3515,4.3515,4.3515,4.3515,4.3515,4.3515,4.3515,4.3185,4.2635,4.2635,4.2304,4.1772,4.1772,4.1772,4.1772,4.1772,4.1772,4.1754,4.1517,4.1075,4.0432,3.9405,3.8891,3.8707,0.0,0.0,0.0,0.0,0.0,0.0,0.0,0.0,0.0,0.0,0.0,0.0,0.0,2.5703,2.5703,2.5703,2.7285,2.9414,3.2051,3.5449,3.8867,4.2285,4.4101,4.5449,4.6289,4.6328,4.6348,4.6328,4.623,4.6616,4.7411,4.7157,4.7932,4.9558,4.9446,5.0317,5.1865,5.1885,5.1923,5.1942,5.1904,5.0933,4.9202,4.6691,4.4662,4.3201,4.3181,4.1008,3.8142,3.8123,3.7046,3.6,3.7642,3.8142,3.7969,3.6981,3.5204,3.3535,3.3407,3.3564,3.4523,3.7753,3.9184,4.0396,4.2762,4.3313,4.3534,4.4378,4.3956,4.3441,4.3496,4.3515,4.3515,4.3515,4.3515,4.3515,4.3515,4.2818,4.2323,4.2304,4.1627,4.148,0.0,4.3039,4.3515,4.3515,4.3515,4.3515,4.3515,4.3515,4.3515,4.3515,4.3515,4.3515,4.3515,4.3515,4.3515,4.3515,4.3515,4.3496,4.346,4.346,4.346,4.3441,4.3441,4.3441,4.3441,4.3441,4.3441,4.3349,4.2561,4.2249,4.2047,4.0451,3.9368,3.8707,0.0,0.0,0.0,0.0,0.0,0.0,0.0,0.0,0.0,0.0,0.0,0.0,0.0,0.0,0.0,0.0,2.6777,2.8301,3.0332,3.3672,3.6601,3.8926,4.1758,4.3672,4.4551,4.5703,4.6582,4.7168,4.7693,4.8052,4.8252,4.8162,4.869,4.9732,4.9692,5.0555,5.1998,5.1457,5.1487,5.176,5.0167,4.9164,4.8276,4.4602,4.1815,3.9548,0.0,3.5949,3.5315,3.4199,3.418,3.4737,3.5295,3.5475,3.5315,3.443,3.3789,3.3588,3.4728,3.6025,3.7569,3.9738,4.1295,4.2635,4.3993,4.4305,4.4213,4.3956,4.2837,4.1919,4.1919,4.1919,4.1919,4.1919,4.28,4.3515,4.3515,4.3276,4.269,4.1627,4.1754,0.0,0.0,0.0,0.0,4.346,4.3515,4.3515,4.3515,4.3515,4.3515,4.3515,4.3515,4.3515,4.3515,4.3515,4.3614,4.3833,4.4091,4.4223,4.4209,4.3958,4.3818,4.382,4.3597,4.3515,4.3513,4.3742,4.3693,4.3495,4.3463,4.2973,4.2231,4.168,4.0983,4.0215,0.0,0.0,0.0,0.0,0.0,0.0,0.0,0.0,0.0,0.0,0.0,0.0,0.0,0.0,0.0,0.0,0.0,2.7148,2.8574,3.1309,3.3652,3.5391,3.8164,4.0059,4.0937,4.2051,4.2891,4.3457,4.4648,4.5329,4.5563,4.611,4.6953,4.802,4.8287,4.9304,5.0765,4.9931,4.9461,4.9079,4.6621,4.5067,4.3808,3.9879,3.7355,0.0,3.2309,3.1682,3.2205,3.1121,3.1698,3.2833,3.2833,3.3256,3.3686,3.343,3.3772,3.4833,3.7518,3.8996,4.0411,4.3011,4.4231,4.4976,4.5776,4.5261,4.4378,4.3451,4.1944,4.0714,4.044,4.0071,4.0024,4.0701,4.1358,4.2084,4.2947,4.2818,4.2378,4.1625,4.1735,4.1791,0.0,0.0,0.0,4.3441,4.3515,4.3515,4.3515,4.3515,4.3515,4.3515,4.3515,4.3565,4.3679,4.3695,4.3868,4.4219,4.4474,4.4593,4.458,4.4318,4.4204,4.419,4.3836,4.3695,4.3712,4.3909,4.3881,4.3693,4.3927,4.355,4.2851,4.2446,4.2158,4.1809,0.0,0.0,0.0,0.0,0.0,0.0,0.0,0.0,0.0,0.0,0.0,0.0,0.0,0.0,0.0,0.0,0.0,0.0,2.6875,2.8574,3.0273,3.1934,3.3652,3.498,3.5859,3.5918,3.5957,3.5996,3.7656,3.8887,3.9726,4.1205,4.278,4.446,4.5149,4.6397,4.7928,4.7043,4.5726,4.3991,4.1481,3.8986,3.6418,3.3099,3.1774,3.1342,2.8827,2.8415,2.905,2.9088,2.9717,3.0462,3.0519,3.1673,3.3218,3.4129,3.5266,3.7165,4.1411,4.227,4.2983,4.7236,4.7631,4.7202,4.7961,4.6218,4.4095,4.294,4.1292,3.983,0.0,0.0,3.8048,3.9886,3.9449,3.9698,4.2029,4.1699,4.148,0.0,0.0,0.0,0.0,0.0,0.0,4.357,0.0,4.3551,4.3515,4.3569,4.3586,4.3531,4.3548,4.371,4.4031,4.4043,4.4247,4.4637,4.4631,4.4644,4.4644,4.4631,4.4637,4.4593,4.4204,4.4028,4.4028,4.4043,4.4061,4.4028,4.4028,4.4031,4.3862,4.2765,4.2837,4.3277,0.0,0.0,0.0,0.0,0.0,0.0,0.0,0.0,0.0,0.0,0.0,0.0,0.0,0.0,0.0,0.0,0.0,0.0,2.6016,2.7656,2.8828,2.9277,3.1562,3.3223,3.4043,3.4707,3.5351,3.5996,3.6445,3.6777,3.6992,3.74,3.816,3.9214,3.9402,4.0038,4.0919,4.0045,3.9353,3.8694,3.6842,3.5705,3.4806,3.2057,3.058,2.9739,2.769,2.7498,2.8299,2.8896,3.0102,3.1468,3.2064,3.3449,3.5135,3.6603,3.8825,4.121,4.2987,4.4566,4.6142,4.7857,4.7631,4.7051,4.7259,4.5351,4.31,4.163,3.8995,3.6681,3.5833,0.0,0.0,3.8251,4.0084,0.0,4.302,4.302,0.0,4.2359,0.0,4.2965,4.3167,4.3185,0.0,0.0,4.4727,4.4121,4.3533,4.4315,4.4477,4.3899,4.4165,4.4364,4.4447,4.4688,4.4865,4.4985,4.5232,4.5352,4.5342,4.5085,4.4966,4.4943,4.4606,4.4447,4.4474,4.472,4.4663,4.4447,4.4447,4.4261,4.3918,4.3391,4.3331,4.3441,0.0,0.0,0.0,0.0,0.0,0.0,0.0,0.0,0.0,0.0,0.0,0.0,0.0,0.0,0.0,0.0,0.0,0.0,0.0,2.6406,2.7168,2.7168,2.8555,2.9551,3.0019,3.0508,3.0996,3.1484,3.2246,3.2617,3.2637,3.3398,3.4238,3.5078,3.543,3.6032,3.6717,3.5841,3.5002,0.0,0.0,3.1327,3.0486,2.9014,2.813,2.7554,2.6467,2.7089,2.8665,3.0242,3.141,3.2506,3.4064,3.5757,3.7565,3.9623,4.1578,4.3543,4.5684,4.7049,4.803,4.8629,4.8138,4.7098,4.5609,4.3588,4.132,3.8809,3.6498,3.4661,3.3791,3.4386,3.5547,0.0,0.0,0.0,4.3203,4.3515,4.3589,0.0,4.4268,0.0,4.4544,4.4715,4.5184,0.0,4.5255,4.4576,4.4264,4.4843,4.4912,4.4285,4.4487,4.467,4.4825,4.515,4.5322,4.5322,4.5504,4.5594,4.5586,4.541,4.5322,4.5302,0.0,4.4825,4.4837,4.5011,4.4977,4.4793,4.4644,4.446,4.4209,4.3695,4.3597,4.3726,0.0,0.0,0.0,0.0,0.0,0.0,0.0,0.0,0.0,0.0,0.0,0.0,0.0,0.0,0.0,0.0,0.0,0.0,0.0,0.0,2.5352,2.5371,2.5469,2.5527,2.5527,2.5644,2.5703,2.5703,2.7207,2.7949,2.7988,2.9492,3.0605,3.1367,3.207,3.2793,3.3457,3.2695,3.1543,3.0078,2.8555,2.7051,2.5683,0.0,2.5552,2.552,2.5536,2.6939,2.9204,3.2102,3.3218,3.3853,3.6411,3.8469,4.0419,4.2739,4.3953,4.5241,4.851,4.9273,4.9174,4.9365,4.8663,4.7086,4.3835,4.1585,3.9181,3.5703,3.4192,3.3249,3.2382,3.2609,3.3833,3.6625,0.0,3.9172,4.3159,4.3761,4.4332,4.5736,4.6102,4.621,4.6139,4.6496,4.6788,4.6887,4.584,4.5218,4.5273,4.5424,4.5256,4.4758,4.4732,4.4884,4.515,4.5448,4.5594,4.5594,4.5594,4.5594,4.5594,4.5594,4.5594,4.5577,0.0,0.0,4.5169,4.5169,4.5169,4.5118,4.4745,4.4593,4.4501,4.3758,4.3677,4.3924,0.0,0.0,0.0,0.0,0.0,0.0,0.0,0.0,0.0,0.0,2.3105,2.2891,0.0,0.0,0.0,0.0,0.0,0.0,0.0,0.0,0.0,2.3633,2.4277,2.4629,2.4629,2.5332,2.5703,2.5703,2.5996,2.6152,2.6152,2.6465,2.668,2.6836,2.6973,2.7129,2.7246,2.7109,2.6875,2.6582,2.6269,2.5977,2.5683,2.5561,0.0,0.0,2.6174,2.6674,2.7736,3.2416,3.4891,3.6488,3.9046,4.1489,4.3662,4.4825,4.6713,4.8577,4.9212,4.9884,5.023,4.9577,4.824,4.6413,4.372,4.0681,3.7654,3.4908,3.3134,3.1802,3.0912,3.1756,3.3655,3.6891,3.8384,4.0493,4.4368,4.52,4.5529,0.0,4.7069,4.7743,4.7415,4.7743,0.0,0.0,0.0,4.7099,4.5762,4.6581,4.6588,4.5458,4.5429,4.5448,4.5513,4.5568,4.5594,4.5594,4.5594,4.5594,4.5594,4.5594,4.5594,4.5594,0.0,0.0,4.5513,4.5513,4.5513,4.5448,4.4849,4.4593,4.4501,4.3758,4.3531,4.358,0.0,0.0,0.0,0.0,0.0,0.0,0.0,2.195,2.2656,2.3047,2.3496,2.3633,2.3242,2.2773,2.2324,0.0,0.0,0.0,0.0,0.0,0.0,0.0,2.3535,2.3945,2.4394,2.4805,2.5254,2.5703,0.0,2.5703,2.5703,2.5703,2.5703,2.5703,2.5703,2.5703,2.5703,2.5703,2.5703,2.5703,2.5703,2.5703,2.5683,0.0,0.0,0.0,2.5794,2.6505,2.7775,3.1102,3.3949,3.675,4.0623,4.297,4.4566,4.5893,4.7432,4.8817,4.9279,4.9702,4.9798,4.8933,4.7124,4.4643,4.1239,3.8507,3.5853,3.2833,3.1583,3.0904,3.0481,3.1551,3.3304,3.575,3.6919,3.9088,4.3531,4.4339,4.5115,4.6893,4.8172,4.8861,0.0,4.9003,0.0,0.0,0.0,0.0,4.6758,4.6563,4.6225,4.5624,4.5594,4.5594,4.5594,4.5594,4.5594,4.5594,4.5594,4.5594,4.5594,4.5594,4.5594,4.5594,4.5594,0.0,4.5594,4.5594,4.5594,4.5522,4.4853,4.4593,4.4501,4.3758,4.3614,4.3756,0.0,0.0,0.0,0.0,0.0,0.0,0.0,2.2531,2.3164,2.3359,2.3965,2.4336,2.4141,2.2793,2.1816,0.0,0.0,0.0,0.0,0.0,0.0,0.0,0.0,0.0,0.0,0.0,0.0,0.0,2.5332,0.0,0.0,0.0,0.0,0.0,2.5703,2.5703,2.5703,2.5703,2.5703,0.0,0.0,2.5703,0.0,0.0,0.0,0.0,0.0,2.6288,2.7871,2.9563,3.2038,3.5192,3.9758,4.2508,4.4278,4.547,4.6778,4.8029,4.8894,4.9125,4.8913,4.8067,4.5932,4.297,3.8911,3.6411,3.4077,3.1038,3.025,3.0173,3.0365,3.1306,3.2691,3.4704,3.5382,3.7454,4.2586,4.3529,4.4827,4.7829,4.9121,0.0,4.965,4.9987,0.0,0.0,0.0,0.0,4.7693,4.6532,4.5883,4.5883,4.571,4.5594,4.5594,4.5594,4.5594,4.5594,4.5594,4.5594,4.5594,4.5594,4.5594,4.5594,4.5594,0.0,0.0,4.5594,4.5594,4.5531,4.4943,4.4657,4.4514,4.3852,4.3726,4.3896,0.0,0.0,0.0,0.0,0.0,0.0,0.0,2.2507,2.3371,2.418,2.4355,2.4102,2.3301,2.2422,2.1582,0.0,0.0,0.0,0.0,0.0,0.0,0.0,0.0,0.0,0.0,0.0,0.0,0.0,0.0,0.0,0.0,0.0,0.0,0.0,0.0,0.0,2.5703,2.5703,0.0,0.0,0.0,0.0,0.0,0.0,0.0,0.0,0.0,2.5904,2.6986,2.8646,2.9948,3.1346,3.4141,3.8796,4.3085,4.2442,4.4519,4.7192,4.8009,4.8221,4.8029,4.7212,4.5086,4.2297,3.8796,3.5488,3.2622,3.0788,2.9775,2.9467,3.025,3.0501,3.1661,3.4908,3.5489,3.7423,4.2887,4.4642,4.6075,4.7974,0.0,0.0,5.008,0.0,0.0,0.0,0.0,0.0,0.0,4.7241,4.6778,4.6778,4.6009,4.5594,4.5594,4.5594,4.5594,4.5594,4.5594,4.5594,4.5594,4.5594,4.5594,4.5594,0.0,0.0,0.0,4.5594,4.5594,4.5568,4.5201,4.4872,4.454,4.4102,4.3772,4.3548,0.0,0.0,0.0,0.0,0.0,0.0,2.1558,2.2053,2.2822,2.4219,2.4394,2.4257,2.3859,2.3104,2.207,2.0723,0.0,0.0,0.0,0.0,0.0,0.0,0.0,0.0,0.0,0.0,0.0,0.0,0.0,0.0,0.0,0.0,0.0,0.0,0.0,0.0,0.0,0.0,0.0,0.0,0.0,0.0,0.0,0.0,0.0,0.0,0.0,0.0,2.5923,2.6601,2.7736,2.889,2.8852,3.2256,3.6776,3.9508,4.197,4.4239,4.6086,4.699,4.7182,4.6336,4.3047,3.9411,3.7046,3.3449,3.0294,2.9121,2.9006,2.9204,2.9544,3.0038,3.1173,3.3545,3.3526,3.485,3.9604,4.1154,4.3009,4.6243,4.8115,0.0,0.0,0.0,0.0,0.0,0.0,0.0,0.0,4.7336,4.6904,4.6904,4.6047,4.5594,4.5594,4.5594,4.5594,4.5594,4.5594,4.5594,4.5594,4.5594,4.5594,4.5594,0.0,0.0,0.0,4.5594,4.5594,4.5568,4.5232,4.4896,4.4553,4.4146,4.3788,4.3515,0.0,0.0,0.0,0.0,0.0,2.0617,2.1532,2.1723,2.2304,2.3826,2.4022,2.3999,2.3942,2.3191,2.2221,2.1052,2.0742,0.0,0.0,0.0,0.0,0.0,0.0,0.0,0.0,0.0,2.1797,2.2363,2.3223,0.0,0.0,0.0,0.0,0.0,0.0,0.0,0.0,0.0,0.0,0.0,0.0,0.0,0.0,0.0,0.0,0.0,0.0,0.0,0.0,0.0,0.0,2.6928,2.5692,2.7365,3.0717,3.5315,3.8565,4.1181,4.3478,4.5086,4.599,4.5374,4.1585,3.7623,3.6173,3.2179,2.8723,2.864,2.8703,2.8896,2.939,2.9987,3.0942,3.2622,3.2429,3.3449,3.745,3.895,4.0958,4.4459,0.0,0.0,0.0,0.0,0.0,0.0,0.0,0.0,0.0,4.7336,4.6904,4.6904,4.6047,4.5594,4.5594,4.5594,4.5594,4.5594,4.5594,4.5594,4.5594,4.5594,4.5594,4.5594,0.0,0.0,0.0,4.5594,4.5531,4.5429,4.5201,4.4818,4.4392,4.4102,4.3788,4.3515,0.0,0.0,0.0,0.0,0.0,0.0,2.1462,2.1668,2.2034,2.2987,2.3108,2.3106,2.3119,2.2273,2.1739,2.1788,2.1051,0.0,0.0,0.0,0.0,0.0,0.0,0.0,0.0,0.0,2.0625,2.0625,2.1504,2.1934,2.1934,0.0,0.0,0.0,0.0,0.0,0.0,0.0,0.0,0.0,0.0,0.0,0.0,0.0,0.0,0.0,0.0,0.0,0.0,0.0,0.0,0.0,0.0,2.5327,2.6038,2.9481,3.4077,3.8411,4.0092,4.2401,4.4316,4.4316,4.1123,3.7777,3.6885,3.2141,2.8371,3.0038,2.9063,2.8409,3.0077,3.0385,3.0942,3.2622,3.2891,3.4083,3.7526,3.9438,4.115,0.0,0.0,4.6278,0.0,0.0,0.0,0.0,0.0,0.0,0.0,4.7336,4.6904,4.6904,4.6047,4.5594,4.5594,4.5594,4.5594,4.5594,4.5594,4.5594,4.5594,4.5594,4.5594,0.0,0.0,0.0,0.0,4.5594,4.541,4.5096,4.5096,4.4651,4.4016,4.3998,4.3788,4.3515,0.0,0.0,0.0,0.0,0.0,0.0,0.0,2.0723,2.1078,2.2013,2.2135,2.2355,2.2894,2.2213,2.1704,2.173,2.101,0.0,0.0,0.0,0.0,0.0,0.0,0.0,0.0,0.0,2.0898,2.1484,2.2324,2.3027,2.3613,2.3867,2.4004,0.0,0.0,0.0,0.0,0.0,0.0,0.0,0.0,0.0,0.0,0.0,0.0,0.0,0.0,0.0,0.0,0.0,0.0,0.0,0.0,0.0,0.0,2.6596,2.9712,3.3295,3.5591,3.7219,3.8142,3.7546,3.5084,3.2577,3.1698,2.8717,2.6269,2.6808,2.6962,2.7351,2.8486,2.914,3.0256,3.2526,3.2891,3.3699,3.5962,0.0,0.0,4.2835,4.6644,0.0,0.0,0.0,0.0,0.0,0.0,0.0,0.0,4.6471,4.6278,4.6885,4.6047,4.5594,4.5594,4.5594,4.5594,4.5594,4.5594,4.5594,4.5594,4.5594,0.0,0.0,0.0,0.0,0.0,4.5352,4.5201,4.5074,4.4849,4.4441,4.4001,4.4001,4.3788,4.3515,0.0,0.0,0.0,0.0,0.0,0.0,0.0,1.9842,2.0178,2.1058,2.1162,2.1495,2.232,2.1679,2.1303,2.1664,2.0954,0.0,0.0,0.0,0.0,0.0,0.0,0.0,2.0605,2.0918,2.1367,2.1894,2.2715,2.3398,2.3945,2.3945,2.3945,2.3926,2.3379,0.0,0.0,0.0,0.0,0.0,0.0,0.0,2.4246,0.0,0.0,0.0,0.0,0.0,0.0,0.0,0.0,0.0,0.0,0.0,0.0,0.0,2.6808,2.9096,3.1987,3.3853,3.4872,3.434,3.2275,3.025,2.9717,2.7365,2.55,2.6154,2.6447,2.6967,2.8145,2.8761,2.9838,3.2083,3.2699,3.3506,0.0,0.0,0.0,4.3201,0.0,0.0,0.0,0.0,0.0,0.0,0.0,0.0,0.0,0.0,4.5845,4.6394,4.5874,4.5594,4.5594,4.5594,4.5594,4.5594,4.5594,4.5594,4.5594,4.5594,0.0,0.0,0.0,0.0,0.0,4.5232,4.503,4.4884,4.4508,4.415,4.382,4.382,4.3695,4.3515,0.0,0.0,0.0,0.0,0.0,0.0,0.0,1.9004,1.9303,2.0111,2.021,2.0542,2.1411,2.0797,2.0657,2.1532,0.0,0.0,0.0,0.0,0.0,0.0,0.0,0.0,2.0605,2.1387,2.1875,2.1992,2.2734,2.3203,2.3379,2.3301,2.3242,2.3184,2.3125,2.3064,0.0,0.0,0.0,0.0,0.0,2.411,0.0,0.0,0.0,0.0,0.0,0.0,0.0,0.0,0.0,0.0,0.0,0.0,0.0,0.0,0.0,0.0,0.0,3.1756,3.3571,3.3571,3.1795,3.0038,3.0038,2.7577,0.0,2.7371,2.7063,2.7044,2.878,2.905,2.9646,3.1564,3.2449,0.0,0.0,3.7892,0.0,0.0,0.0,0.0,0.0,0.0,0.0,0.0,0.0,0.0,0.0,0.0,4.5594,4.5594,4.5594,4.5594,4.5594,4.5594,4.5594,4.5594,4.5594,4.5594,4.5594,4.5594,0.0,0.0,0.0,0.0,0.0,4.5211,4.4884,4.4553,4.4136,4.3772,4.3515,4.3515,4.3515,4.3515,0.0,0.0,0.0,0.0,0.0,0.0,0.0,0.0,0.0,0.0,1.9348,1.9693,2.0523,2.0475,2.049,0.0,0.0,0.0,0.0,0.0,0.0,0.0,0.0,0.0,2.0605,2.0801,2.1523,2.2812,2.3066,2.3848,2.5098,2.4434,2.3769,2.3105,2.248,2.2139,0.0,0.0,0.0,0.0,2.3753,2.411,0.0,0.0,0.0,0.0,2.4375,2.4375,0.0,0.0,0.0,0.0,0.0,0.0,0.0,0.0,2.5308,2.5481,2.6288,0.0,2.7385,2.7385,2.6942,2.65,0.0,2.5885,2.5423,2.5827,2.575,2.6327,2.8665,2.8607,2.9377,3.3032,0.0,3.3718,3.6096,0.0,0.0,0.0,0.0,0.0,0.0,0.0,0.0,0.0,0.0,0.0,0.0,0.0,4.5594,4.5594,4.5594,4.5594,4.5594,4.5594,4.5594,4.5594,4.5594,4.5594,4.5594,4.5594,0.0,0.0,0.0,0.0,4.554,4.4966,4.467,4.4527,4.3868,4.3563,4.3515,4.3515,4.3515,4.3515,0.0,0.0,0.0,0.0,0.0,0.0,0.0,0.0,0.0,0.0,0.0,1.9859,2.0303,2.0041,0.0,0.0,0.0,0.0,0.0,0.0,0.0,0.0,0.0,2.0605,2.0605,2.0996,2.1816,2.3105,2.3535,2.4414,2.5684,2.5215,2.4746,2.4238,2.2961,2.2122,0.0,0.0,0.0,0.0,2.3744,0.0,0.0,0.0,0.0,0.0,2.3648,2.349,0.0,2.4466,2.4755,2.4812,0.0,0.0,0.0,0.0,2.5308,2.5308,2.5308,2.5308,2.5308,2.5308,2.5308,2.5308,2.5308,2.5308,2.5308,2.5308,2.5308,2.5962,2.8145,2.8184,2.903,0.0,3.3295,0.0,0.0,0.0,0.0,0.0,0.0,0.0,0.0,0.0,0.0,0.0,0.0,0.0,0.0,0.0,4.5594,4.5594,4.5594,4.5594,4.5594,4.5594,4.5594,4.5594,4.5594,4.5594,4.5594,4.5594,0.0,0.0,0.0,0.0,4.5559,4.4884,4.4593,4.4527,4.3791,4.3515,4.3515,4.3515,4.3515,4.3515,0.0,0.0,0.0,0.0,0.0,0.0,0.0,0.0,0.0,0.0,0.0,0.0,0.0,0.0,0.0,0.0,0.0,0.0,0.0,0.0,0.0,0.0,2.0527,2.0664,2.0801,2.1387,2.2227,2.3301,2.3926,2.4727,2.5703,2.5703,2.5566,2.5234,2.3694,2.2486,0.0,0.0,0.0,0.0,2.3802,0.0,0.0,0.0,0.0,0.0,0.0,0.0,0.0,2.3605,2.3995,2.4221,2.4909,0.0,0.0,0.0,0.0,0.0,2.5077,2.5212,2.5308,2.5308,2.5308,2.5308,2.5308,2.5308,2.5308,2.5308,2.5404,2.6019,2.7755,2.8179,0.0,0.0,0.0,0.0,4.0342,4.1643,0.0,0.0,0.0,0.0,0.0,0.0,0.0,0.0,0.0,0.0,0.0,0.0,0.0,4.5594,4.5594,4.5594,4.5594,4.5594,4.5594,4.5594,4.5594,4.5594,4.5594,4.5594,0.0,0.0,0.0,0.0,4.5559,4.4884,4.4593,4.4527,4.3791,4.3515,4.3515,4.3515,4.3515,4.3515,0.0,0.0,0.0,0.0,0.0,0.0,0.0,0.0,0.0,0.0,0.0,0.0,0.0,0.0,0.0,0.0,0.0,0.0,0.0,0.0,0.0,1.9473,2.0215,2.0957,2.168,2.1113,2.1914,2.4199,2.3652,2.418,2.5703,2.5703,2.4901,2.3483,2.3147,2.2479,2.1636,2.2319,0.0,2.3918,2.4052,0.0,0.0,0.0,0.0,0.0,0.0,0.0,0.0,2.272,2.349,2.4129,2.424,0.0,0.0,0.0,0.0,0.0,2.4086,2.4774,2.5308,2.5308,2.5308,2.5308,2.5308,2.5308,2.5308,2.5308,2.5885,2.6928,2.8607,2.9525,3.0846,0.0,0.0,0.0,0.0,0.0,0.0,0.0,0.0,0.0,0.0,0.0,0.0,0.0,0.0,0.0,0.0,0.0,0.0,4.5594,4.5594,4.5594,4.5594,4.5594,4.5594,4.5594,4.5594,4.5594,4.5594,4.5594,4.5594,0.0,0.0,4.5594,4.5559,4.4884,4.4593,4.4527,4.3791,4.3515,4.3515,4.3515,4.3515,4.3515,0.0,0.0,0.0,0.0,0.0,0.0,0.0,0.0,0.0,0.0,0.0,0.0,0.0,0.0,0.0,0.0,0.0,0.0,0.0,0.0,1.8594,1.9941,1.9941,2.0527,2.1875,2.1504,2.2324,2.4394,2.4023,2.4473,2.5684,2.5215,2.406,2.2383,2.2327,2.2032,2.1617,2.1953,2.2605,2.3394,0.0,0.0,0.0,0.0,0.0,0.0,0.0,0.0,0.0,0.0,2.2759,2.2855,2.3802,0.0,0.0,0.0,0.0,0.0,2.4524,2.5019,2.5404,2.5885,2.6365,2.6582,2.6115,2.637,2.6697,2.6697,2.7024,2.7813,2.9486,0.0,3.2391,3.6322,0.0,0.0,0.0,0.0,0.0,0.0,0.0,0.0,0.0,0.0,0.0,0.0,0.0,0.0,0.0,0.0,0.0,0.0,4.4729,4.469,4.5594,4.5133,4.5133,4.5594,4.5594,4.5594,4.5594,4.5594,4.5594,4.5594,0.0,4.5594,4.5559,4.4884,4.4593,4.4527,4.3791,4.3515,4.3515,4.3515,4.3515,4.3515,0.0,0.0,0.0,0.0,0.0,0.0,0.0,0.0,0.0,0.0,0.0,0.0,0.0,0.0,0.0,0.0,0.0,0.0,0.0,1.7207,1.8379,1.9922,1.9551,2.0293,2.2441,2.2109,2.2812,2.4707,2.4492,2.4746,2.5371,2.4512,2.3298,2.1797,2.1753,2.1563,2.1291,2.1243,2.1717,2.2509,0.0,0.0,0.0,0.0,0.0,0.0,0.0,0.0,0.0,0.0,0.0,0.0,0.0,0.0,0.0,2.3898,2.3956,2.3971,2.4793,2.5154,2.5462,2.6135,2.6794,2.7332,2.7467,2.7852,2.8357,2.8953,2.9063,2.941,3.05,3.1564,0.0,3.8534,0.0,0.0,0.0,0.0,0.0,0.0,0.0,0.0,0.0,0.0,0.0,0.0,0.0,0.0,0.0,0.0,0.0,0.0,4.3758,4.372,4.4998,4.4355,4.4547,4.5594,4.5594,4.5594,4.5594,4.5594,4.5594,4.5594,4.5594,4.5594,4.5559,4.4884,4.4593,4.4527,4.3791,4.3515,4.3515,4.3515,4.3515,4.3515,0.0,0.0,0.0,0.0,0.0,0.0,0.0,0.0,0.0,0.0,0.0,0.0,0.0,0.0,0.0,0.0,0.0,0.0,0.0,1.6309,1.7207,1.8144,1.8906,2.084,2.4141,2.2695,2.3125,2.5605,2.4805,2.4434,2.4473,2.3672,2.2752,2.1798,2.1796,2.1266,2.0387,2.0382,2.0852,2.16,2.16,0.0,0.0,0.0,0.0,0.0,0.0,0.0,0.0,0.0,0.0,0.0,0.0,0.0,2.4014,2.4072,2.3528,2.3086,2.3952,2.4736,2.5327,2.5385,2.5442,2.6308,2.9423,2.9544,2.9684,3.2045,3.2545,3.2352,0.0,3.2929,3.5187,3.8726,0.0,0.0,0.0,0.0,0.0,0.0,0.0,0.0,0.0,0.0,0.0,0.0,0.0,0.0,0.0,0.0,0.0,0.0,0.0,4.3162,4.3278,4.322,4.3989,4.5594,4.5594,4.5594,4.5594,4.5594,4.5594,4.5594,4.5594,4.5594,4.5559,4.4884,4.4593,4.4527,4.3791,4.3515,4.3515,4.3515,4.3515,4.3515,0.0,0.0,0.0,0.0,0.0,0.0,0.0,0.0,0.0,0.0,0.0,0.0,0.0,0.0,0.0,0.0,0.0,0.0,0.0,1.6211,1.7324,1.875,1.9121,2.0664,2.3594,2.3027,2.3437,2.4883,2.4023,2.334,2.2832,2.2539,2.1914,2.1051,2.1003,2.0788,2.0425,2.0372,2.051,2.0743,2.0743,2.0743,0.0,0.0,0.0,0.0,0.0,0.0,0.0,0.0,2.1216,2.1365,2.1893,2.1903,2.1947,2.299,2.3067,2.3105,2.4466,2.5466,2.6115,2.6115,2.6115,2.6865,2.975,3.0948,3.1737,3.2699,3.416,3.5026,0.0,0.0,3.7957,0.0,0.0,0.0,0.0,0.0,0.0,0.0,0.0,0.0,0.0,0.0,0.0,0.0,0.0,0.0,0.0,0.0,0.0,0.0,0.0,4.1989,4.3085,4.2566,4.2874,4.4047,4.4547,4.4778,4.4797,4.5344,4.5594,4.5594,4.5594,4.5594,4.5559,4.4884,4.4593,4.4527,4.3791,4.3515,4.3515,4.3515,4.3515,4.3515,0.0,0.0,0.0,0.0,0.0,0.0,0.0,0.0,0.0,0.0,0.0,0.0,0.0,0.0,0.0,0.0,0.0,0.0,1.5391,1.6211,1.7363,1.8828,1.914,2.0369,2.2713,2.2476,2.2888,2.4023,2.2871,2.2168,2.1894,2.1348,2.0918,2.0605,2.0542,2.0515,2.0507,2.0444,2.0383,2.0327,2.0327,2.0311,0.0,0.0,0.0,0.0,0.0,0.0,0.0,0.0,2.1202,2.1214,2.1803,2.1922,2.2096,2.3254,2.3581,2.3832,2.5,2.5731,2.6192,2.6192,2.6409,2.7351,3.0173,3.1891,3.3353,3.4968,3.6045,3.6519,3.5981,0.0,0.0,0.0,0.0,0.0,0.0,0.0,0.0,0.0,0.0,0.0,0.0,0.0,0.0,0.0,0.0,0.0,0.0,0.0,0.0,0.0,0.0,0.0,4.2258,4.1681,4.1681,4.2297,4.3124,4.3797,4.4316,4.4921,4.5344,4.5594,4.5594,4.555,4.54,4.4818,4.446,4.4194,4.3695,4.3515,4.3515,4.3515,4.3515,4.3515,0.0,0.0,0.0,0.0,0.0,0.0,0.0,0.0,0.0,0.0,0.0,0.0,0.0,0.0,0.0,0.0,0.0,0.0,1.5391,1.6211,1.709,1.7949,1.8761,1.9999,2.1739,2.0854,2.1282,2.3164,2.1426,2.1016,2.1836,2.0117,1.9766,2.0586,2.0605,2.0564,2.0488,2.0508,2.0451,2.0391,2.0391,2.0354,2.031,0.0,0.0,0.0,0.0,0.0,0.0,0.0,2.1452,2.2884,2.2793,2.3928,2.5269,2.5288,2.5288,2.5288,2.5288,2.5288,2.5308,2.5288,2.5962,2.7505,3.091,3.2314,3.4334,3.9438,3.845,3.6692,3.6692,3.6058,0.0,0.0,0.0,0.0,0.0,0.0,0.0,0.0,0.0,0.0,0.0,0.0,0.0,0.0,0.0,0.0,0.0,0.0,0.0,0.0,0.0,0.0,4.0477,4.0477,4.0496,4.0496,4.1373,4.2662,4.4278,4.4297,4.4759,4.5594,4.5594,4.5391,4.5074,4.4732,4.415,4.3515,4.3515,4.3515,4.3515,4.3515,4.3515,4.3515,0.0,0.0,0.0,0.0,0.0,0.0,0.0,0.0,0.0,0.0,0.0,0.0,0.0,0.0,0.0,0.0,0.0,0.0,1.5391,1.6211,1.6816,1.707,1.7864,1.8539,1.9047,1.8772,1.9218,2.039,1.9247,1.9154,1.9994,1.9511,1.9434,1.9707,2.0332,2.0254,1.9705,2.0311,2.0538,2.0475,2.0475,2.0391,2.031,0.0,0.0,0.0,0.0,0.0,0.0,0.0,0.0,0.0,2.1325,2.23,2.3672,2.3631,2.3616,2.3748,2.4301,2.487,2.5154,2.4601,2.6414,2.8775,3.0404,3.1442,3.3333,3.7815,3.7199,3.6038,3.6596,0.0,0.0,0.0,0.0,0.0,0.0,0.0,0.0,0.0,0.0,0.0,0.0,0.0,0.0,0.0,0.0,0.0,0.0,0.0,0.0,0.0,0.0,0.0,3.8738,3.9361,3.9669,3.9669,4.0496,4.147,4.2585,4.3758,4.4432,4.4682,4.4682,4.4628,4.448,4.3914,4.3598,4.3515,4.3515,4.3515,4.3515,4.3515,4.3515,4.3515,0.0,0.0,0.0,0.0,0.0,0.0,0.0,0.0,0.0,0.0,1.6926,1.6271,0.0,0.0,0.0,0.0,0.0,0.0,0.0,1.5898,1.6348,1.668,1.7141,1.7376,1.7335,1.7338,1.7445,1.7644,1.7491,1.7861,1.8726,1.8417,1.8457,1.8809,1.9336,1.9277,1.8828,1.9336,1.955,1.9504,1.9504,1.944,1.937,0.0,0.0,0.0,0.0,0.0,0.0,0.0,0.0,0.0,2.1097,2.1889,2.2989,2.2927,2.3137,2.3471,2.3968,2.4697,2.5269,2.5125,2.6876,2.8838,2.9698,3.2122,0.0,0.0,3.7161,3.6231,3.7065,0.0,0.0,0.0,0.0,0.0,0.0,0.0,0.0,0.0,0.0,0.0,0.0,0.0,0.0,0.0,0.0,0.0,0.0,0.0,0.0,0.0,0.0,0.0,3.8007,3.8527,3.8777,3.8796,3.9631,4.0296,4.0854,4.2547,4.3508,4.3816,4.3663,4.3522,4.3375,4.2856,4.259,4.2543,4.2543,4.2745,4.302,4.302,4.3222,4.3515,0.0,0.0,1.6863,1.7631,0.0,0.0,0.0,0.0,0.0,0.0,1.658,1.6276,0.0,0.0,0.0,0.0,0.0,0.0,0.0,1.5391,1.5742,1.6543,1.6514,1.6453,1.6382,1.6397,1.6033,1.5308,1.6151,1.7023,1.7851,1.707,1.7129,1.7891,1.7969,1.7969,1.7891,1.7969,1.8008,1.8008,1.8008,1.7965,1.7985,1.8787,0.0,0.0,0.0,0.0,0.0,0.0,0.0,0.0,2.1617,2.2259,2.2987,2.2836,2.3314,2.3894,2.3968,2.4524,2.5288,2.6159,2.7198,2.8261,2.9223,3.3641,3.7738,3.8457,0.0,3.6738,3.7603,0.0,0.0,0.0,0.0,0.0,0.0,0.0,0.0,0.0,0.0,0.0,0.0,0.0,0.0,0.0,0.0,0.0,0.0,0.0,0.0,0.0,0.0,0.0,3.7757,3.7834,3.7873,0.0,3.8757,3.9188,3.9246,4.1008,4.2239,4.2962,4.2594,4.2259,4.1958,4.1651,4.1356,4.1095,4.1095,4.1589,4.2304,4.2304,4.28,4.3515,0.0,0.0,1.7365,1.6883,0.0,0.0,0.0,0.0,0.0,0.0,0.0,0.0,0.0,0.0,0.0,0.0,0.0,0.0,0.0,1.5391,1.5488,1.5664,1.5676,1.5622,1.5552,1.5557,1.5463,1.5302,1.5495,1.6065,1.6984,1.6796,1.6797,1.7012,1.7695,1.7617,1.7012,1.7715,1.8008,1.8008,1.8008,1.7965,1.7927,1.8102,1.8607,0.0,0.0,0.0,0.0,0.0,0.0,0.0,2.0965,2.1859,2.2997,2.2185,2.2081,2.2333,2.2929,2.322,2.3543,2.4413,2.676,2.9415,3.1583,3.3083,3.3872,3.343,3.4083,3.5007,0.0,0.0,0.0,0.0,0.0,0.0,0.0,0.0,0.0,0.0,0.0,0.0,0.0,0.0,0.0,0.0,0.0,0.0,0.0,0.0,0.0,0.0,0.0,3.5846,3.6038,3.6654,3.6981,0.0,3.7853,3.8277,3.8354,4.0719,4.1904,4.2077,4.1989,4.1618,4.1072,4.0998,4.1017,4.1095,4.1095,4.1589,4.2304,4.2304,4.28,4.3515,0.0,0.0,0.0,0.0,0.0,0.0,0.0,0.0,0.0,0.0,0.0,0.0,0.0,1.567,0.0,0.0,1.5379,1.5408,1.5391,1.5391,1.539,1.5407,1.5372,1.5343,1.5301,1.5295,1.5307,1.5296,1.5296,1.5574,1.609,1.6074,1.6074,1.6094,1.6543,1.6504,1.6113,1.6562,1.6758,1.6758,1.6758,1.6737,1.6751,1.7162,1.7859,1.8633,1.9093,0.0,0.0,0.0,0.0,0.0,0.0,0.0,2.1855,2.1295,2.1414,2.1829,2.2174,2.2859,2.3762,2.5026,2.6958,2.9003,3.0697,3.0775,3.0602,3.1,3.241,0.0,0.0,0.0,0.0,0.0,0.0,0.0,0.0,0.0,0.0,0.0,0.0,0.0,0.0,0.0,0.0,0.0,0.0,0.0,0.0,0.0,0.0,0.0,3.4872,3.5084,3.55,3.5923,3.6135,3.6135,3.6988,3.7603,3.8046,3.9373,4.0117,4.0342,3.9957,3.9859,3.9958,3.9564,3.9621,3.9939,3.9939,4.0451,4.1148,4.1148,4.1662,4.2359,0.0,0.0,0.0,0.0,0.0,0.0,0.0,0.0,0.0,0.0,0.0,0.0,0.0,1.5283,1.5327,0.0,0.0,0.0,1.5391,1.539,1.5407,1.5395,1.5332,1.5296,1.5296,1.5299,1.5297,1.5296,1.5296,1.5326,1.541,1.541,1.539,1.5391,1.5391,1.5391,1.5391,1.5391,1.5391,1.5391,1.5391,1.5391,1.5488,1.6191,1.6989,1.7819,1.8749,1.9586,2.0316,2.0526,0.0,0.0,0.0,0.0,2.0565,2.0513,2.1009,2.1579,2.1679,2.2814,2.4391,2.6052,2.7017,2.778,2.8692,2.8376,2.8294,2.9673,0.0,0.0,0.0,0.0,0.0,0.0,0.0,0.0,0.0,0.0,0.0,0.0,0.0,0.0,0.0,0.0,0.0,0.0,0.0,0.0,0.0,0.0,3.3237,3.3955,3.3975,3.4314,3.5038,3.5058,3.5058,3.5058,3.5731,3.643,3.7123,3.7276,3.7832,3.8621,3.7906,3.8041,3.8706,3.8001,3.7914,3.8285,3.8285,3.8854,3.968,3.968,4.0286,4.1095,0.0,0.0,0.0,0.0,0.0,0.0,0.0,0.0,0.0,0.0,1.5192,1.5195,1.5207,1.5276,1.5292,1.5303,1.5362,1.539,1.5391,0.0,0.0,1.5395,1.5332,1.5296,1.5296,1.5292,1.5292,1.5296,1.5296,1.5335,1.5398,1.5398,1.5405,1.5391,1.5391,1.5391,1.5391,1.5391,1.5391,1.5391,1.5391,1.5391,1.541,1.5527,1.6113,1.6972,1.7852,1.8687,1.9495,2.0311,2.0564,0.0,0.0,0.0,2.0511,2.0509,2.0546,2.0747,2.1494,2.2401,2.3547,2.5166,2.5666,2.6144,0.0,0.0,2.7953,0.0,0.0,0.0,0.0,0.0,0.0,0.0,0.0,0.0,0.0,0.0,0.0,0.0,0.0,0.0,0.0,0.0,0.0,0.0,0.0,0.0,0.0,3.2891,3.2949,3.3064,3.3064,3.3122,3.3256,3.3256,3.3256,3.3256,3.3353,3.3468,3.3603,3.4353,3.5955,3.809,3.7747,3.7518,3.7333,3.7,3.6761,3.6615,3.6615,3.7533,3.8854,3.8854,3.9808,4.1095,0.0,0.0,0.0,0.0,0.0,0.0,0.0,0.0,0.0,0.0,0.0,1.521,1.5253,1.5287,1.5318,1.5358,1.5378,1.5407,1.5391,1.5404,1.5389,1.5357,1.5321,1.5297,1.5297,1.5297,1.5292,1.5296,1.5292,1.532,1.5336,1.5336,1.5356,1.5391,1.5391,1.5391,1.5391,1.5391,1.5391,1.5391,1.5391,1.5391,1.5449,1.5937,1.668,1.7539,1.8418,1.9277,2.0055,2.0469,2.0585,2.0563,2.0586,0.0,0.0,0.0,2.0446,2.0591,2.1513,2.2058,2.2665,2.3822,2.4422,2.505,2.6223,2.6468,2.6717,0.0,0.0,0.0,0.0,0.0,0.0,0.0,0.0,0.0,0.0,0.0,0.0,0.0,0.0,0.0,0.0,0.0,0.0,0.0,0.0,0.0,3.15,3.15,3.1718,3.2218,3.2237,3.2449,3.2891,3.2891,3.2891,3.2891,3.2891,3.2891,3.291,3.3295,3.4522,3.631,3.6083,3.6056,3.618,3.5868,3.5685,3.5638,3.6274,3.6966,3.7637,3.8081,3.8709,3.935,0.0,0.0,0.0,0.0,0.0,0.0,0.0,0.0,0.0,0.0,0.0,1.5224,1.5293,0.0,0.0,0.0,1.5399,1.5406,1.5391,1.5381,1.5359,1.5297,1.5278,1.5282,1.53,1.53,1.5301,1.53,1.5301,1.5187,1.4971,1.5203,1.5218,1.5056,1.5293,1.5391,1.5391,1.5391,1.5391,1.5391,1.5391,1.5391,1.5508,1.6367,1.7109,1.7812,1.8906,1.9727,2.0293,2.0527,2.0605,2.0566,2.0332,2.0365,0.0,0.0,0.0,1.9979,2.0892,2.1008,2.113,2.2187,2.284,2.3512,0.0,0.0,2.5356,0.0,0.0,0.0,0.0,0.0,0.0,0.0,0.0,0.0,0.0,0.0,0.0,0.0,0.0,0.0,0.0,0.0,0.0,0.0,0.0,0.0,2.975,2.9962,3.0371,3.1025,3.1256,3.1545,3.1929,3.1737,3.1621,3.1621,3.1833,3.1929,3.1948,3.2391,3.317,3.4157,3.414,3.4494,3.5049,3.4717,3.4726,3.5023,3.5857,3.6316,3.6584,3.7316,3.7718,3.7981,0.0,0.0,0.0,0.0,0.0,0.0,0.0,0.0,0.0,0.0,0.0,1.5224,1.5293,1.5306,1.5326,1.5392,1.5407,1.5391,1.5391,1.533,1.5299,1.5296,1.5236,0.0,1.5298,1.53,1.5302,1.5304,1.5302,1.4876,1.4088,1.4919,1.4853,1.4104,1.4997,1.5391,1.5391,1.5391,1.5391,1.5391,1.5391,1.5391,1.5508,1.6367,1.6738,1.6992,1.8691,1.9336,1.9492,2.0312,2.0605,2.0469,1.9629,1.9847,2.0091,0.0,0.0,0.0,1.9096,1.8734,1.8501,2.0208,2.0653,2.1099,0.0,0.0,0.0,0.0,0.0,0.0,0.0,0.0,0.0,0.0,0.0,0.0,0.0,0.0,0.0,0.0,0.0,0.0,0.0,0.0,0.0,0.0,0.0,0.0,2.803,2.8761,2.9184,2.9223,3.0044,3.0102,2.9319,2.8549,2.8165,2.8165,2.8934,2.93,2.9357,3.1006,3.1808,3.1898,3.2394,3.31,3.3864,3.3601,3.3963,3.4728,3.4776,3.5267,3.6015,3.6547,3.7253,3.7981,0.0,0.0,0.0,0.0,0.0,0.0,0.0,0.0,0.0,0.0,0.0,0.0,0.0,1.5617,1.5329,1.5392,1.5408,1.5391,1.5391,1.5349,1.5296,1.5296,1.5234,1.5207,1.5234,1.5234,1.5258,1.53,1.5258,1.5103,1.4837,1.5145,1.5136,1.4851,1.5232,1.5403,1.5404,1.541,1.5391,1.5391,1.5391,1.5391,1.5566,1.6992,1.7539,1.7754,0.0,0.0,2.0176,2.0488,2.0605,2.0449,0.0,0.0,0.0,1.8137,1.7791,1.7892,1.8216,1.8108,1.8056,1.8671,1.9221,1.9908,2.1032,2.193,0.0,0.0,0.0,0.0,0.0,0.0,0.0,0.0,0.0,0.0,0.0,0.0,0.0,0.0,0.0,0.0,0.0,0.0,0.0,0.0,0.0,0.0,2.7895,2.8165,2.8338,2.8338,2.8621,2.864,2.8338,2.8049,2.7895,2.7895,2.8184,2.8607,2.9127,2.9761,3.0333,3.0885,3.1066,3.1879,3.3045,3.3308,3.359,3.3941,3.4671,3.5125,3.5467,3.6185,3.6839,3.7466,0.0,0.0,0.0,0.0,0.0,1.7795,1.8084,1.743,1.7083,1.7622,0.0,0.0,0.0,0.0,1.6047,1.5818,1.556,1.5408,1.5408,1.5344,1.529,1.5295,1.5241,1.5192,1.5192,1.5192,1.5218,1.5268,1.5218,1.5064,1.4842,1.5132,1.5113,1.4847,1.5205,1.5375,1.5366,1.5385,1.5408,1.5409,1.539,1.5586,1.5996,1.7441,1.8184,0.0,0.0,0.0,0.0,0.0,0.0,0.0,0.0,0.0,0.0,1.8202,1.7608,1.7018,1.7323,1.7214,1.7107,1.7393,1.8096,1.8918,1.9772,0.0,0.0,0.0,0.0,0.0,0.0,0.0,0.0,0.0,0.0,0.0,0.0,0.0,0.0,0.0,0.0,0.0,0.0,0.0,0.0,0.0,0.0,0.0,2.7024,2.7294,2.7601,2.7895,2.7621,2.7467,2.7467,2.7178,2.7024,2.7024,2.7313,2.7736,2.828,2.8569,2.9159,2.9967,2.9967,3.1002,3.2732,3.3094,3.3576,3.417,3.4934,3.5231,3.5302,3.594,3.6563,3.7156,0.0,1.9475,1.9319,2.0154,1.8907,1.8065,1.8915,1.8299,1.7757,1.7776,0.0,0.0,0.0,0.0,0.0,1.663,1.5859,1.5393,1.5393,1.5332,1.5295,1.5302,1.5234,1.5192,1.5192,1.5192,1.5192,1.5192,1.5192,1.4766,1.3956,1.4805,1.4747,1.3978,1.4883,1.5309,1.5295,1.5365,1.5394,1.5396,1.5409,1.5918,1.6758,1.7656,0.0,0.0,2.0273,2.0605,0.0,2.0605,0.0,0.0,0.0,0.0,0.0,0.0,1.7262,1.5487,0.0,0.0,0.0,1.6344,1.7223,0.0,1.8876,0.0,0.0,0.0,0.0,0.0,0.0,0.0,0.0,0.0,0.0,0.0,0.0,0.0,0.0,0.0,0.0,0.0,0.0,0.0,0.0,0.0,0.0,2.5308,2.5308,2.6096,2.6948,2.7799,2.7005,2.6563,2.6563,2.5712,2.5308,2.5308,2.6154,2.6582,2.664,2.7486,2.8299,2.9069,2.9088,3.0531,3.2833,3.2852,3.3891,3.5462,3.5455,3.5474,3.552,3.577,3.6387,3.7122,2.0229,2.008,2.0023,2.025,1.9904,1.9658,1.9908,1.9192,1.8865,0.0,0.0,0.0,1.7324,1.6543,1.5905,1.5673,1.5465,1.5329,1.5329,1.5311,1.5297,1.53,1.5234,1.5192,1.5192,1.5192,1.5192,1.5192,1.5192,1.5077,1.4843,1.5096,1.5077,1.4846,1.5119,1.5237,1.5224,1.53,1.536,1.5395,1.54,1.5544,0.0,0.0,0.0,0.0,0.0,2.0605,2.0605,0.0,2.0605,2.0449,0.0,0.0,1.6777,0.0,0.0,1.5352,1.5598,0.0,0.0,0.0,0.0,0.0,1.7962,1.946,0.0,0.0,0.0,0.0,0.0,0.0,0.0,0.0,0.0,0.0,0.0,0.0,0.0,0.0,0.0,0.0,0.0,0.0,0.0,0.0,2.5308,2.5308,2.5308,2.5538,2.5769,2.6,2.5788,2.5654,2.5654,2.5423,2.5308,2.5308,2.5538,2.5981,2.6621,2.6851,2.7428,2.8261,2.8857,2.9852,3.1135,3.1775,3.3026,3.4532,3.4358,3.466,3.5193,3.5078,3.5796,3.6814,2.0165,2.0241,2.0308,2.0308,2.0308,2.0308,2.0308,1.9865,1.9727,0.0,0.0,0.0,1.8238,1.6469,1.54,1.5767,1.5481,1.5308,1.5308,1.5257,1.5206,1.518,1.5117,1.5084,1.5124,1.5124,1.514,1.5192,1.5192,1.5192,1.5192,1.5192,1.5192,1.5192,1.5192,1.5192,1.5198,1.5245,1.5295,1.5362,1.5391,0.0,0.0,1.7461,1.8223,0.0,0.0,0.0,2.0547,2.0176,2.0293,0.0,0.0,0.0,0.0,0.0,0.0,1.5801,1.5446,1.5313,1.5377,1.5724,0.0,0.0,1.803,1.878,1.9175,0.0,0.0,0.0,0.0,0.0,0.0,0.0,0.0,0.0,0.0,0.0,0.0,0.0,0.0,0.0,0.0,0.0,0.0,0.0,2.5115,2.5308,2.5308,2.5308,2.5308,2.5308,2.5308,2.5308,2.5308,2.5308,2.5308,2.5308,2.5308,2.5577,2.6058,2.6058,2.6524,2.7371,2.7852,2.8736,2.991,3.041,3.1776,3.3513,3.3356,3.3739,3.4357,3.4086,3.5142,3.6626,0.0,2.0188,2.0308,2.0308,2.0308,2.0308,2.0308,2.0308,2.0308,0.0,2.0212,1.9792,1.8838,1.6696,1.5625,1.6305,1.5693,1.5323,1.5391,1.5196,1.5101,1.5129,1.4978,1.4932,1.4992,1.4996,1.5058,1.518,1.518,1.5183,1.5192,1.5192,1.5192,1.5192,1.5192,1.5192,1.5192,1.5192,1.5238,1.5318,1.5364,1.5852,0.0,0.0,1.8398,1.916,1.916,1.9727,2.0332,1.9551,1.9805,0.0,0.0,0.0,0.0,0.0,1.6833,1.6648,1.5786,1.557,1.5754,0.0,0.0,0.0,1.8679,1.8486,1.8197,0.0,0.0,0.0,0.0,0.0,0.0,0.0,0.0,0.0,0.0,0.0,0.0,0.0,0.0,0.0,0.0,0.0,2.3956,2.3956,2.4716,2.5173,2.5173,2.525,2.5308,2.5308,2.5308,2.5308,2.5308,2.5308,2.5308,2.5308,2.5308,2.5308,2.5308,2.5308,2.5712,2.6467,2.6563,2.7448,2.8838,2.8934,3.0356,3.2458,3.2416,3.28,3.3324,3.3038,3.4463,3.6382,2.0241,2.0277,2.0308,2.0308,2.0308,2.0308,2.0308,2.0308,2.0308,2.0308,1.97,1.8684,1.7141,1.6542,1.6028,1.5504,1.5312,1.5449,1.5987,1.5395,1.5274,1.5851,1.5248,1.4913,1.4919,1.4919,1.4954,1.5039,1.5039,1.5092,1.5192,1.5192,1.5192,1.5192,1.5192,1.5192,1.5192,1.5192,0.0,1.5297,1.5303,0.0,1.5742,1.6621,1.748,1.8242,1.8242,1.8809,1.9531,1.9355,1.9414,1.9648,0.0,0.0,0.0,1.8047,0.0,0.0,0.0,0.0,0.0,0.0,0.0,0.0,1.8981,1.9448,1.9673,0.0,0.0,0.0,0.0,0.0,0.0,0.0,0.0,0.0,0.0,0.0,0.0,0.0,0.0,0.0,0.0,0.0,2.3047,2.3047,2.3855,2.4336,2.4336,2.4947,2.5308,2.5308,2.5308,2.5308,2.5308,2.5308,2.5308,2.5308,2.5308,2.5308,2.5308,2.5308,2.5385,2.5596,2.6288,2.6794,2.714,2.7832,2.9487,3.1531,3.1318,3.1995,3.3045,3.2773,3.3808,3.5289,2.0308,2.0308,2.0308,2.0308,2.0308,2.0308,2.0308,2.0308,2.0308,2.0308,1.9546,1.8684,1.7846,1.7369,1.693,1.6484,1.6396,1.6513,1.6919,1.6451,1.6353,1.6832,1.6394,1.5973,1.5618,1.5599,1.5395,1.4991,1.5075,1.5095,1.5098,1.5174,1.5423,1.5849,1.5849,1.6088,1.6477,1.6024,1.6133,1.6512,1.5656,0.0,1.6049,1.6519,1.7222,1.7904,1.7496,1.7636,1.8125,1.8848,1.9199,0.0,0.0,2.0293,1.9687,0.0,1.8301,1.8457,0.0,0.0,0.0,1.839,0.0,0.0,0.0,1.9388,1.9189,0.0,0.0,0.0,0.0,0.0,0.0,0.0,0.0,0.0,0.0,0.0,0.0,0.0,0.0,0.0,0.0,0.0,2.2369,2.2763,2.3201,2.3644,2.4072,2.449,2.4889,2.5288,2.5308,2.5308,2.5308,2.5308,2.5308,2.5308,2.5308,2.5308,2.5303,2.5203,2.5208,2.5322,2.5663,2.6115,2.6635,2.6949,2.8191,2.9834,2.9702,3.0701,3.2187,3.2053,3.3261,3.4949,2.0308,2.0308,2.0308,2.0308,2.0308,2.0308,2.0308,2.0308,2.0308,2.0308,1.9546,1.8927,1.8747,1.796,1.7425,1.7425,1.7179,1.7265,1.7823,1.765,1.753,1.7505,1.7444,1.7032,1.6279,1.6436,1.6165,1.5438,1.54,1.5327,1.5232,1.5366,1.5795,1.6503,1.6542,1.702,1.7752,1.7194,0.0,1.7778,0.0,1.6227,1.6831,1.6715,1.7184,1.7791,1.6999,1.6696,1.6914,1.8262,1.8984,1.9453,2.0332,2.0605,0.0,0.0,0.0,0.0,0.0,0.0,0.0,0.0,0.0,1.8603,0.0,0.0,0.0,0.0,0.0,0.0,0.0,0.0,0.0,0.0,0.0,0.0,0.0,0.0,0.0,0.0,0.0,0.0,0.0,0.0,2.1623,2.2267,2.2468,2.2934,2.3802,2.4014,2.4471,2.5269,2.5308,2.5308,2.5308,2.5308,2.5308,2.5308,2.5308,2.5274,2.5248,2.5063,2.5077,2.5187,2.5036,2.5454,2.6247,2.6079,2.6846,2.8139,2.8271,2.9506,3.1195,3.1342,3.2724,3.4472,2.0308,2.0308,2.0308,2.0308,2.0308,2.0308,2.0308,2.0308,2.0308,2.0308,1.9546,1.8674,1.786,1.698,1.646,1.646,1.5739,0.0,1.8264,0.0,1.8058,1.7184,1.7317,1.6999,1.6139,1.6876,1.7193,1.7046,1.6332,1.6027,1.6073,1.6132,1.6295,1.6503,1.6753,1.7213,1.784,0.0,1.8295,0.0,1.7684,1.7668,0.0,1.6899,1.7142,1.7793,1.699,1.6699,1.6836,0.0,1.8633,1.9453,0.0,2.0605,2.041,0.0,0.0,0.0,0.0,0.0,0.0,0.0,2.0222,0.0,0.0,0.0,0.0,0.0,0.0,0.0,0.0,0.0,0.0,0.0,0.0,0.0,0.0,0.0,0.0,0.0,0.0,0.0,0.0,0.0,0.0,2.0573,2.1296,2.2095,2.2898,2.3687,2.4471,2.5269,2.5308,2.5308,2.5308,2.5308,2.5308,2.5308,2.5308,2.5208,2.5034,2.5016,2.4956,2.4861,2.4821,2.4884,2.5,2.4972,2.5802,2.7131,2.7858,2.9045,3.0411,3.114,3.2027,3.2949,2.0308,2.0308,2.0308,2.0308,2.0308,2.0308,2.0308,2.0308,2.0308,2.0308,1.9985,1.9565,1.9057,0.0,0.0,0.0,0.0,1.7653,0.0,0.0,1.8645,1.8782,1.8978,0.0,1.7807,1.8136,1.8045,1.7467,1.7174,1.6962,1.6834,1.7026,1.7378,1.7834,1.8036,0.0,1.9295,0.0,1.9145,0.0,0.0,0.0,0.0,1.7281,1.6534,1.641,1.6073,1.6269,1.6894,0.0,1.8867,0.0,0.0,0.0,0.0,0.0,0.0,0.0,0.0,0.0,0.0,0.0,0.0,0.0,2.0521,0.0,2.0221,0.0,0.0,0.0,0.0,0.0,0.0,0.0,0.0,0.0,0.0,0.0,0.0,0.0,0.0,0.0,0.0,0.0,0.0,0.0,0.0,2.1433,2.2786,2.3178,2.3947,2.5269,2.5308,2.5308,2.5308,2.5308,2.5229,2.5135,2.5135,2.5036,2.4877,2.4766,2.473,2.4797,2.4678,2.4693,2.4827,2.518,2.5953,2.6963,2.7662,2.8854,3.0246,3.0577,3.1513,3.2656,2.0346,2.0308,2.0308,2.0308,2.0308,2.0308,2.0308,2.022,2.0267,2.0519,2.0301,0.0,1.9912,1.9687,0.0,0.0,1.8785,1.875,0.0,0.0,1.9144,0.0,0.0,0.0,0.0,0.0,1.8989,1.8193,1.8075,1.7894,1.7724,1.7902,1.8306,1.8865,1.9204,1.9732,2.0325,0.0,1.9845,2.0412,1.9704,1.9652,1.9768,1.7963,1.6643,1.5758,1.6014,1.6523,1.7266,1.8574,1.9297,0.0,2.0391,0.0,0.0,0.0,0.0,0.0,2.0482,0.0,0.0,0.0,0.0,0.0,0.0,0.0,0.0,0.0,0.0,0.0,0.0,0.0,0.0,2.1209,0.0,0.0,0.0,0.0,0.0,0.0,0.0,0.0,0.0,0.0,0.0,0.0,0.0,0.0,2.2801,2.2856,2.3593,2.525,2.5308,2.5269,2.5219,2.5214,2.513,2.4962,2.4962,2.4864,2.4716,2.4578,2.4561,2.4623,2.4478,2.4503,2.4698,2.5354,2.6089,2.6875,2.7532,2.865,2.9898,3.0118,3.0944,3.2014,2.0442,2.0308,2.0308,2.0308,2.0308,2.0308,2.0308,0.0,0.0,0.0,0.0,0.0,0.0,0.0,0.0,0.0,0.0,1.8459,1.9535,0.0,1.9476,0.0,0.0,1.9743,0.0,0.0,0.0,1.9726,1.9073,1.8766,1.8754,1.8766,1.8845,1.9031,1.9881,2.0287,2.0316,2.0338,2.0374,2.0387,2.0302,1.9817,1.9137,0.0,1.8006,1.6676,1.7593,0.0,0.0,1.8984,1.9844,0.0,0.0,0.0,0.0,0.0,0.0,0.0,0.0,0.0,0.0,2.0393,0.0,0.0,0.0,0.0,2.0536,0.0,0.0,0.0,0.0,0.0,2.0275,1.9414,1.9293,0.0,0.0,0.0,0.0,0.0,0.0,0.0,0.0,0.0,0.0,0.0,0.0,0.0,2.2769,2.2894,2.364,2.525,2.5308,2.5208,2.5016,2.5016,2.493,2.4811,2.4811,2.4708,2.4512,2.4503,2.4401,2.4218,2.4209,2.4209,2.4273,2.5082,2.588,2.6696,2.7486,2.8319,2.9133,2.9916,3.0228,3.0503,2.1053,2.0998,2.0923,2.0385,2.0193,0.0,0.0,2.1109,0.0,0.0,0.0,0.0,0.0,1.934,1.9173,0.0,0.0,1.851,1.9526,1.9688,0.0,0.0,0.0,2.0359,0.0,0.0,0.0,0.0,1.9802,1.9687,1.9471,1.9691,1.9743,1.9685,2.0107,2.0306,0.0,0.0,0.0,0.0,0.0,2.0141,1.9778,0.0,0.0,1.7439,1.7744,1.8242,0.0,1.9065,1.975,2.0474,2.0474,2.0444,2.0434,2.0434,2.0423,0.0,0.0,0.0,2.0327,2.0327,0.0,0.0,0.0,0.0,0.0,0.0,0.0,0.0,0.0,0.0,2.054,2.0876,1.9498,1.808,0.0,0.0,0.0,0.0,0.0,0.0,0.0,0.0,0.0,0.0,0.0,0.0,0.0,2.3686,2.4199,2.5269,2.5168,2.5077,2.501,2.4917,2.4778,2.4599,2.4599,2.4495,2.4303,2.4303,2.4257,2.419,2.419,2.419,2.43,2.564,2.6355,2.673,2.8069,2.8872,2.9272,2.9379,2.9739,3.043,2.1839,2.1814,2.1696,0.0,0.0,0.0,0.0,0.0,0.0,0.0,2.1035,0.0,1.9981,0.0,1.98,0.0,1.8904,1.8919,1.9867,1.9715,0.0,2.0036,2.0396,0.0,0.0,0.0,0.0,0.0,0.0,2.0011,1.9815,2.0065,2.0097,1.9943,2.0106,2.0175,2.0127,2.0165,2.018,0.0,0.0,2.0308,0.0,0.0,1.8322,1.7875,0.0,1.8706,1.8767,1.9352,1.9937,2.0408,2.0408,2.0377,2.0359,2.0359,2.0362,2.0352,2.0318,2.0305,0.0,2.0305,2.0305,0.0,2.0345,0.0,0.0,0.0,0.0,0.0,0.0,0.0,2.0476,2.0798,1.919,1.7819,0.0,1.7539,0.0,0.0,0.0,0.0,0.0,0.0,0.0,0.0,0.0,0.0,0.0,0.0,2.4432,2.5165,2.5146,2.5024,2.4824,2.4806,2.4662,2.4393,2.4393,2.433,2.419,2.419,2.419,2.419,2.419,2.419,2.43,2.5621,2.6337,2.673,2.8062,2.8854,2.9235,2.9055,2.9684,3.0779,2.2726,2.2738,2.2605,0.0,2.2035,0.0,0.0,0.0,2.096,0.0,2.1121,2.0484,2.0437,2.0437,2.0126,1.937,1.9297,1.962,2.0401,1.9933,0.0,0.0,2.006,1.9663,1.932,0.0,0.0,0.0,0.0,1.9897,1.986,1.999,1.9984,1.9853,1.9943,0.0,1.9877,1.9943,1.9979,2.0012,2.0197,2.0277,2.0281,2.0281,0.0,1.8073,1.9778,1.937,1.8259,1.9856,2.04,2.04,2.04,2.0323,2.0246,2.0246,2.0246,2.0231,2.0231,2.0269,2.0308,2.0308,0.0,0.0,0.0,0.0,2.0324,0.0,0.0,0.0,0.0,0.0,0.0,1.9282,1.8491,1.7703,1.6933,0.0,0.0,0.0,0.0,0.0,0.0,0.0,0.0,0.0,0.0,0.0,0.0,0.0,0.0,2.5009,2.5198,2.5043,2.4526,2.47,2.4583,2.4209,2.4199,2.419,2.419,2.419,2.419,2.419,2.419,2.419,2.4263,2.5062,2.587,2.6686,2.7493,2.8282,2.9005,2.9005,2.9989,3.1342,2.3639,2.3629,2.3706,0.0,2.3424,2.3341,0.0,0.0,0.0,0.0,2.1058,2.0272,1.9675,1.9601,1.951,1.9315,1.9297,0.0,0.0,0.0,0.0,1.9847,2.0156,2.0063,1.952,2.0187,0.0,2.027,0.0,2.1241,2.0552,2.069,2.072,2.0665,2.0095,2.0165,2.0665,2.0095,1.9852,1.9852,1.9909,1.9987,0.0,0.0,1.9507,1.885,1.9931,2.0053,1.976,2.0188,2.0327,2.0327,2.0327,1.9869,1.9335,1.9335,1.9337,1.9334,1.9334,1.9812,2.0308,2.0308,2.0308,2.0296,0.0,0.0,0.0,0.0,0.0,0.0,0.0,0.0,0.0,2.0098,1.9432,1.8866,0.0,0.0,0.0,1.9512,0.0,0.0,0.0,0.0,0.0,0.0,0.0,0.0,0.0,0.0,0.0,2.5205,2.5135,2.5004,2.4878,2.4682,2.4528,2.4428,2.4266,2.419,2.419,2.419,2.419,2.419,2.419,2.419,2.4263,2.5062,2.587,2.6686,2.7493,2.8282,2.9005,2.9005,2.9629,3.0503,2.4395,2.4492,0.0,2.462,0.0,0.0,2.399,0.0,0.0,2.2408,2.1344,0.0,1.9885,1.9517,1.9297,1.9297,1.9297,0.0,1.9803,0.0,0.0,1.9993,1.9987,1.9821,1.9471,1.9922,0.0,2.0503,0.0,0.0,2.1248,2.1372,2.1414,2.1331,2.0942,2.0991,2.1294,2.0543,2.0264,2.0294,1.9941,0.0,0.0,1.9917,1.9678,1.9425,1.9975,1.9983,1.9792,2.0173,2.0308,2.0308,2.0308,1.9965,1.9565,1.9565,1.9565,1.9565,1.9565,1.9927,2.0308,2.0308,2.0308,2.0308,2.0308,2.0308,2.0308,0.0,0.0,0.0,0.0,0.0,0.0,2.0402,1.9747,0.0,0.0,0.0,0.0,0.0,0.0,0.0,0.0,0.0,0.0,0.0,0.0,0.0,0.0,0.0,0.0,2.5149,2.5146,2.5059,2.4917,2.4769,2.4651,2.4503,2.4384,2.4284,2.4208,2.4566,2.4732,2.4732,2.4732,2.4924,2.5254,2.5356,2.609,2.72,2.8007,2.8601,2.9005,2.9005,2.95,3.021,2.498,2.5146,0.0,0.0,0.0,0.0,0.0,2.3956,0.0,2.3024,0.0,2.0827,2.0535,1.9877,1.9407,1.9315,0.0,1.9748,2.0456,1.9858,1.9767,2.0474,1.973,1.9297,1.9297,1.9407,0.0,0.0,0.0,2.1208,2.1959,2.2083,2.2074,2.1968,2.1961,2.1908,0.0,2.1059,2.083,2.0859,2.0064,1.9743,1.978,1.978,1.9773,1.9826,1.9919,1.9604,1.9243,2.0038,2.0308,2.0308,2.0308,2.0212,2.0135,2.0135,2.0135,2.0135,2.0135,2.0212,2.0308,2.0308,2.0308,2.0308,2.0308,2.0308,2.0308,2.0308,2.0308,0.0,0.0,0.0,0.0,2.074,0.0,0.0,0.0,0.0,0.0,0.0,0.0,0.0,0.0,0.0,0.0,0.0,0.0,0.0,0.0,0.0,0.0,0.0,2.5168,0.0,2.4804,0.0,2.4824,2.4545,2.452,2.441,2.4256,2.4935,2.5266,2.5277,2.5247,2.5715,2.6434,2.5697,2.6347,2.789,2.8693,2.9005,2.9005,2.9115,2.9592,3.021,2.5004,0.0,0.0,0.0,0.0,2.4647,2.4782,2.3956,2.3229,2.3024,2.2196,2.134,2.0584,2.0364,2.0016,1.9352,1.9913,0.0,0.0,0.0,0.0,2.0484,1.973,1.9297,1.9297,1.995,2.0721,0.0,0.0,0.0,2.2786,2.2803,2.2803,2.2758,2.2123,0.0,2.1748,2.0901,0.0,2.0523,1.9708,1.9495,1.9636,1.9636,1.9688,1.9796,1.9824,1.9832,1.9863,2.0184,2.0308,2.0308,2.0308,1.9812,1.9238,1.9231,1.9234,1.9223,1.9223,1.9754,2.0308,2.0308,2.0308,2.0308,2.0308,2.0308,2.0308,2.0308,2.0308,2.0308,2.0308,0.0,0.0,0.0,0.0,0.0,0.0,0.0,0.0,0.0,0.0,0.0,0.0,0.0,0.0,0.0,0.0,0.0,0.0,0.0,0.0,0.0,0.0,0.0,0.0,0.0,0.0,2.4746,2.4575,2.4478,2.4454,2.4423,2.4497,2.4649,2.4487,2.4967,2.5829,2.5527,2.6347,2.789,2.8693,2.9005,2.9078,2.9739,3.0081,3.021,0.0,0.0,0.0,0.0,0.0,0.0,0.0,2.4134,0.0,2.363,2.3021,2.2391,2.1849,2.141,2.1015,2.0637,2.0941,2.1161,2.1161,2.1161,2.0978,2.0529,2.0126,0.0,1.9315,1.9675,2.0501,2.1794,0.0,0.0,2.3621,2.3621,2.3621,2.3621,2.3217,2.3043,0.0,0.0,0.0,2.1685,2.0419,2.0244,2.0643,1.9782,1.9747,2.0122,1.9812,1.9732,1.9838,2.0069,2.0205,2.0308,2.0308,2.0004,1.9677,1.9673,1.9673,1.9681,1.9681,1.9985,2.0308,2.0308,2.0308,2.0308,2.0308,2.0308,2.0308,2.0308,2.0308,2.0577,2.1446,2.1979,0.0,0.0,0.0,0.0,0.0,0.0,0.0,0.0,0.0,0.0,0.0,0.0,0.0,0.0,0.0,0.0,0.0,0.0,0.0,0.0,0.0,0.0,0.0,0.0,0.0,2.4797,2.461,2.4462,2.4348,2.4679,2.4873,2.4959,2.4854,2.5563,2.6814,2.7143,2.7732,2.8455,2.8858,2.9005,2.9097,2.9898,3.021,3.0265,0.0,2.4802,0.0,0.0,2.4663,0.0,2.4495,2.4339,2.419,2.419,2.3794,2.3375,2.3052,2.2428,2.1996,2.1812,2.1959,2.2069,2.2069,2.2069,2.1749,2.1061,2.0694,2.0199,1.9565,1.9389,2.0123,0.0,0.0,0.0,0.0,2.419,0.0,0.0,0.0,0.0,0.0,0.0,2.3006,2.2878,2.1373,2.1198,2.1666,2.0325,2.0225,2.0719,2.0237,2.0094,2.0152,2.0405,2.0389,2.0275,2.044,2.0399,2.0308,2.0308,2.0308,2.0308,2.0308,2.0308,2.0308,2.0308,2.0308,2.0308,2.0308,2.0308,2.0346,2.0519,2.0692,2.1301,2.2812,2.3141,0.0,0.0,0.0,0.0,0.0,0.0,0.0,0.0,0.0,0.0,0.0,0.0,0.0,0.0,0.0,0.0,0.0,0.0,0.0,0.0,0.0,2.5198,2.5138,0.0,2.4904,0.0,2.461,2.4428,2.4275,2.489,2.5257,2.5472,2.5423,2.6311,2.786,2.8675,2.9005,2.9023,2.9189,2.9262,2.9372,3.0344,3.0705,3.0834,0.0,0.0,0.0,0.0,0.0,0.0,0.0,2.4339,2.419,2.419,2.4154,2.3832,2.3079,2.2933,2.2593,2.1867,2.2464,2.2896,2.2896,2.2896,2.2841,2.2767,2.1318,2.0448,2.0401,1.9675,2.0123,0.0,0.0,0.0,0.0,0.0,0.0,0.0,0.0,0.0,0.0,2.3336,2.3006,2.2914,2.2051,2.1721,2.1776,2.1629,2.161,2.1666,2.1618,2.167,2.1805,2.202,2.1172,2.0155,2.0889,2.0742,2.0308,2.0308,2.0308,2.0308,2.0308,2.0308,2.0308,2.0308,2.0308,2.0308,2.0308,2.0308,2.05,2.1235,2.2023,2.287,2.3878,2.4076,2.4358,0.0,0.0,0.0,0.0,0.0,0.0,0.0,0.0,0.0,0.0,0.0,0.0,0.0,0.0,0.0,0.0,0.0,0.0,2.4823,0.0,2.4878,2.4575,2.4746,0.0,2.4797,2.461,2.4495,2.4461,2.4358,2.481,2.5652,2.5473,2.6311,2.786,2.8675,2.9005,2.9078,2.9794,3.0099,3.0283,3.1812,3.2381,3.2491,0.0,0.0,0.0,0.0,0.0,0.0,0.0,2.4256,2.419,2.419,2.419,2.408,2.3768,2.3731,2.3584,2.3281,2.3529,2.3731,2.3731,2.3731,2.3501,2.3024,2.2364,2.1777,2.129,2.0968,2.1372,0.0,0.0,0.0,0.0,0.0,0.0,0.0,0.0,2.419,2.4171,2.3859,2.3731,2.3657,2.285,2.2813,2.3134,2.2161,2.2106,2.2464,2.2054,2.1945,2.2092,2.2799,2.233,2.159,2.2015,2.1634,2.1019,2.1019,2.0673,2.0308,2.0308,2.0308,2.0308,2.0308,2.0654,2.1019,2.1019,2.1427,2.1889,2.2216,2.297,2.3703,2.4121,2.4626,2.5106,0.0,0.0,0.0,0.0,0.0,0.0,0.0,0.0,0.0,0.0,0.0,0.0,0.0,0.0,0.0,0.0,0.0,0.0,2.4873,0.0,2.4821,2.4678,2.4639,2.4615,2.4615,2.4428,2.4321,2.4321,2.4237,2.4688,2.5567,2.6462,2.721,2.786,2.8675,2.9005,2.9078,2.9886,3.021,3.0393,3.2014,3.2601,3.2711,2.4754,0.0,2.4247,0.0,2.4294,2.419,2.419,2.419,2.419,2.419,2.419,2.419,2.419,2.419,2.419,2.419,2.419,2.419,2.419,2.419,2.3951,2.3373,2.3134,0.0,2.218,2.1923,2.2189,2.3006,2.3006,0.0,0.0,0.0,0.0,0.0,2.419,2.419,2.419,2.419,2.419,2.4153,2.3584,2.3694,2.4071,2.2995,2.2947,2.3398,2.2977,2.2817,2.294,2.3686,2.3632,2.3212,2.3131,2.2531,2.1889,2.1889,2.1485,2.0985,2.0712,2.0846,2.0966,2.0712,2.1273,2.1889,2.1889,2.235,2.2874,2.3124,2.3855,2.4482,2.4562,2.5091,2.5535,0.0,0.0,0.0,0.0,0.0,0.0,0.0,2.5151,2.4754,2.4635,0.0,0.0,0.0,0.0,0.0,0.0,0.0,0.0,0.0,0.0,0.0,0.0,2.4559,2.4503,2.4503,2.4294,2.419,2.4208,2.4685,2.5328,2.6182,2.7548,2.8154,2.8209,2.8767,2.9133,2.9427,3.0246,3.0705,3.106,3.2449,3.2949,3.3036,2.5439,2.475,2.419,2.4199,2.419,2.419,2.419,2.419,2.419,2.419,2.419,2.419,2.419,2.419,2.419,2.419,2.419,2.419,2.419,2.419,2.419,0.0,0.0,2.3006,2.2988,2.2216,2.2189,2.3006,0.0,0.0,2.419,0.0,2.419,2.419,2.419,2.419,2.419,2.419,2.419,2.419,2.419,2.419,2.4218,2.4391,2.4476,2.451,2.4704,2.4759,2.4788,2.493,2.4985,2.4833,2.4045,2.3322,2.2778,2.2778,2.2778,2.2586,2.1716,2.21,2.2566,2.1696,2.2139,2.2778,2.2778,2.2797,2.3047,2.3918,2.4716,2.5324,2.5465,2.5491,2.5547,2.5682,0.0,0.0,0.0,0.0,0.0,0.0,2.4015,2.3582,2.5239,0.0,0.0,0.0,0.0,0.0,0.0,0.0,0.0,2.4773,2.4804,0.0,2.4512,2.4503,2.4503,2.4503,2.4294,2.419,2.4245,2.586,2.7016,2.7824,2.862,2.8987,2.8987,2.9005,2.9464,3.0265,3.1072,3.1861,3.2674,3.3495,3.3788,3.3788,2.6319,2.6007,2.5731,2.5346,2.4685,2.419,2.419,2.419,2.419,2.419,2.419,2.419,2.419,2.419,2.419,0.0,2.419,2.419,0.0,2.419,2.419,2.419,2.3951,2.3823,2.3823,2.3566,2.3566,2.3823,0.0,0.0,0.0,2.419,2.419,2.419,2.419,2.419,2.419,2.419,2.419,2.419,2.419,2.4275,2.4419,2.4478,2.4594,2.4712,2.4884,2.4949,2.4955,2.5141,2.5208,2.517,2.4901,2.4298,2.3687,2.3687,2.3278,2.274,2.2466,2.2586,2.274,2.247,2.3047,2.3687,2.3687,2.4101,2.4577,2.487,2.5161,2.5395,2.5473,2.5543,2.5599,2.5683,0.0,0.0,0.0,0.0,0.0,0.0,2.5001,2.4802,0.0,2.4866,0.0,0.0,0.0,0.0,0.0,0.0,0.0,0.0,2.467,0.0,2.47,2.4578,2.4503,2.4503,2.4294,2.4493,2.5044,2.6117,2.7034,2.7842,2.8638,2.9005,2.9005,2.9005,2.9464,3.0307,3.1279,3.2157,3.2968,3.3784,3.408,3.4043,2.6788,2.709,2.7005,2.5474,2.4649,2.419,2.419,2.419,2.419,2.419,2.419,2.419,2.419,2.419,0.0,2.419,2.419,2.419,2.419,2.419,2.419,2.419,2.419,2.419,2.419,0.0,0.0,2.419,2.419,2.419,2.419,2.419,2.419,2.419,2.419,2.419,2.419,2.419,2.419,2.419,2.419,2.433,2.4512,2.4575,2.4719,2.491,2.5053,2.5105,2.5122,2.5259,2.5308,2.5308,2.5308,2.4966,2.4548,2.4548,2.4178,2.3678,2.3374,2.3509,2.3678,2.3355,2.3913,2.4548,2.4548,2.4947,2.5308,2.5308,2.5346,2.5415,2.5498,2.5556,2.561,2.5683,0.0,2.5703,2.5703,0.0,0.0,0.0,0.0,0.0,0.0,2.5317,0.0,0.0,0.0,0.0,0.0,0.0,0.0,2.5319,2.4892,0.0,2.5257,2.4828,2.4607,2.4607,2.4793,2.5421,2.6428,2.7044,2.7742,2.854,2.9039,2.9217,2.9156,2.9156,2.9795,3.0863,3.1529,3.2537,3.3698,3.4203,3.4311,3.4183,2.6997,2.7943,0.0,0.0,2.4278,0.0,2.4064,2.4064,2.4094,2.418,2.419,2.419,2.419,2.419,2.419,2.419,0.0,0.0,0.0,2.419,2.419,2.419,2.419,0.0,2.419,2.419,2.419,2.419,2.419,2.419,2.419,2.419,2.419,2.419,2.419,2.419,2.419,2.419,2.419,2.419,2.419,2.4339,2.4545,2.4731,2.4884,2.504,2.5224,2.5308,2.5308,2.5308,2.5308,2.5308,2.5308,2.5308,2.5308,2.5308,2.5308,2.5135,2.4394,2.4736,2.5115,2.4375,2.4755,2.5308,2.5308,2.5308,2.5308,2.5317,2.5363,2.5428,2.5486,2.5561,2.5632,2.5683,2.5703,2.5703,2.5703,0.0,0.0,0.0,0.0,0.0,0.0,2.5308,2.5322,0.0,0.0,0.0,0.0,0.0,2.4585,2.6333,2.5484,2.5362,2.6113,2.5381,2.4988,2.4974,2.5729,2.6814,2.8147,2.8382,2.8938,2.9705,2.9705,2.9636,2.9507,2.9487,3.0439,3.1899,3.1899,3.3079,3.4724,3.4724,3.4529,3.4223,0.0,0.0,2.8767,2.7996,2.5033,2.2743,2.2743,2.2743,2.3103,2.4064,2.419,2.419,2.419,2.419,2.419,2.419,2.419,2.419,2.419,2.419,2.419,2.419,2.419,2.419,2.419,2.419,2.419,2.419,2.419,2.419,2.419,2.419,2.419,2.419,2.419,2.419,2.419,2.419,2.419,2.419,2.419,2.4419,2.4738,2.4782,2.4975,2.5248,2.5279,2.5308,2.5308,2.5308,2.5308,2.5308,2.5308,2.5308,2.5308,2.5308,2.5308,2.5269,2.5077,2.5154,2.525,2.5058,2.5154,2.5308,2.5308,2.5308,2.5313,2.5367,2.5428,2.5508,2.5561,2.5633,2.5683,2.5703,2.5703,2.5703,2.5703,2.5575,0.0,0.0,2.5376,2.5308,2.5308,2.5308,2.5512,0.0,0.0,0.0,0.0,0.0,2.6828,2.7287,2.7064,2.7103,2.7449,2.7103,2.6861,2.6722,2.6911,2.7495,2.8399,2.8477,2.8938,2.9705,2.9705,3.0036,3.0612,3.0407,3.1374,3.3023,3.3023,3.3828,3.4999,3.4999,3.4822,3.454,2.751,2.7744,2.796,2.796,2.4819,2.2497,2.3079,2.3176,2.3422,2.4122,2.419,2.419,2.419,2.419,2.419,2.419,2.419,2.419,2.419,2.419,2.419,2.419,2.419,2.419,2.419,2.419,2.419,2.419,2.419,2.419,2.419,2.419,2.419,2.419,2.419,2.419,2.419,2.419,2.419,2.419,2.419,2.4435,2.4804,2.4804,2.5019,2.5308,2.5308,2.5308,2.5308,2.5308,2.5308,2.5308,2.5308,2.5308,2.5308,2.5308,2.5308,2.5308,2.5308,2.5308,2.5308,2.5308,2.5308,2.5308,2.5308,2.5308,2.5308,2.5352,2.5431,2.55,2.5551,2.5634,2.5703,2.5703,2.5703,2.5703,2.5703,2.5575,0.0,2.5491,2.5724,2.5885,2.5885,2.625,2.6647,2.6997,0.0,0.0,2.8261,2.8663,2.8702,2.8299,2.7935,2.7971,2.8434,2.7971,2.7816,2.7979,2.8072,2.8503,2.9186,2.9315,2.9827,3.062,3.062,3.0967,3.1562,3.1515,3.227,3.3422,3.3562,3.4298,3.5289,3.5289,3.5044,3.473,2.6691,2.6691,2.6691,2.6691,2.4628,2.3171,2.3822,2.3915,2.3976,2.417,2.419,2.419,2.419,2.419,2.419,2.419,2.419,2.419,2.419,2.419,2.419,2.419,2.419,2.419,2.419,2.419,2.419,2.419,2.419,2.419,2.419,2.419,2.419,2.419,2.419,2.419,2.419,2.419,2.419,2.419,2.419,2.4409,2.476,2.479,2.4981,2.5264,2.5298,2.5308,2.5308,2.5308,2.5308,2.5308,2.5308,2.5308,2.5308,2.5308,2.5308,2.5308,2.5308,2.5308,2.5308,2.5308,2.5308,2.5308,2.5308,2.5308,2.5337,2.5495,2.5515,2.5556,2.5691,2.5709,2.5703,2.5703,2.5703,2.5703,2.5703,0.0,2.5702,2.5702,2.6366,2.6815,2.681,2.7484,2.8013,2.8261,2.8915,2.9415,0.0,3.039,3.0448,2.9704,2.878,2.8602,2.93,2.8621,2.8533,2.9044,2.9211,2.9569,3.0068,3.0439,3.1,3.1718,3.1833,3.212,3.253,3.27,3.3151,3.3742,3.3932,3.4599,3.5439,3.5439,3.5172,3.4915,2.6691,2.6691,2.6691,2.6691,2.6319,2.5248,2.2942,2.2588,2.298,2.4054,2.419,2.419,2.419,2.419,2.419,2.419,2.419,2.419,2.419,2.419,2.419,2.419,2.419,2.419,2.419,2.419,2.419,2.419,2.419,2.419,2.419,2.419,2.419,2.419,2.419,2.419,2.419,2.419,2.419,2.419,2.419,2.4348,2.4578,2.4738,2.4897,2.5077,2.5248,2.5308,2.5308,2.5308,2.5308,2.5308,2.5308,2.5308,2.5308,2.5308,2.5308,2.5308,2.5308,2.5308,2.5308,2.5308,2.5308,2.5308,2.5308,2.5308,2.5547,2.6391,2.6006,2.5755,2.6615,2.6171,2.5703,2.5703,2.5703,2.5703,2.5703,0.0,2.6688,2.6688,2.7383,2.7838,2.7783,2.7907,2.8555,2.9915,3.0135,3.0808,3.2237,3.2449,3.2449,3.2314,3.0814,3.0077,3.0192,3.0077,3.0065,3.0157,3.0181,3.0257,3.0368,3.1142,3.1564,3.1737,3.2429,3.3154,3.388,3.3681,3.422,3.5124,3.4726,3.4821,3.5155,3.5155,3.5238,3.5425,2.6691,2.6691,2.6691,2.6691,2.6691,2.6234,2.4881,2.3325,2.2511,2.3103,2.3771,2.419,2.419,2.419,2.419,2.419,2.419,2.419,2.419,2.419,2.419,2.419,2.419,2.419,2.419,2.419,2.419,2.419,2.419,2.419,2.419,2.419,2.419,2.419,2.419,2.419,2.419,2.419,2.419,2.419,2.419,2.433,2.4512,2.4599,2.4788,2.5016,2.5105,2.5208,2.5308,2.5308,2.5308,2.5308,2.5308,2.5308,2.5308,2.5308,2.5308,2.5308,2.5308,2.5308,2.5308,2.5308,2.5654,2.6,2.6,2.6365,2.6834,2.7332,2.7157,2.7054,2.7547,2.6952,2.6543,2.7012,2.6309,0.0,0.0,2.6984,2.7068,2.7536,2.8318,2.8971,2.9402,2.9842,3.0591,3.1767,3.1883,3.2208,3.2865,3.2962,3.2974,3.2897,3.216,3.1756,3.1756,3.1756,3.1519,3.1115,3.1538,3.1519,3.1135,3.1968,3.2602,3.3064,3.343,3.4011,3.4695,3.4711,3.4851,3.5062,3.4954,3.4908,3.4908,3.5053,3.5273,3.5596,2.7757,2.7182,2.6691,2.6691,2.6691,2.6691,2.6691,2.478,2.3325,2.3325,2.358,2.3873,2.417,2.419,2.419,2.419,2.419,2.4355,2.4722,2.441,2.419,2.419,2.419,2.419,2.419,2.419,2.419,2.419,2.419,2.419,2.419,2.419,2.419,2.419,2.419,2.419,2.419,2.419,2.419,2.419,2.419,2.4294,2.4445,2.4478,2.4655,2.4879,2.4961,2.5099,2.5248,2.5279,2.5308,2.5308,2.5308,2.5308,2.5308,2.5308,2.5308,2.5308,2.5308,2.5308,2.5346,2.5558,2.6115,2.6659,2.6851,2.7409,2.7975,2.824,2.8178,2.8175,2.8447,2.7847,2.7519,2.8184,0.0,0.0,0.0,2.816,2.8152,2.903,2.9847,3.0598,3.1232,3.187,3.2554,3.3354,3.3462,3.3514,3.3542,3.363,3.3624,3.3513,3.3103,3.2891,3.2891,3.2891,3.2583,3.1987,3.2602,3.2583,3.2006,3.2833,3.3564,3.4205,3.441,3.4769,3.5207,3.5424,3.5215,3.4822,3.4954,3.5003,3.4997,3.5135,3.5555,3.6193,3.0869,2.8619,2.6691,2.6691,2.6691,2.6691,2.6691,2.6522,2.637,2.637,2.4075,2.2897,2.4064,2.419,2.419,2.419,2.419,2.4832,2.6337,2.5034,2.419,2.419,2.419,2.419,2.419,2.419,2.419,2.419,2.419,2.419,2.419,2.419,2.419,2.419,2.419,2.419,2.419,2.419,2.419,2.419,2.419,2.4199,2.4247,2.4436,2.452,2.4583,2.4891,2.5016,2.5046,2.5248,2.5308,2.5308,2.5308,2.5308,2.5308,2.5308,2.5308,2.5308,2.5308,2.5308,2.55,2.6288,2.6544,2.6813,2.7621,2.7857,2.813,2.8932,2.8563,2.8367,2.9242,2.8744,2.8223,2.8281,0.0,0.0,2.9375,3.0137,3.0937,3.1797,3.2617,3.3102,3.3119,3.3153,3.3524,3.4348,3.4406,3.4714,3.5452,3.5441,3.5386,3.5315,3.3737,3.2891,3.2891,3.2891,3.2872,3.2814,3.2872,3.2872,3.2833,3.3705,3.4148,3.4244,3.5045,3.5435,3.546,3.5493,3.532,3.5053,3.4832,3.5177,3.5788,3.5551,3.6429,3.7733,3.0818,2.8772,2.6691,2.6691,2.6691,2.6691,2.6691,2.6691,2.6691,2.6691,2.5727,2.5217,2.5697,2.575,2.5961,2.6437,2.5584,2.5452,2.6525,2.6334,2.5585,2.4263,2.419,2.4428,2.4934,2.4934,2.5191,2.5695,2.5191,2.4934,2.4934,2.4428,2.419,2.419,2.419,2.419,2.419,2.419,2.419,2.419,2.419,2.419,2.4199,2.4284,2.4393,2.4526,2.4792,2.4936,2.5028,2.5224,2.5308,2.5385,2.5942,2.6115,2.6212,2.6755,2.6909,2.6909,2.6909,2.6524,2.6192,2.6524,2.7371,2.8371,2.9256,2.9871,3.0488,3.1376,3.1394,3.1385,3.1775,3.1223,3.0879,3.1387,0.0,3.0391,3.1758,3.1816,3.2012,3.2851,3.3203,3.3593,3.4118,3.4176,3.4499,3.5314,3.5419,3.5508,3.5691,3.6144,3.6352,3.6257,3.5596,3.5026,3.4519,3.45,3.4237,3.3699,3.4257,3.4237,3.3744,3.4603,3.5007,3.5026,3.5365,3.55,3.55,3.55,3.5239,3.4832,3.4734,3.4959,3.5355,3.5448,3.6419,3.7683,3.0784,2.9533,2.8112,2.8112,2.7317,2.6691,2.6691,2.6691,2.6691,2.6691,2.6691,2.6691,2.6691,2.6691,2.6923,2.7487,2.651,2.6195,2.697,2.7331,2.6759,2.5034,2.4942,2.5199,2.576,2.5778,2.6043,2.6602,2.6043,2.5778,2.576,2.5199,2.4942,2.4942,2.4942,2.4942,2.4942,2.4667,2.4585,2.4548,2.43,2.419,2.419,2.419,2.4284,2.4426,2.4631,2.4965,2.5298,2.5236,2.5604,2.6173,2.6505,2.6794,2.7121,2.7717,2.7895,2.7895,2.7895,2.764,2.739,2.739,2.8261,2.9396,3.0538,3.1269,3.1952,3.2846,3.3126,3.3218,3.3298,3.2903,3.2754,3.3301,3.2441,3.2187,3.3613,3.332,3.3281,3.4121,3.4219,3.4453,3.5059,3.5117,3.5331,3.5883,3.5974,3.6023,3.6103,3.7146,3.7428,3.6719,3.6962,3.6596,3.5519,3.55,3.5192,3.4622,3.5212,3.5192,3.4622,3.5231,3.55,3.55,3.55,3.55,3.5493,3.5417,3.5257,3.508,3.4986,3.5347,3.5928,3.6081,3.6911,3.8028,3.119,3.119,3.119,3.119,2.8721,2.6725,2.6725,2.6725,2.6725,2.6691,2.6708,2.6725,2.6725,2.6725,2.6742,2.6725,2.6725,2.7035,2.7855,2.7858,2.7457,2.6638,2.6602,2.6602,2.6602,2.6602,2.6602,2.662,2.6602,2.6602,2.6602,2.6602,2.6602,2.6602,2.6602,2.6602,2.6557,2.576,2.5411,2.5338,2.4548,2.4226,2.4226,2.4226,2.4208,2.4246,2.4436,2.5156,2.5891,2.5235,2.6301,2.7761,2.689,2.7217,2.7934,2.7934,2.7934,2.7934,2.7934,2.853,2.9127,2.9107,2.9127,2.9588,3.1314,3.1718,3.1996,3.2929,3.3173,3.324,3.3306,3.3374,3.3437,3.3437,3.3437,3.373,3.4609,3.4707,3.5039,3.5898,3.5996,3.5996,3.5996,3.5996,3.5996,3.6016,3.6016,3.6316,3.6972,3.865,3.8724,3.6783,3.7565,3.7219,3.5538,3.5519,3.55,3.55,3.55,3.55,3.5519,3.5519,3.5519,3.5519,3.5519,3.5519,3.5505,3.5226,3.5429,3.5878,3.5605,3.6491,3.7862,3.7602,3.8182,3.9063,3.1613,3.119,3.119,3.119,3.0446,2.9854,2.9854,2.9854,2.9093,2.6979,2.8535,2.9854,2.9854,2.9854,2.9689,2.9257,2.7685,2.727,2.8589,2.8644,2.8528,2.829,2.7189,2.6869,2.742,2.7438,2.7732,2.829,2.7732,2.7438,2.742,2.6869,2.6602,2.6602,2.6602,2.6602,2.6583,2.6337,2.6245,2.6227,2.5988,2.5878,2.5878,2.5878,2.5529,2.5129,2.5903,2.6095,2.608,2.6572,2.726,2.7953,2.8261,2.9371,3.0564,3.0564,3.0968,3.1295,3.0717,3.1141,3.1487,3.0314,3.0467,3.1371,3.3064,3.3449,3.3711,3.4661,3.4917,3.4992,3.5096,3.5677,3.6133,3.6133,3.6133,3.623,3.6484,3.5996,3.5703,3.5976,3.5996,3.5996,3.5996,3.5996,3.625,3.6875,3.748,3.8111,3.8797,3.9311,3.9267,3.8541,3.8777,3.8373,3.7276,3.6096,3.55,3.55,3.55,3.5808,3.6346,3.6346,3.6673,3.7219,3.6615,3.6692,3.7185,3.6307,3.6255,3.6718,3.6452,3.6875,3.7616,3.7537,3.8063,3.8818,3.1782,3.119,3.119,3.119,3.119,3.119,3.119,3.119,3.0548,2.8721,3.0057,3.119,3.119,3.119,3.105,3.0681,2.8784,2.8002,2.894,2.9005,2.9005,2.9005,2.8069,2.7776,2.8264,2.8282,2.851,2.9005,2.851,2.8282,2.8264,2.7776,2.7556,2.7556,2.7556,2.7556,2.7537,2.7218,2.7071,2.7053,2.6741,2.6602,2.6602,2.6602,2.63,2.5954,2.6566,2.6877,2.7036,2.7285,2.8045,2.9083,3.0237,3.1333,3.2179,3.2179,3.2526,3.2795,3.2314,3.2526,3.2737,3.2064,3.2045,3.2526,3.3898,3.4468,3.4982,3.5927,3.6451,3.6764,3.6868,3.7394,3.7812,3.7812,3.7812,3.7812,3.7812,3.7363,3.7031,3.7031,3.7031,3.7031,3.7031,3.7031,3.7246,3.7773,3.8571,3.9208,3.9572,3.9872,3.981,3.9311,3.9304,3.8873,3.8007,3.7007,3.6481,3.6481,3.6481,3.6731,3.7219,3.7219,3.7507,3.7969,3.745,3.7315,3.7447,3.686,3.6811,3.7081,3.7048,3.7409,3.7955,3.7955,3.8285,3.8707,3.2121,3.1376,3.119,3.119,3.119,3.119,3.119,3.119,3.119,3.119,3.119,3.119,3.119,3.119,3.119,3.119,3.0113,2.9427,2.9427,2.9244,2.9133,2.9115,2.9115,2.9078,2.9005,2.9005,2.9005,2.9005,2.9005,2.9005,2.9005,2.9005,2.9005,2.9005,2.9005,2.9005,2.895,2.8227,2.7908,2.7842,2.7108,2.6804,2.6804,2.6804,2.6825,2.6857,2.6898,2.7698,2.8647,2.7948,2.901,3.0885,3.2429,3.2949,3.3026,3.3026,3.3064,3.3122,3.3045,3.3064,3.3295,3.4013,3.3718,3.3449,3.4244,3.5045,3.5881,3.6817,3.7694,3.8319,3.8387,3.8566,3.8711,3.8711,3.8711,3.8711,3.8711,3.8652,3.8594,3.8594,3.8594,3.8594,3.8594,3.8672,3.8711,3.8711,3.9398,3.9775,3.9708,4.0348,4.0295,3.9427,3.9419,3.9034,3.8238,3.8219,3.8142,3.8007,3.8007,3.8046,3.8123,3.8123,3.8161,3.8219,3.8142,3.7719,3.7048,3.7166,3.7257,3.7337,3.7526,3.8046,3.8707,3.8707,3.8707,3.8707,3.4771,3.2797,3.119,3.119,3.119,3.119,3.119,3.119,3.119,3.119,3.119,3.119,3.119,3.119,3.119,3.119,3.2168,3.2761,3.2761,3.1182,3.0155,2.9941,2.9953,2.9629,2.9005,2.9005,2.9005,2.9005,2.9005,2.9005,2.9005,2.9005,2.9005,2.9005,2.9005,2.9005,2.8987,2.8803,2.873,2.8712,2.8546,2.8473,2.8473,2.8473,2.8613,2.8849,2.9266,3.0008,3.086,3.1466,3.1975,3.2429,3.2795,3.3372,3.3917,3.3917,3.4391,3.4788,3.4103,3.443,3.4808,3.4321,3.5045,3.5923,3.6122,3.6288,3.6709,3.7644,3.8092,3.8316,3.8385,3.9074,3.9629,3.9629,3.9629,3.9629,3.9629,3.9023,3.8594,3.8594,3.8594,3.8594,3.8594,3.9219,3.9629,3.9629,4.0297,4.0677,4.0548,4.0639,4.0565,4.0254,4.0246,4.015,3.9958,3.9958,3.9296,3.8007,3.8007,3.8354,3.9015,3.9015,3.9361,3.9919,3.9284,3.9265,3.9592,3.8484,3.8445,3.902,3.8598,3.856,3.8707,3.8707,3.8707,3.8707,3.56,3.4349,3.3305,3.3305,3.2138,3.119,3.119,3.1613,3.1749,3.1258,3.1613,3.1732,3.1241,3.119,3.1543,3.2366,3.3266,3.3587,3.3073,3.2003,3.1195,3.0797,3.076,3.0577,3.0155,3.0136,2.9757,2.9005,2.9005,2.9005,2.9005,2.939,2.9372,2.9023,2.939,2.9354,2.9005,2.9005,2.9225,2.9574,2.9574,2.9794,3.0136,3.0136,3.032,3.058,3.0854,3.1392,3.2122,3.3172,3.3526,3.3583,3.4007,3.4449,3.4814,3.4814,3.5135,3.5481,3.5411,3.5738,3.6058,3.6026,3.6661,3.7219,3.6788,3.7365,3.8125,3.8588,3.915,3.958,3.9561,4.008,4.0527,4.0527,4.0527,4.0527,4.0527,4.0137,3.9844,3.9844,3.9844,3.9844,3.9844,4.0254,4.0527,4.0527,4.0767,4.087,4.0801,4.1077,4.1191,4.1131,4.1123,4.1123,4.1123,4.1123,4.0469,3.9181,3.9181,3.9438,3.9881,3.9881,4.0092,4.0477,4.0054,3.99,3.9888,3.9206,3.8946,3.8952,3.8765,3.8707,3.8707,3.8707,3.8707,3.8707,3.56,3.56,3.56,3.56,3.3592,3.1782,3.1275,3.1901,3.2324,3.2002,3.2679,3.3009,3.2534,3.2488,3.3055,3.4517,3.4633,3.4174,3.3123,3.3036,3.2682,3.1856,3.1819,3.169,3.1415,3.1397,3.0742,2.9409,2.9409,2.9409,2.9427,3.0099,3.0063,2.9445,3.0118,3.0026,2.9409,2.9409,2.9794,3.0411,3.0411,3.0797,3.1397,3.1397,3.1675,3.2072,3.2019,3.2439,3.3177,3.4107,3.441,3.4545,3.5269,3.55,3.5538,3.5654,3.5712,3.5885,3.6692,3.6923,3.7103,3.7815,3.8104,3.8034,3.7319,3.8317,3.9466,3.974,4.0555,4.1196,4.1075,4.1243,4.1406,4.1406,4.1406,4.1406,4.1406,4.1406,4.1348,4.1211,4.1328,4.1406,4.1406,4.1406,4.1406,4.1406,4.1169,4.1089,4.1245,4.1731,4.2019,4.2019,4.2019,4.2019,4.2019,4.2019,4.1662,4.0939,4.0939,4.0785,4.0496,4.0496,4.0496,4.0496,4.0496,4.0131,3.9515,3.9577,3.9173,3.8526,3.8654,3.8707,3.8707,3.8707,3.8799,3.8909,3.56,3.56,3.56,3.56,3.5261,3.4129,3.1579,3.1309,3.2273,3.4687,3.5109,3.5846,3.75,3.7697,3.7776,3.8031,3.8046,3.7588,3.6505,3.6431,3.555,3.355,3.3476,3.2816,3.1433,3.1397,3.1286,3.1085,3.1085,3.1085,3.1085,3.1195,3.1182,3.1085,3.1195,3.1182,3.1085,3.1085,3.114,3.125,3.125,3.1305,3.1397,3.1397,3.2139,3.3155,3.2932,3.3663,3.4814,3.5206,3.5327,3.5346,3.5462,3.55,3.5635,3.6327,3.6538,3.6731,3.7584,3.7815,3.7853,3.7969,3.8565,3.9117,3.9044,3.9226,3.9837,4.1407,4.1935,4.2128,4.21,4.2177,4.2246,4.2246,4.2246,4.2246,4.2246,4.2246,4.1973,4.1289,4.1816,4.2246,4.2246,4.2246,4.2246,4.2246,4.2044,4.2252,4.3019,4.2975,4.2912,4.2912,4.2912,4.2912,4.2912,4.2912,4.2854,4.2758,4.2758,4.195,4.0496,4.0496,4.0496,4.0496,4.0496,4.0439,4.0311,3.9804,3.9524,3.9378,3.8876,3.8707,3.8707,3.8707,3.9148,3.9735,3.56,3.56,3.56,3.56,3.56,3.516,3.3863,3.3203,3.3525,3.5363,3.56,3.6381,3.8465,3.8707,3.8707,3.8707,3.8157,3.7477,3.6688,3.6652,3.6211,3.5238,3.5202,3.4853,3.4137,3.4137,3.4137,3.4137,3.2296,3.1397,3.1415,3.1861,3.1825,3.1415,3.1861,3.1825,3.1397,3.1397,3.1659,3.2063,3.2063,3.2339,3.2742,3.2742,3.331,3.4149,3.4329,3.5073,3.6006,3.6126,3.6481,3.6911,3.6911,3.6911,3.6969,3.7315,3.743,3.7623,3.8488,3.8719,3.8834,3.9277,4.0104,4.0829,4.0883,4.1334,4.1801,4.2058,4.2624,4.3075,4.3033,4.3078,4.3125,4.3125,4.3125,4.3125,4.3125,4.3125,4.2988,4.2637,4.291,4.3125,4.3125,4.3125,4.3125,4.3125,4.2944,4.2996,4.3389,4.3633,4.3778,4.3778,4.3778,4.3778,4.3778,4.3778,4.3547,4.3104,4.3566,4.2874,4.1239,4.1239,4.095,4.0489,4.0347,4.0286,4.0232,3.958,3.9314,3.9282,3.8859,3.8707,3.8707,3.8707,3.9203,3.99]}]]